Darstellungsparameter: Aktuell verwendete Einstellungen:
Skalierung der Graphiken ... ?
xyx+y,   Skalierungsfaktor:      Skalierung: Modus: x, Faktor: 1
Darstellungszeitraum ... ?
Vom - - bis: - -   Zeitraum: 16.02.2009 - 15.08.2009
Min/Max/Avg-Anzeige ... ?
Zeige MMA aktuell
Zeige MMA Monat
Zeige MMA alles
Zeige --A aktuell
Zeige --A Monat
Zeige --A alles
Keine MMA-Anzeige
MMA:
Minimum Maximum Average (ber die Originaldaten)
MMA-Basis: 23.02.2003 - 16.08.2019
Quicknavigation für Darstellung... ?
Tage:      1T, 2T, 3T, 5T -1T -2T -3T -5T +1T +2T +3T +5T
Wochen: 1W, 2W, 3W -1W -2W -3W +1W +2W +3W
Monate: 1M, 3M, 6M -1M -3M -6M +1M +3M +6M
Jahre:    1J, 3J, 5J, 10J -1J -3J -5J -10J +1J +3J +5J +10J
Nutze für die Darstellung ... ?
Originaldaten oder Mittelwerte auf ...
Stundenbasis Tagesbasis Wochenbasis
Monatsbasis Jahresbasis      Datenbasis: Original-Daten
Darstellen als:
Statistik (Auto) Statistik J:M      Darstellung:
Zur Graphik,    zurück zur Übersicht aller Sensoren.
 
Tabellarische Datenbersicht: ?
 
Sensor: Nr:Datum:Temp:Feuchte:Taupunkt:
Aussen-T/F 1 16-02-2009 00:03:51 0.2 C 78 % -3.17 C
2 16-02-2009 00:15:51 0.2 C 79 % -3 C
3 16-02-2009 00:27:51 0.1 C 80 % -2.93 C
4 16-02-2009 00:39:51 0.1 C 82 % -2.6 C
5 16-02-2009 00:51:51 0 C 83 % -2.53 C
6 16-02-2009 01:03:51 0 C 83 % -2.53 C
7 16-02-2009 01:15:51 0 C 83 % -2.53 C
8 16-02-2009 01:27:51 0 C 83 % -2.53 C
9 16-02-2009 01:39:52 0 C 83 % -2.53 C
10 16-02-2009 01:51:52 0 C 83 % -2.53 C
11 16-02-2009 02:03:52 0 C 83 % -2.53 C
12 16-02-2009 02:15:52 0.1 C 82 % -2.6 C
13 16-02-2009 02:27:52 0.1 C 81 % -2.76 C
14 16-02-2009 02:39:52 0.2 C 81 % -2.67 C
15 16-02-2009 02:51:52 0.2 C 80 % -2.83 C
16 16-02-2009 03:03:52 0.2 C 80 % -2.83 C
17 16-02-2009 03:15:52 0.2 C 80 % -2.83 C
18 16-02-2009 03:27:52 0.2 C 80 % -2.83 C
19 16-02-2009 03:39:52 0.3 C 80 % -2.73 C
20 16-02-2009 03:51:52 0.3 C 79 % -2.9 C
21 16-02-2009 04:03:52 0.3 C 78 % -3.07 C
22 16-02-2009 04:15:52 0.4 C 78 % -2.98 C
23 16-02-2009 04:27:52 0.4 C 78 % -2.98 C
24 16-02-2009 04:39:52 0.4 C 78 % -2.98 C
25 16-02-2009 04:51:52 0.4 C 78 % -2.98 C
Sensor: Nr:Datum:Temp:Feuchte:Taupunkt:
Aussen-T/F 26 16-02-2009 05:03:52 0.5 C 78 % -2.88 C
27 16-02-2009 05:15:52 0.5 C 78 % -2.88 C
28 16-02-2009 05:27:52 0.5 C 78 % -2.88 C
29 16-02-2009 05:39:53 0.5 C 78 % -2.88 C
30 16-02-2009 05:51:53 0.4 C 78 % -2.98 C
31 16-02-2009 06:03:53 0.4 C 79 % -2.81 C
32 16-02-2009 06:15:53 0.4 C 81 % -2.47 C
33 16-02-2009 06:27:53 0.3 C 82 % -2.4 C
34 16-02-2009 06:39:53 0.4 C 83 % -2.14 C
35 16-02-2009 06:51:53 0.4 C 83 % -2.14 C
36 16-02-2009 07:03:51 0.4 C 84 % -1.98 C
37 16-02-2009 07:15:50 0.4 C 85 % -1.82 C
38 16-02-2009 07:27:50 0.4 C 85 % -1.82 C
39 16-02-2009 07:39:51 0.4 C 85 % -1.82 C
40 16-02-2009 07:51:50 0.5 C 85 % -1.72 C
41 16-02-2009 08:03:50 0.5 C 85 % -1.72 C
42 16-02-2009 08:15:50 0.5 C 85 % -1.72 C
43 16-02-2009 08:27:50 0.5 C 85 % -1.72 C
44 16-02-2009 08:39:50 0.6 C 85 % -1.62 C
45 16-02-2009 08:51:49 0.7 C 85 % -1.53 C
46 16-02-2009 09:03:50 0.8 C 85 % -1.43 C
47 16-02-2009 09:15:50 1 C 83 % -1.55 C
48 16-02-2009 09:27:50 1.1 C 83 % -1.46 C
49 16-02-2009 09:39:49 1.2 C 82 % -1.52 C
50 16-02-2009 09:51:50 1.3 C 81 % -1.59 C
Sensor: Nr:Datum:Temp:Feuchte:Taupunkt:
Aussen-T/F 51 16-02-2009 10:03:49 1.3 C 80 % -1.76 C
52 16-02-2009 10:15:49 1.3 C 80 % -1.76 C
53 16-02-2009 10:27:49 1.5 C 82 % -1.23 C
54 16-02-2009 10:39:48 1.5 C 83 % -1.06 C
55 16-02-2009 10:51:49 1.4 C 84 % -1 C
56 16-02-2009 11:03:48 1.2 C 85 % -1.03 C
57 16-02-2009 11:15:48 1.5 C 86 % -0.58 C
58 16-02-2009 11:27:48 1.6 C 87 % -0.32 C
59 16-02-2009 11:39:48 1.7 C 86 % -0.38 C
60 16-02-2009 11:51:48 1.8 C 86 % -0.29 C
61 16-02-2009 12:03:48 1.9 C 87 % -0.03 C
62 16-02-2009 12:15:47 2.1 C 86 % 0.01 C
63 16-02-2009 12:27:47 2.3 C 86 % 0.21 C
64 16-02-2009 12:39:48 2.6 C 84 % 0.18 C
65 16-02-2009 12:51:47 2.7 C 83 % 0.11 C
66 16-02-2009 13:03:47 2.8 C 82 % 0.04 C
67 16-02-2009 13:15:47 3 C 81 % 0.07 C
68 16-02-2009 13:27:47 3.4 C 80 % 0.29 C
69 16-02-2009 13:39:47 3.8 C 78 % 0.33 C
70 16-02-2009 13:51:46 3.8 C 78 % 0.33 C
71 16-02-2009 14:03:47 3.9 C 77 % 0.25 C
72 16-02-2009 14:15:47 4 C 76 % 0.16 C
73 16-02-2009 14:27:47 3.8 C 77 % 0.15 C
74 16-02-2009 14:39:46 3.8 C 78 % 0.33 C
75 16-02-2009 14:51:47 3.6 C 78 % 0.13 C
Sensor: Nr:Datum:Temp:Feuchte:Taupunkt:
Aussen-T/F 76 16-02-2009 15:03:46 3.5 C 79 % 0.21 C
77 16-02-2009 15:15:46 3.4 C 81 % 0.46 C
78 16-02-2009 15:27:46 3.4 C 82 % 0.63 C
79 16-02-2009 15:39:45 3.4 C 83 % 0.79 C
80 16-02-2009 15:51:46 3.4 C 84 % 0.96 C
81 16-02-2009 16:03:45 3.4 C 85 % 1.12 C
82 16-02-2009 16:15:45 3.4 C 85 % 1.12 C
83 16-02-2009 16:27:45 3.4 C 86 % 1.29 C
84 16-02-2009 16:39:46 3.3 C 86 % 1.19 C
85 16-02-2009 16:51:45 3.3 C 87 % 1.35 C
86 16-02-2009 17:03:45 3.3 C 87 % 1.35 C
87 16-02-2009 17:15:45 3.3 C 88 % 1.51 C
88 16-02-2009 17:27:45 3.2 C 88 % 1.41 C
89 16-02-2009 17:39:45 3.2 C 88 % 1.41 C
90 16-02-2009 17:51:44 3.2 C 89 % 1.57 C
91 16-02-2009 18:03:45 3.2 C 89 % 1.57 C
92 16-02-2009 18:15:44 3.3 C 90 % 1.82 C
93 16-02-2009 18:27:44 3.3 C 90 % 1.82 C
94 16-02-2009 18:39:44 3.3 C 90 % 1.82 C
95 16-02-2009 18:51:44 3.3 C 90 % 1.82 C
96 16-02-2009 19:03:44 3.4 C 91 % 2.07 C
97 16-02-2009 19:15:44 3.4 C 91 % 2.07 C
98 16-02-2009 19:27:44 3.5 C 91 % 2.17 C
99 16-02-2009 19:39:43 3.4 C 91 % 2.07 C
100 16-02-2009 19:51:44 3.4 C 91 % 2.07 C
Sensor: Nr:Datum:Temp:Feuchte:Taupunkt:
Aussen-T/F 101 16-02-2009 20:03:43 3.4 C 91 % 2.07 C
102 16-02-2009 20:15:43 3.6 C 91 % 2.27 C
103 16-02-2009 20:27:43 3.6 C 91 % 2.27 C
104 16-02-2009 20:39:43 3.5 C 91 % 2.17 C
105 16-02-2009 20:51:43 3.5 C 91 % 2.17 C
106 16-02-2009 21:03:43 3.5 C 91 % 2.17 C
107 16-02-2009 21:15:43 3.5 C 91 % 2.17 C
108 16-02-2009 21:27:43 3.6 C 91 % 2.27 C
109 16-02-2009 21:39:42 3.4 C 91 % 2.07 C
110 16-02-2009 21:52:59 3.5 C 91 % 2.17 C
111 16-02-2009 22:04:59 3.3 C 91 % 1.98 C
112 16-02-2009 22:16:59 3.3 C 92 % 2.13 C
113 16-02-2009 22:28:59 3.3 C 92 % 2.13 C
114 16-02-2009 22:40:59 3.4 C 92 % 2.23 C
115 16-02-2009 22:52:59 3.4 C 93 % 2.38 C
116 16-02-2009 23:04:59 3.5 C 93 % 2.48 C
117 16-02-2009 23:16:59 3.8 C 93 % 2.77 C
118 16-02-2009 23:28:59 3.9 C 93 % 2.87 C
119 16-02-2009 23:40:59 3.9 C 92 % 2.72 C
120 16-02-2009 23:52:59 4 C 91 % 2.67 C
121 17-02-2009 00:04:59 4 C 91 % 2.67 C
122 17-02-2009 00:16:59 4 C 91 % 2.67 C
123 17-02-2009 00:28:59 3.9 C 91 % 2.57 C
124 17-02-2009 00:40:59 3.9 C 92 % 2.72 C
125 17-02-2009 00:51:59 3.9 C 92 % 2.72 C
Sensor: Nr:Datum:Temp:Feuchte:Taupunkt:
Aussen-T/F 126 17-02-2009 01:04:00 3.9 C 92 % 2.72 C
127 17-02-2009 01:16:00 3.9 C 92 % 2.72 C
128 17-02-2009 01:28:00 3.9 C 92 % 2.72 C
129 17-02-2009 01:40:00 4 C 92 % 2.82 C
130 17-02-2009 01:52:00 3.9 C 93 % 2.87 C
131 17-02-2009 02:04:00 3.9 C 93 % 2.87 C
132 17-02-2009 02:16:00 3.9 C 93 % 2.87 C
133 17-02-2009 02:28:00 3.9 C 93 % 2.87 C
134 17-02-2009 02:40:00 3.9 C 93 % 2.87 C
135 17-02-2009 02:52:00 3.9 C 93 % 2.87 C
136 17-02-2009 03:04:00 4 C 93 % 2.97 C
137 17-02-2009 03:16:00 4 C 93 % 2.97 C
138 17-02-2009 03:28:00 4 C 93 % 2.97 C
139 17-02-2009 03:40:00 4 C 93 % 2.97 C
140 17-02-2009 03:52:00 4 C 93 % 2.97 C
141 17-02-2009 04:04:00 4 C 93 % 2.97 C
142 17-02-2009 04:16:00 4.1 C 94 % 3.22 C
143 17-02-2009 04:28:00 4.2 C 94 % 3.32 C
144 17-02-2009 04:40:00 4.2 C 94 % 3.32 C
145 17-02-2009 04:52:00 4.3 C 94 % 3.42 C
146 17-02-2009 05:04:00 4.3 C 94 % 3.42 C
147 17-02-2009 05:16:01 4.3 C 94 % 3.42 C
148 17-02-2009 05:28:01 4.4 C 94 % 3.52 C
149 17-02-2009 05:40:01 4.4 C 94 % 3.52 C
150 17-02-2009 05:52:01 4.4 C 94 % 3.52 C
Sensor: Nr:Datum:Temp:Feuchte:Taupunkt:
Aussen-T/F 151 17-02-2009 06:04:01 4.5 C 94 % 3.62 C
152 17-02-2009 06:16:01 4.4 C 94 % 3.52 C
153 17-02-2009 06:28:01 4.4 C 94 % 3.52 C
154 17-02-2009 06:40:01 4.4 C 94 % 3.52 C
155 17-02-2009 06:52:01 4.5 C 94 % 3.62 C
156 17-02-2009 07:04:43 4.5 C 94 % 3.62 C
157 17-02-2009 07:16:43 4.7 C 95 % 3.97 C
158 17-02-2009 07:28:43 4.7 C 95 % 3.97 C
159 17-02-2009 07:40:43 4.6 C 95 % 3.87 C
160 17-02-2009 07:52:43 4.7 C 95 % 3.97 C
161 17-02-2009 08:04:42 4.6 C 95 % 3.87 C
162 17-02-2009 08:16:43 4.6 C 95 % 3.87 C
163 17-02-2009 08:28:44 4.8 C 95 % 4.07 C
164 17-02-2009 08:40:42 5 C 95 % 4.27 C
165 17-02-2009 08:52:42 5.1 C 95 % 4.37 C
166 17-02-2009 09:04:42 5.3 C 95 % 4.57 C
167 17-02-2009 09:16:42 5.5 C 95 % 4.76 C
168 17-02-2009 09:28:42 5.5 C 95 % 4.76 C
169 17-02-2009 09:40:42 5.6 C 95 % 4.86 C
170 17-02-2009 09:52:42 5.6 C 94 % 4.71 C
171 17-02-2009 10:04:42 5.7 C 94 % 4.81 C
172 17-02-2009 10:16:41 5.7 C 94 % 4.81 C
173 17-02-2009 10:28:41 5.7 C 93 % 4.66 C
174 17-02-2009 10:40:41 6 C 92 % 4.8 C
175 17-02-2009 10:52:41 6 C 92 % 4.8 C
Sensor: Nr:Datum:Temp:Feuchte:Taupunkt:
Aussen-T/F 176 17-02-2009 11:04:41 5.9 C 93 % 4.86 C
177 17-02-2009 11:16:40 5.9 C 93 % 4.86 C
178 17-02-2009 11:28:40 6 C 92 % 4.8 C
179 17-02-2009 11:40:41 6 C 92 % 4.8 C
180 17-02-2009 11:52:41 6 C 92 % 4.8 C
181 17-02-2009 12:04:40 6.1 C 92 % 4.9 C
182 17-02-2009 12:16:41 6.3 C 93 % 5.25 C
183 17-02-2009 12:28:41 6.3 C 93 % 5.25 C
184 17-02-2009 12:40:40 6.3 C 93 % 5.25 C
185 17-02-2009 12:52:40 6.6 C 93 % 5.55 C
186 17-02-2009 13:04:39 6.7 C 93 % 5.65 C
187 17-02-2009 13:16:40 6.7 C 92 % 5.49 C
188 17-02-2009 13:28:40 6.5 C 92 % 5.3 C
189 17-02-2009 13:40:39 6.5 C 92 % 5.3 C
190 17-02-2009 13:52:39 6.4 C 90 % 4.88 C
191 17-02-2009 14:04:40 6.4 C 90 % 4.88 C
192 17-02-2009 14:16:39 6.5 C 88 % 4.66 C
193 17-02-2009 14:28:39 6.7 C 86 % 4.53 C
194 17-02-2009 14:40:39 6.8 C 83 % 4.12 C
195 17-02-2009 14:52:39 7 C 80 % 3.79 C
196 17-02-2009 15:04:39 6.9 C 80 % 3.7 C
197 17-02-2009 15:16:38 6.9 C 79 % 3.52 C
198 17-02-2009 15:28:38 7 C 75 % 2.88 C
199 17-02-2009 15:40:38 6.9 C 77 % 3.16 C
200 17-02-2009 15:52:38 6.8 C 73 % 2.31 C
Sensor: Nr:Datum:Temp:Feuchte:Taupunkt:
Aussen-T/F 201 17-02-2009 16:04:38 5.9 C 72 % 1.25 C
202 17-02-2009 16:16:38 5.5 C 72 % 0.86 C
203 17-02-2009 16:28:38 5.1 C 73 % 0.67 C
204 17-02-2009 16:40:38 4.9 C 74 % 0.67 C
205 17-02-2009 16:52:38 4.6 C 72 % 0 C
206 17-02-2009 17:04:37 4.4 C 72 % -0.19 C
207 17-02-2009 17:16:38 4 C 71 % -0.77 C
208 17-02-2009 17:28:38 3.7 C 71 % -1.06 C
209 17-02-2009 17:40:37 3.6 C 70 % -1.35 C
210 17-02-2009 17:52:37 3.4 C 68 % -1.93 C
211 17-02-2009 18:04:37 3.1 C 68 % -2.22 C
212 17-02-2009 18:16:37 2.9 C 68 % -2.41 C
213 17-02-2009 18:28:37 2.8 C 69 % -2.31 C
214 17-02-2009 18:40:37 2.5 C 69 % -2.6 C
215 17-02-2009 18:52:37 2.3 C 66 % -3.38 C
216 17-02-2009 19:04:37 2.1 C 61 % -4.62 C
217 17-02-2009 19:16:36 2.1 C 59 % -5.06 C
218 17-02-2009 19:28:36 1.9 C 56 % -5.93 C
219 17-02-2009 19:40:36 1.6 C 55 % -6.45 C
220 17-02-2009 19:52:36 1.1 C 57 % -6.45 C
221 17-02-2009 20:04:36 0.7 C 56 % -7.05 C
222 17-02-2009 20:16:35 0.3 C 54 % -7.9 C
223 17-02-2009 20:28:35 0 C 55 % -7.94 C
224 17-02-2009 20:40:36 -0.3 C 56 % -8 C
225 17-02-2009 20:52:35 -0.4 C 54 % -8.56 C
Sensor: Nr:Datum:Temp:Feuchte:Taupunkt:
Aussen-T/F 226 17-02-2009 21:04:36 -0.5 C 55 % -8.42 C
227 17-02-2009 21:16:35 -0.7 C 53 % -9.08 C
228 17-02-2009 21:28:35 -0.9 C 54 % -9.03 C
229 17-02-2009 21:41:36 -1 C 54 % -9.12 C
230 17-02-2009 21:53:36 -1.2 C 54 % -9.31 C
231 17-02-2009 22:05:36 -1.3 C 54 % -9.4 C
232 17-02-2009 22:17:36 -1.5 C 57 % -8.9 C
233 17-02-2009 22:29:36 -1.7 C 58 % -8.87 C
234 17-02-2009 22:41:36 -1.9 C 60 % -8.62 C
235 17-02-2009 22:53:36 -2 C 59 % -8.93 C
236 17-02-2009 23:05:36 -2.2 C 60 % -8.9 C
237 17-02-2009 23:17:36 -2.3 C 60 % -9 C
238 17-02-2009 23:29:36 -2.4 C 61 % -8.88 C
239 17-02-2009 23:41:36 -2.6 C 62 % -8.86 C
240 17-02-2009 23:53:36 -2.6 C 62 % -8.86 C
241 18-02-2009 00:05:36 -2.8 C 63 % -8.85 C
242 18-02-2009 00:17:36 -2.9 C 64 % -8.74 C
243 18-02-2009 00:29:37 -2.9 C 65 % -8.55 C
244 18-02-2009 00:41:37 -3 C 66 % -8.45 C
245 18-02-2009 00:53:37 -3.2 C 65 % -8.83 C
246 18-02-2009 01:05:37 -3.3 C 65 % -8.93 C
247 18-02-2009 01:17:37 -3.4 C 65 % -9.02 C
248 18-02-2009 01:29:37 -3.5 C 66 % -8.92 C
249 18-02-2009 01:41:37 -3.5 C 66 % -8.92 C
250 18-02-2009 01:53:37 -3.6 C 66 % -9.02 C
Sensor: Nr:Datum:Temp:Feuchte:Taupunkt:
Aussen-T/F 251 18-02-2009 02:05:37 -3.7 C 66 % -9.11 C
252 18-02-2009 02:17:37 -3.7 C 67 % -8.92 C
253 18-02-2009 02:29:37 -3.7 C 68 % -8.73 C
254 18-02-2009 02:41:37 -3.8 C 68 % -8.83 C
255 18-02-2009 02:53:37 -4 C 68 % -9.02 C
256 18-02-2009 03:05:37 -4 C 69 % -8.83 C
257 18-02-2009 03:17:37 -4.1 C 69 % -8.93 C
258 18-02-2009 03:29:37 -4.3 C 69 % -9.12 C
259 18-02-2009 03:41:37 -4.3 C 70 % -8.94 C
260 18-02-2009 03:53:37 -4.5 C 70 % -9.13 C
261 18-02-2009 04:05:37 -4.5 C 70 % -9.13 C
262 18-02-2009 04:17:37 -4.7 C 70 % -9.32 C
263 18-02-2009 04:29:37 -4.8 C 70 % -9.42 C
264 18-02-2009 04:41:38 -4.8 C 70 % -9.42 C
265 18-02-2009 04:53:38 -4.9 C 70 % -9.52 C
266 18-02-2009 05:05:38 -4.9 C 70 % -9.52 C
267 18-02-2009 05:17:38 -5.1 C 71 % -9.53 C
268 18-02-2009 05:29:38 -5 C 72 % -9.25 C
269 18-02-2009 05:41:38 -5.1 C 72 % -9.35 C
270 18-02-2009 05:53:38 -5.4 C 72 % -9.64 C
271 18-02-2009 06:05:38 -5.5 C 72 % -9.74 C
272 18-02-2009 06:17:38 -5.6 C 72 % -9.83 C
273 18-02-2009 06:29:38 -5.7 C 73 % -9.75 C
274 18-02-2009 06:41:38 -5.5 C 73 % -9.56 C
275 18-02-2009 06:53:38 -5.5 C 74 % -9.39 C
Sensor: Nr:Datum:Temp:Feuchte:Taupunkt:
Aussen-T/F 276 18-02-2009 07:05:36 -5.7 C 74 % -9.58 C
277 18-02-2009 07:17:35 -6.1 C 73 % -10.14 C
278 18-02-2009 07:29:36 -6.2 C 73 % -10.24 C
279 18-02-2009 07:41:36 -5.9 C 74 % -9.78 C
280 18-02-2009 07:53:35 -5.8 C 75 % -9.51 C
281 18-02-2009 08:05:35 -5.7 C 75 % -9.41 C
282 18-02-2009 08:17:35 -5.6 C 76 % -9.15 C
283 18-02-2009 08:29:35 -5.8 C 76 % -9.34 C
284 18-02-2009 08:41:35 -5.9 C 76 % -9.44 C
285 18-02-2009 08:53:34 -5.7 C 76 % -9.24 C
286 18-02-2009 09:05:35 -5.7 C 76 % -9.24 C
287 18-02-2009 09:17:35 -5.5 C 77 % -8.88 C
288 18-02-2009 09:29:34 -5.4 C 77 % -8.79 C
289 18-02-2009 09:41:34 -4.9 C 77 % -8.3 C
290 18-02-2009 09:53:35 -4.7 C 77 % -8.11 C
291 18-02-2009 10:05:34 -4.2 C 77 % -7.62 C
292 18-02-2009 10:17:34 -3.5 C 75 % -7.28 C
293 18-02-2009 10:29:34 -2.4 C 70 % -7.11 C
294 18-02-2009 10:41:34 -1.7 C 62 % -8.01 C
295 18-02-2009 10:53:34 -1.3 C 57 % -8.71 C
296 18-02-2009 11:05:34 -1.5 C 54 % -9.59 C
297 18-02-2009 11:17:33 -1.3 C 54 % -9.4 C
298 18-02-2009 11:29:33 -1 C 52 % -9.6 C
299 18-02-2009 11:41:33 -0.7 C 46 % -10.87 C
300 18-02-2009 11:53:33 -0.3 C 48 % -9.97 C
Sensor: Nr:Datum:Temp:Feuchte:Taupunkt:
Aussen-T/F 301 18-02-2009 12:05:33 0 C 48 % -9.67 C
302 18-02-2009 12:17:32 0.2 C 48 % -9.49 C
303 18-02-2009 12:29:33 0.5 C 46 % -9.75 C
304 18-02-2009 12:41:33 0.7 C 45 % -9.85 C
305 18-02-2009 12:53:32 1.1 C 40 % -10.96 C
306 18-02-2009 13:05:32 1.9 C 38 % -10.89 C
307 18-02-2009 13:17:33 2.3 C 36 % -11.21 C
308 18-02-2009 13:29:32 2.7 C 35 % -11.2 C
309 18-02-2009 13:41:32 2.8 C 31 % -12.62 C
310 18-02-2009 13:53:32 3.6 C 25 % -14.55 C
311 18-02-2009 14:05:32 3.6 C 25 % -14.55 C
312 18-02-2009 14:17:32 4.4 C 20 % -16.55 C
313 18-02-2009 14:29:31 4.8 C 20 % -16.22 C
314 18-02-2009 14:41:31 5.5 C 20 % -15.64 C
315 18-02-2009 14:53:32 5.7 C 20 % -15.47 C
316 18-02-2009 15:05:31 5.9 C 20 % -15.3 C
317 18-02-2009 15:17:31 5.5 C 20 % -15.64 C
318 18-02-2009 15:29:31 5.7 C 20 % -15.47 C
319 18-02-2009 15:41:31 6 C 20 % -15.22 C
320 18-02-2009 15:53:31 6 C 20 % -15.22 C
321 18-02-2009 16:05:31 6.7 C 20 % -14.64 C
322 18-02-2009 16:17:30 6.9 C 20 % -14.47 C
323 18-02-2009 16:29:31 5.1 C 20 % -15.97 C
324 18-02-2009 16:41:31 5.5 C 20 % -15.64 C
325 18-02-2009 16:53:30 5.7 C 20 % -15.47 C
Sensor: Nr:Datum:Temp:Feuchte:Taupunkt:
Aussen-T/F 326 18-02-2009 17:05:30 5.4 C 20 % -15.72 C
327 18-02-2009 17:17:30 4.7 C 25 % -13.61 C
328 18-02-2009 17:29:30 3.2 C 30 % -12.67 C
329 18-02-2009 17:41:30 1.9 C 37 % -11.22 C
330 18-02-2009 17:53:30 1 C 41 % -10.75 C
331 18-02-2009 18:05:29 0.4 C 43 % -10.69 C
332 18-02-2009 18:17:29 -0.1 C 46 % -10.32 C
333 18-02-2009 18:29:30 -0.4 C 48 % -10.06 C
334 18-02-2009 18:41:30 -0.6 C 49 % -9.98 C
335 18-02-2009 18:53:29 -0.9 C 52 % -9.51 C
336 18-02-2009 19:05:29 -1 C 50 % -10.1 C
337 18-02-2009 19:17:29 -1.2 C 51 % -10.03 C
338 18-02-2009 19:29:29 -1.3 C 51 % -10.12 C
339 18-02-2009 19:41:29 -1.4 C 53 % -9.73 C
340 18-02-2009 19:53:28 -1.6 C 53 % -9.92 C
341 18-02-2009 20:05:29 -1.7 C 54 % -9.77 C
342 18-02-2009 20:17:28 -1.8 C 55 % -9.63 C
343 18-02-2009 20:29:28 -1.9 C 55 % -9.73 C
344 18-02-2009 20:41:28 -2 C 55 % -9.82 C
345 18-02-2009 20:53:28 -2.1 C 53 % -10.38 C
346 18-02-2009 21:05:28 -2.2 C 55 % -10.01 C
347 18-02-2009 21:17:28 -2.3 C 55 % -10.1 C
348 18-02-2009 21:29:27 -2.3 C 54 % -10.33 C
349 18-02-2009 21:41:27 -2.4 C 53 % -10.66 C
350 18-02-2009 21:53:28 -2.6 C 57 % -9.93 C
Sensor: Nr:Datum:Temp:Feuchte:Taupunkt:
Aussen-T/F 351 18-02-2009 22:06:27 -2.7 C 58 % -9.81 C
352 18-02-2009 22:18:27 -2.9 C 59 % -9.78 C
353 18-02-2009 22:30:27 -2.9 C 60 % -9.57 C
354 18-02-2009 22:42:27 -2.9 C 61 % -9.36 C
355 18-02-2009 22:54:27 -3.1 C 61 % -9.55 C
356 18-02-2009 23:06:27 -3.3 C 61 % -9.73 C
357 18-02-2009 23:18:27 -3.2 C 62 % -9.43 C
358 18-02-2009 23:30:27 -2.9 C 62 % -9.15 C
359 18-02-2009 23:42:28 -2.7 C 61 % -9.17 C
360 18-02-2009 23:54:28 -2.5 C 61 % -8.98 C
361 19-02-2009 00:06:28 -2.5 C 63 % -8.57 C
362 19-02-2009 00:18:28 -2.4 C 63 % -8.47 C
363 19-02-2009 00:30:28 -2.3 C 63 % -8.38 C
364 19-02-2009 00:42:28 -2.3 C 62 % -8.58 C
365 19-02-2009 00:54:28 -2.2 C 62 % -8.49 C
366 19-02-2009 01:06:28 -2.1 C 62 % -8.39 C
367 19-02-2009 01:18:28 -2.1 C 62 % -8.39 C
368 19-02-2009 01:30:28 -2.1 C 61 % -8.6 C
369 19-02-2009 01:42:28 -2.1 C 61 % -8.6 C
370 19-02-2009 01:54:28 -2.3 C 61 % -8.79 C
371 19-02-2009 02:06:28 -2.1 C 62 % -8.39 C
372 19-02-2009 02:18:28 -2 C 61 % -8.5 C
373 19-02-2009 02:30:28 -2 C 61 % -8.5 C
374 19-02-2009 02:42:28 -2 C 61 % -8.5 C
375 19-02-2009 02:54:28 -2.1 C 61 % -8.6 C
Sensor: Nr:Datum:Temp:Feuchte:Taupunkt:
Aussen-T/F 376 19-02-2009 03:06:28 -2.2 C 62 % -8.49 C
377 19-02-2009 03:18:28 -2.3 C 62 % -8.58 C
378 19-02-2009 03:30:29 -2.3 C 63 % -8.38 C
379 19-02-2009 03:42:29 -2.1 C 63 % -8.19 C
380 19-02-2009 03:54:29 -2.1 C 63 % -8.19 C
381 19-02-2009 04:06:29 -2.1 C 63 % -8.19 C
382 19-02-2009 04:18:29 -2.2 C 62 % -8.49 C
383 19-02-2009 04:30:29 -2.1 C 63 % -8.19 C
384 19-02-2009 04:42:29 -2.1 C 63 % -8.19 C
385 19-02-2009 04:54:29 -2.1 C 63 % -8.19 C
386 19-02-2009 05:06:29 -2.1 C 63 % -8.19 C
387 19-02-2009 05:18:29 -2.1 C 63 % -8.19 C
388 19-02-2009 05:30:27 -2.2 C 63 % -8.28 C
389 19-02-2009 05:42:27 -2.3 C 63 % -8.38 C
390 19-02-2009 05:54:27 -2.3 C 64 % -8.17 C
391 19-02-2009 06:06:27 -2.3 C 64 % -8.17 C
392 19-02-2009 06:18:27 -2.3 C 64 % -8.17 C
393 19-02-2009 06:30:27 -2.2 C 64 % -8.08 C
394 19-02-2009 06:42:27 -2.2 C 64 % -8.08 C
395 19-02-2009 06:54:27 -2.1 C 63 % -8.19 C
396 19-02-2009 07:06:27 -2.1 C 61 % -8.6 C
397 19-02-2009 07:18:02 -2 C 61 % -8.5 C
398 19-02-2009 07:30:02 -2 C 60 % -8.72 C
399 19-02-2009 07:42:02 -2 C 61 % -8.5 C
400 19-02-2009 07:54:01 -2 C 62 % -8.3 C
Sensor: Nr:Datum:Temp:Feuchte:Taupunkt:
Aussen-T/F 401 19-02-2009 08:06:01 -1.9 C 62 % -8.2 C
402 19-02-2009 08:18:02 -1.9 C 62 % -8.2 C
403 19-02-2009 08:30:02 -1.6 C 62 % -7.92 C
404 19-02-2009 08:42:01 -1.3 C 61 % -7.84 C
405 19-02-2009 08:54:01 -1 C 60 % -7.77 C
406 19-02-2009 09:06:01 -0.8 C 57 % -8.24 C
407 19-02-2009 09:18:01 -0.9 C 56 % -8.56 C
408 19-02-2009 09:30:01 -0.7 C 56 % -8.38 C
409 19-02-2009 09:42:00 -0.7 C 55 % -8.61 C
410 19-02-2009 09:54:01 -0.6 C 55 % -8.51 C
411 19-02-2009 10:06:01 -0.4 C 55 % -8.33 C
412 19-02-2009 10:18:00 -0.1 C 53 % -8.52 C
413 19-02-2009 10:30:00 0.1 C 52 % -8.56 C
414 19-02-2009 10:42:00 0.5 C 51 % -8.44 C
415 19-02-2009 10:54:00 0.5 C 49 % -8.95 C
416 19-02-2009 11:06:00 0.8 C 49 % -8.68 C
417 19-02-2009 11:18:59 1 C 47 % -9.02 C
418 19-02-2009 11:29:59 0.9 C 48 % -8.85 C
419 19-02-2009 11:41:59 1 C 47 % -9.02 C
420 19-02-2009 11:54:59 1.1 C 46 % -9.2 C
421 19-02-2009 12:06:59 1.2 C 46 % -9.11 C
422 19-02-2009 12:29:59 1.6 C 44 % -9.31 C
423 19-02-2009 12:30:59 2 C 40 % -10.15 C
424 19-02-2009 12:42:59 2.4 C 37 % -10.77 C
425 19-02-2009 12:54:59 3 C 33 % -11.67 C
Sensor: Nr:Datum:Temp:Feuchte:Taupunkt:
Aussen-T/F 426 19-02-2009 13:06:58 3.5 C 31 % -12 C
427 19-02-2009 13:18:59 3.9 C 31 % -11.65 C
428 19-02-2009 13:30:58 4.5 C 28 % -12.39 C
429 19-02-2009 13:42:58 4.2 C 28 % -12.65 C
430 19-02-2009 13:54:58 4.3 C 28 % -12.57 C
431 19-02-2009 14:06:59 4.9 C 27 % -12.5 C
432 19-02-2009 14:18:58 5.7 C 25 % -12.76 C
433 19-02-2009 14:30:58 5.8 C 20 % -15.39 C
434 19-02-2009 14:42:58 6.5 C 20 % -14.8 C
435 19-02-2009 14:54:58 6.8 C 20 % -14.55 C
436 19-02-2009 15:06:58 7.1 C 20 % -14.3 C
437 19-02-2009 15:18:57 6.6 C 20 % -14.72 C
438 19-02-2009 15:30:57 6.3 C 20 % -14.97 C
439 19-02-2009 15:42:57 6.7 C 20 % -14.64 C
440 19-02-2009 15:54:57 7.1 C 20 % -14.3 C
441 19-02-2009 16:06:57 7.1 C 20 % -14.3 C
442 19-02-2009 16:18:57 7.4 C 20 % -14.05 C
443 19-02-2009 16:30:54 7 C 20 % -14.39 C
444 19-02-2009 16:42:54 6.5 C 23 % -13.1 C
445 19-02-2009 16:54:57 5.8 C 25 % -12.67 C
446 19-02-2009 17:06:02 5.4 C 30 % -10.75 C
447 19-02-2009 17:18:02 4.8 C 31 % -10.87 C
448 19-02-2009 17:30:02 4.4 C 33 % -10.43 C
449 19-02-2009 17:42:02 4 C 36 % -9.69 C
450 19-02-2009 17:54:02 3.7 C 39 % -8.95 C
Sensor: Nr:Datum:Temp:Feuchte:Taupunkt:
Aussen-T/F 451 19-02-2009 18:06:02 3.5 C 40 % -8.8 C
452 19-02-2009 18:18:02 3.4 C 41 % -8.58 C
453 19-02-2009 18:30:02 3.3 C 40 % -8.98 C
454 19-02-2009 18:42:01 3.2 C 41 % -8.76 C
455 19-02-2009 18:54:01 3.1 C 41 % -8.85 C
456 19-02-2009 19:06:01 2.9 C 42 % -8.72 C
457 19-02-2009 19:18:01 2.9 C 44 % -8.13 C
458 19-02-2009 19:30:01 3 C 42 % -8.63 C
459 19-02-2009 19:42:01 2.9 C 44 % -8.13 C
460 19-02-2009 19:54:00 2.8 C 45 % -7.93 C
461 19-02-2009 20:06:01 2.7 C 46 % -7.74 C
462 19-02-2009 20:18:01 2.9 C 45 % -7.84 C
463 19-02-2009 20:30:01 2.5 C 52 % -6.34 C
464 19-02-2009 20:42:00 2 C 61 % -4.71 C
465 19-02-2009 20:54:01 1.9 C 65 % -3.97 C
466 19-02-2009 21:06:00 1.8 C 68 % -3.46 C
467 19-02-2009 21:18:00 1.7 C 70 % -3.17 C
468 19-02-2009 21:30:00 1.6 C 72 % -2.89 C
469 19-02-2009 21:42:00 1.5 C 74 % -2.62 C
470 19-02-2009 21:54:00 1.3 C 75 % -2.63 C
471 19-02-2009 22:06:59 1.3 C 76 % -2.45 C
472 19-02-2009 22:29:59 1.3 C 77 % -2.28 C
473 19-02-2009 22:30:59 1.3 C 78 % -2.1 C
474 19-02-2009 22:42:59 1.3 C 78 % -2.1 C
475 19-02-2009 22:54:59 1.3 C 78 % -2.1 C
Sensor: Nr:Datum:Temp:Feuchte:Taupunkt:
Aussen-T/F 476 19-02-2009 23:06:58 1.2 C 78 % -2.2 C
477 19-02-2009 23:18:59 1.3 C 78 % -2.1 C
478 19-02-2009 23:30:59 1.3 C 78 % -2.1 C
479 19-02-2009 23:42:59 1.3 C 77 % -2.28 C
480 19-02-2009 23:54:58 1.4 C 76 % -2.36 C
481 20-02-2009 00:06:59 1.6 C 76 % -2.16 C
482 20-02-2009 00:18:59 1.6 C 74 % -2.52 C
483 20-02-2009 00:30:58 1.6 C 74 % -2.52 C
484 20-02-2009 00:42:58 1.6 C 74 % -2.52 C
485 20-02-2009 00:54:58 1.7 C 74 % -2.42 C
486 20-02-2009 01:06:58 1.7 C 74 % -2.42 C
487 20-02-2009 01:18:58 1.7 C 74 % -2.42 C
488 20-02-2009 01:30:57 1.7 C 74 % -2.42 C
489 20-02-2009 01:42:57 1.6 C 76 % -2.16 C
490 20-02-2009 01:54:57 1.5 C 77 % -2.08 C
491 20-02-2009 02:06:57 1.5 C 78 % -1.91 C
492 20-02-2009 02:18:57 1.5 C 79 % -1.74 C
493 20-02-2009 02:30:57 1.5 C 81 % -1.4 C
494 20-02-2009 02:42:57 1.5 C 80 % -1.57 C
495 20-02-2009 02:55:01 1.6 C 79 % -1.64 C
496 20-02-2009 03:07:01 1.7 C 78 % -1.71 C
497 20-02-2009 03:19:01 1.8 C 78 % -1.62 C
498 20-02-2009 03:31:01 1.7 C 77 % -1.89 C
499 20-02-2009 03:43:01 1.7 C 77 % -1.89 C
500 20-02-2009 03:55:02 1.8 C 78 % -1.62 C
Sensor: Nr:Datum:Temp:Feuchte:Taupunkt:
Aussen-T/F 501 20-02-2009 04:07:01 1.7 C 78 % -1.71 C
502 20-02-2009 04:19:01 1.7 C 78 % -1.71 C
503 20-02-2009 04:31:02 1.8 C 78 % -1.62 C
504 20-02-2009 04:43:02 1.9 C 78 % -1.52 C
505 20-02-2009 04:55:02 1.9 C 77 % -1.69 C
506 20-02-2009 05:07:01 1.9 C 77 % -1.69 C
507 20-02-2009 05:19:01 1.9 C 76 % -1.87 C
508 20-02-2009 05:31:02 2 C 75 % -1.95 C
509 20-02-2009 05:43:02 2 C 75 % -1.95 C
510 20-02-2009 05:55:01 2.1 C 75 % -1.86 C
511 20-02-2009 06:07:01 2.1 C 75 % -1.86 C
512 20-02-2009 06:19:02 2.1 C 76 % -1.68 C
513 20-02-2009 06:31:01 2.1 C 76 % -1.68 C
514 20-02-2009 06:43:01 2 C 77 % -1.6 C
515 20-02-2009 06:55:02 1.8 C 82 % -0.94 C
516 20-02-2009 07:07:01 1.8 C 84 % -0.61 C
517 20-02-2009 07:19:02 1.8 C 85 % -0.45 C
518 20-02-2009 07:31:01 1.8 C 86 % -0.29 C
519 20-02-2009 07:43:01 1.8 C 86 % -0.29 C
520 20-02-2009 07:55:02 1.9 C 86 % -0.19 C
521 20-02-2009 08:07:01 1.9 C 86 % -0.19 C
522 20-02-2009 08:19:01 2 C 84 % -0.41 C
523 20-02-2009 08:31:02 2.3 C 83 % -0.28 C
524 20-02-2009 08:43:02 2.4 C 82 % -0.35 C
525 20-02-2009 08:55:01 2.4 C 82 % -0.35 C
Sensor: Nr:Datum:Temp:Feuchte:Taupunkt:
Aussen-T/F 526 20-02-2009 09:07:02 2.3 C 83 % -0.28 C
527 20-02-2009 09:19:01 2.3 C 84 % -0.12 C
528 20-02-2009 09:31:02 2.4 C 85 % 0.14 C
529 20-02-2009 09:43:02 2.5 C 86 % 0.4 C
530 20-02-2009 09:55:01 2.8 C 85 % 0.54 C
531 20-02-2009 10:07:02 2.8 C 84 % 0.37 C
532 20-02-2009 10:19:01 3 C 83 % 0.4 C
533 20-02-2009 10:31:01 3.2 C 82 % 0.43 C
534 20-02-2009 10:43:01 3.2 C 81 % 0.26 C
535 20-02-2009 10:55:01 3.3 C 81 % 0.36 C
536 20-02-2009 11:07:01 3.4 C 80 % 0.29 C
537 20-02-2009 11:19:02 3.5 C 80 % 0.38 C
538 20-02-2009 11:31:01 3.5 C 81 % 0.55 C
539 20-02-2009 11:43:01 3.4 C 82 % 0.63 C
540 20-02-2009 11:55:02 3.4 C 83 % 0.79 C
541 20-02-2009 12:07:01 3.3 C 83 % 0.7 C
542 20-02-2009 12:19:02 3.3 C 84 % 0.86 C
543 20-02-2009 12:31:01 3.5 C 86 % 1.38 C
544 20-02-2009 12:43:01 3.7 C 86 % 1.58 C
545 20-02-2009 12:55:02 3.8 C 86 % 1.68 C
546 20-02-2009 13:07:01 4.1 C 85 % 1.81 C
547 20-02-2009 13:19:01 4.4 C 84 % 1.94 C
548 20-02-2009 13:31:02 4.5 C 83 % 1.87 C
549 20-02-2009 13:43:02 4.7 C 83 % 2.07 C
550 20-02-2009 13:55:01 4.9 C 82 % 2.09 C
Sensor: Nr:Datum:Temp:Feuchte:Taupunkt:
Aussen-T/F 551 20-02-2009 14:07:02 5.2 C 80 % 2.04 C
552 20-02-2009 14:19:01 5.4 C 77 % 1.7 C
553 20-02-2009 14:31:02 5.5 C 76 % 1.62 C
554 20-02-2009 14:43:02 5.7 C 74 % 1.44 C
555 20-02-2009 14:55:01 5.7 C 73 % 1.25 C
556 20-02-2009 15:07:02 5.8 C 73 % 1.34 C
557 20-02-2009 15:19:01 5.7 C 72 % 1.06 C
558 20-02-2009 15:31:01 5.5 C 71 % 0.67 C
559 20-02-2009 15:43:01 5.4 C 73 % 0.96 C
560 20-02-2009 15:55:01 5.5 C 73 % 1.06 C
561 20-02-2009 16:07:01 5.6 C 75 % 1.53 C
562 20-02-2009 16:19:01 5.6 C 75 % 1.53 C
563 20-02-2009 16:31:01 5.4 C 75 % 1.33 C
564 20-02-2009 16:43:01 5.3 C 77 % 1.6 C
565 20-02-2009 16:55:01 5.1 C 79 % 1.77 C
566 20-02-2009 17:07:01 5 C 81 % 2.02 C
567 20-02-2009 17:19:01 4.9 C 84 % 2.43 C
568 20-02-2009 17:31:01 4.8 C 86 % 2.66 C
569 20-02-2009 17:43:01 4.7 C 87 % 2.73 C
570 20-02-2009 17:55:01 4.7 C 88 % 2.89 C
571 20-02-2009 18:07:01 4.6 C 87 % 2.63 C
572 20-02-2009 18:19:02 4.6 C 87 % 2.63 C
573 20-02-2009 18:31:01 4.6 C 87 % 2.63 C
574 20-02-2009 18:43:01 4.7 C 87 % 2.73 C
575 20-02-2009 18:55:02 4.6 C 88 % 2.79 C
Sensor: Nr:Datum:Temp:Feuchte:Taupunkt:
Aussen-T/F 576 20-02-2009 19:07:01 4.6 C 88 % 2.79 C
577 20-02-2009 19:19:02 4.5 C 89 % 2.85 C
578 20-02-2009 19:31:01 4.5 C 89 % 2.85 C
579 20-02-2009 19:43:01 4.6 C 90 % 3.1 C
580 20-02-2009 19:54:01 4.5 C 90 % 3.01 C
581 20-02-2009 20:06:02 4.5 C 90 % 3.01 C
582 20-02-2009 20:18:01 4.6 C 91 % 3.26 C
583 20-02-2009 20:30:01 4.6 C 91 % 3.26 C
584 20-02-2009 20:42:02 4.6 C 91 % 3.26 C
585 20-02-2009 20:54:01 4.6 C 91 % 3.26 C
586 20-02-2009 21:06:01 4.7 C 91 % 3.36 C
587 20-02-2009 21:18:01 4.8 C 90 % 3.3 C
588 20-02-2009 21:30:01 4.8 C 90 % 3.3 C
589 20-02-2009 21:42:01 4.8 C 89 % 3.14 C
590 20-02-2009 21:54:01 4.7 C 88 % 2.89 C
591 20-02-2009 22:06:01 4.6 C 88 % 2.79 C
592 20-02-2009 22:19:03 4.6 C 88 % 2.79 C
593 20-02-2009 22:31:03 4.5 C 88 % 2.69 C
594 20-02-2009 22:43:03 4.5 C 88 % 2.69 C
595 20-02-2009 22:55:03 4.5 C 88 % 2.69 C
596 20-02-2009 23:07:03 4.4 C 88 % 2.59 C
597 20-02-2009 23:19:03 4.4 C 88 % 2.59 C
598 20-02-2009 23:31:03 4.3 C 88 % 2.49 C
599 20-02-2009 23:43:03 4.3 C 88 % 2.49 C
600 20-02-2009 23:55:03 4.3 C 88 % 2.49 C
Sensor: Nr:Datum:Temp:Feuchte:Taupunkt:
Aussen-T/F 601 21-02-2009 00:07:03 4.2 C 88 % 2.39 C
602 21-02-2009 00:19:03 4.2 C 87 % 2.23 C
603 21-02-2009 00:31:03 4.1 C 87 % 2.14 C
604 21-02-2009 00:43:03 4.1 C 86 % 1.97 C
605 21-02-2009 00:55:03 4.1 C 85 % 1.81 C
606 21-02-2009 01:07:03 4 C 85 % 1.71 C
607 21-02-2009 01:19:03 4 C 85 % 1.71 C
608 21-02-2009 01:31:03 4 C 84 % 1.55 C
609 21-02-2009 01:43:04 4 C 84 % 1.55 C
610 21-02-2009 01:55:04 4 C 84 % 1.55 C
611 21-02-2009 02:07:04 4 C 83 % 1.38 C
612 21-02-2009 02:19:04 4 C 83 % 1.38 C
613 21-02-2009 02:31:04 4 C 83 % 1.38 C
614 21-02-2009 02:43:04 3.9 C 84 % 1.45 C
615 21-02-2009 02:55:04 3.9 C 84 % 1.45 C
616 21-02-2009 03:07:04 3.9 C 84 % 1.45 C
617 21-02-2009 03:19:04 3.8 C 84 % 1.35 C
618 21-02-2009 03:31:04 3.8 C 84 % 1.35 C
619 21-02-2009 03:43:04 3.8 C 84 % 1.35 C
620 21-02-2009 03:55:04 3.8 C 84 % 1.35 C
621 21-02-2009 04:07:04 3.8 C 84 % 1.35 C
622 21-02-2009 04:19:04 3.8 C 84 % 1.35 C
623 21-02-2009 04:31:04 3.7 C 84 % 1.25 C
624 21-02-2009 04:43:04 3.7 C 84 % 1.25 C
625 21-02-2009 04:55:04 3.7 C 85 % 1.42 C
Sensor: Nr:Datum:Temp:Feuchte:Taupunkt:
Aussen-T/F 626 21-02-2009 05:07:04 3.6 C 85 % 1.32 C
627 21-02-2009 05:19:04 3.6 C 85 % 1.32 C
628 21-02-2009 05:31:04 3.7 C 86 % 1.58 C
629 21-02-2009 05:43:05 3.8 C 86 % 1.68 C
630 21-02-2009 05:55:05 3.7 C 86 % 1.58 C
631 21-02-2009 06:07:05 3.7 C 86 % 1.58 C
632 21-02-2009 06:19:05 3.7 C 87 % 1.74 C
633 21-02-2009 06:31:05 3.8 C 87 % 1.84 C
634 21-02-2009 06:43:05 3.8 C 87 % 1.84 C
635 21-02-2009 06:55:05 3.8 C 87 % 1.84 C
636 21-02-2009 07:07:05 3.8 C 88 % 2 C
637 21-02-2009 07:19:05 3.7 C 88 % 1.9 C
638 21-02-2009 07:31:05 3.7 C 88 % 1.9 C
639 21-02-2009 07:43:05 3.7 C 88 % 1.9 C
640 21-02-2009 07:55:05 3.6 C 88 % 1.8 C
641 21-02-2009 08:07:03 3.6 C 88 % 1.8 C
642 21-02-2009 08:19:03 3.6 C 88 % 1.8 C
643 21-02-2009 08:31:02 3.6 C 88 % 1.8 C
644 21-02-2009 08:43:02 3.8 C 88 % 2 C
645 21-02-2009 08:55:03 3.9 C 88 % 2.1 C
646 21-02-2009 09:07:02 4 C 88 % 2.2 C
647 21-02-2009 09:19:02 4 C 87 % 2.04 C
648 21-02-2009 09:31:02 4.1 C 87 % 2.14 C
649 21-02-2009 09:43:02 4.4 C 87 % 2.43 C
650 21-02-2009 09:55:02 4.4 C 86 % 2.27 C
Sensor: Nr:Datum:Temp:Feuchte:Taupunkt:
Aussen-T/F 651 21-02-2009 10:07:01 4.5 C 84 % 2.04 C
652 21-02-2009 10:19:02 4.7 C 82 % 1.9 C
653 21-02-2009 10:31:02 5.1 C 80 % 1.94 C
654 21-02-2009 10:43:02 5.3 C 78 % 1.78 C
655 21-02-2009 10:55:01 5.5 C 74 % 1.24 C
656 21-02-2009 11:07:02 5.5 C 73 % 1.06 C
657 21-02-2009 11:19:01 5.7 C 72 % 1.06 C
658 21-02-2009 11:31:01 6 C 69 % 0.76 C
659 21-02-2009 11:43:01 6 C 68 % 0.55 C
660 21-02-2009 11:55:01 6.4 C 66 % 0.52 C
661 21-02-2009 12:07:01 6.7 C 64 % 0.38 C
662 21-02-2009 12:19:00 6.2 C 61 % -0.75 C
663 21-02-2009 12:31:00 6.4 C 62 % -0.34 C
664 21-02-2009 12:43:00 6.4 C 62 % -0.34 C
665 21-02-2009 12:55:00 6.4 C 61 % -0.56 C
666 21-02-2009 13:07:00 6.5 C 59 % -0.92 C
667 21-02-2009 13:19:00 6.6 C 56 % -1.54 C
668 21-02-2009 13:31:00 6.8 C 56 % -1.35 C
669 21-02-2009 13:43:00 6.7 C 54 % -1.94 C
670 21-02-2009 13:55:59 6.5 C 54 % -2.12 C
671 21-02-2009 14:07:00 6.5 C 54 % -2.12 C
672 21-02-2009 14:19:00 6.5 C 54 % -2.12 C
673 21-02-2009 14:31:59 6.8 C 53 % -2.09 C
674 21-02-2009 14:43:59 6.7 C 53 % -2.19 C
675 21-02-2009 14:54:59 6.5 C 53 % -2.37 C
Sensor: Nr:Datum:Temp:Feuchte:Taupunkt:
Aussen-T/F 676 21-02-2009 15:07:59 6.5 C 53 % -2.37 C
677 21-02-2009 15:19:59 6.4 C 52 % -2.72 C
678 21-02-2009 15:31:59 6.3 C 51 % -3.08 C
679 21-02-2009 15:43:59 6.2 C 51 % -3.17 C
680 21-02-2009 15:55:59 6.2 C 53 % -2.65 C
681 21-02-2009 16:07:59 6.1 C 55 % -2.25 C
682 21-02-2009 16:19:58 6 C 56 % -2.1 C
683 21-02-2009 16:31:58 5.8 C 58 % -1.81 C
684 21-02-2009 16:43:58 5.8 C 58 % -1.81 C
685 21-02-2009 16:55:58 5.7 C 59 % -1.67 C
686 21-02-2009 17:07:58 5.7 C 59 % -1.67 C
687 21-02-2009 17:19:57 5.7 C 58 % -1.9 C
688 21-02-2009 17:31:58 5.6 C 60 % -1.54 C
689 21-02-2009 17:43:58 5.4 C 61 % -1.5 C
690 21-02-2009 17:55:57 5.3 C 61 % -1.6 C
691 21-02-2009 18:07:57 5.1 C 62 % -1.57 C
692 21-02-2009 18:19:58 4.9 C 65 % -1.11 C
693 21-02-2009 18:31:57 4.7 C 67 % -0.89 C
694 21-02-2009 18:43:57 4.6 C 67 % -0.99 C
695 21-02-2009 18:55:57 4.5 C 67 % -1.08 C
696 21-02-2009 19:07:57 4.4 C 68 % -0.98 C
697 21-02-2009 19:19:57 4.2 C 67 % -1.37 C
698 21-02-2009 19:31:56 4.1 C 67 % -1.46 C
699 21-02-2009 19:43:56 4.2 C 67 % -1.37 C
700 21-02-2009 19:55:57 4.3 C 67 % -1.27 C
Sensor: Nr:Datum:Temp:Feuchte:Taupunkt:
Aussen-T/F 701 21-02-2009 20:07:56 4.3 C 68 % -1.07 C
702 21-02-2009 20:19:56 4.3 C 68 % -1.07 C
703 21-02-2009 20:31:56 4.3 C 68 % -1.07 C
704 21-02-2009 20:43:56 4.3 C 68 % -1.07 C
705 21-02-2009 20:55:56 4.2 C 68 % -1.17 C
706 21-02-2009 21:07:55 4.2 C 69 % -0.97 C
707 21-02-2009 21:19:56 4.2 C 69 % -0.97 C
708 21-02-2009 21:31:56 4.3 C 69 % -0.87 C
709 21-02-2009 21:43:56 4.3 C 69 % -0.87 C
710 21-02-2009 21:55:55 4.3 C 69 % -0.87 C
711 21-02-2009 22:07:56 4.3 C 69 % -0.87 C
712 21-02-2009 22:19:55 4.2 C 69 % -0.97 C
713 21-02-2009 22:31:55 4.2 C 69 % -0.97 C
714 21-02-2009 22:43:56 4.2 C 69 % -0.97 C
715 21-02-2009 22:56:57 4.2 C 69 % -0.97 C
716 21-02-2009 23:08:57 4.4 C 67 % -1.18 C
717 21-02-2009 23:20:57 4.5 C 67 % -1.08 C
718 21-02-2009 23:32:57 4.6 C 66 % -1.19 C
719 21-02-2009 23:44:57 4.6 C 66 % -1.19 C
720 21-02-2009 23:56:57 4.6 C 66 % -1.19 C
721 22-02-2009 00:08:57 4.4 C 68 % -0.98 C
722 22-02-2009 00:20:57 4.2 C 69 % -0.97 C
723 22-02-2009 00:32:57 4 C 72 % -0.58 C
724 22-02-2009 00:44:57 3.7 C 76 % -0.13 C
725 22-02-2009 00:56:57 3.7 C 78 % 0.23 C
Sensor: Nr:Datum:Temp:Feuchte:Taupunkt:
Aussen-T/F 726 22-02-2009 01:08:57 3.7 C 78 % 0.23 C
727 22-02-2009 01:20:57 3.7 C 78 % 0.23 C
728 22-02-2009 01:32:57 3.8 C 79 % 0.5 C
729 22-02-2009 01:44:58 3.6 C 80 % 0.48 C
730 22-02-2009 01:56:58 3.6 C 80 % 0.48 C
731 22-02-2009 02:08:58 3.5 C 82 % 0.72 C
732 22-02-2009 02:20:58 3.4 C 82 % 0.63 C
733 22-02-2009 02:32:58 3.4 C 83 % 0.79 C
734 22-02-2009 02:44:58 3.5 C 84 % 1.06 C
735 22-02-2009 02:56:58 3.5 C 84 % 1.06 C
736 22-02-2009 03:08:58 3.5 C 84 % 1.06 C
737 22-02-2009 03:20:58 3.4 C 84 % 0.96 C
738 22-02-2009 03:32:58 3.3 C 85 % 1.03 C
739 22-02-2009 03:44:58 3.3 C 86 % 1.19 C
740 22-02-2009 03:56:58 3.3 C 87 % 1.35 C
741 22-02-2009 04:08:58 3.2 C 87 % 1.25 C
742 22-02-2009 04:20:58 3.2 C 88 % 1.41 C
743 22-02-2009 04:32:58 3.3 C 89 % 1.67 C
744 22-02-2009 04:44:58 3.3 C 89 % 1.67 C
745 22-02-2009 04:56:58 3.3 C 89 % 1.67 C
746 22-02-2009 05:08:58 3.3 C 89 % 1.67 C
747 22-02-2009 05:20:58 3.4 C 89 % 1.76 C
748 22-02-2009 05:32:59 3.5 C 90 % 2.02 C
749 22-02-2009 05:44:59 3.5 C 89 % 1.86 C
750 22-02-2009 05:56:59 3.6 C 89 % 1.96 C
Sensor: Nr:Datum:Temp:Feuchte:Taupunkt:
Aussen-T/F 751 22-02-2009 06:08:59 3.7 C 89 % 2.06 C
752 22-02-2009 06:20:59 3.7 C 89 % 2.06 C
753 22-02-2009 06:32:59 3.8 C 89 % 2.16 C
754 22-02-2009 06:44:59 3.8 C 89 % 2.16 C
755 22-02-2009 06:56:59 3.8 C 89 % 2.16 C
756 22-02-2009 07:08:56 3.9 C 88 % 2.1 C
757 22-02-2009 07:20:56 4 C 88 % 2.2 C
758 22-02-2009 07:32:56 4 C 88 % 2.2 C
759 22-02-2009 07:44:56 4 C 88 % 2.2 C
760 22-02-2009 07:56:56 4.1 C 88 % 2.3 C
761 22-02-2009 08:08:56 4.1 C 88 % 2.3 C
762 22-02-2009 08:20:55 4.2 C 88 % 2.39 C
763 22-02-2009 08:32:55 4.3 C 88 % 2.49 C
764 22-02-2009 08:44:55 4.3 C 87 % 2.33 C
765 22-02-2009 08:56:55 4.3 C 87 % 2.33 C
766 22-02-2009 09:08:55 4.5 C 87 % 2.53 C
767 22-02-2009 09:20:55 4.5 C 87 % 2.53 C
768 22-02-2009 09:32:55 4.6 C 87 % 2.63 C
769 22-02-2009 09:44:55 4.6 C 86 % 2.47 C
770 22-02-2009 09:56:55 4.6 C 87 % 2.63 C
771 22-02-2009 10:08:54 4.7 C 87 % 2.73 C
772 22-02-2009 10:20:55 4.8 C 87 % 2.82 C
773 22-02-2009 10:32:54 4.9 C 87 % 2.92 C
774 22-02-2009 10:44:55 5 C 86 % 2.86 C
775 22-02-2009 10:56:55 5.1 C 85 % 2.79 C
Sensor: Nr:Datum:Temp:Feuchte:Taupunkt:
Aussen-T/F 776 22-02-2009 11:08:54 5.2 C 85 % 2.89 C
777 22-02-2009 11:20:55 5.4 C 86 % 3.25 C
778 22-02-2009 11:32:54 5.4 C 86 % 3.25 C
779 22-02-2009 11:44:54 5.8 C 85 % 3.48 C
780 22-02-2009 11:56:54 6.1 C 84 % 3.61 C
781 22-02-2009 12:08:54 6.2 C 84 % 3.7 C
782 22-02-2009 12:20:54 6.2 C 84 % 3.7 C
783 22-02-2009 12:32:54 6.3 C 84 % 3.8 C
784 22-02-2009 12:44:54 6.5 C 83 % 3.83 C
785 22-02-2009 12:56:54 6.9 C 80 % 3.7 C
786 22-02-2009 13:08:54 7.1 C 76 % 3.16 C
787 22-02-2009 13:20:53 7.1 C 75 % 2.98 C
788 22-02-2009 13:32:53 7.2 C 73 % 2.69 C
789 22-02-2009 13:44:53 7.2 C 73 % 2.69 C
790 22-02-2009 13:56:53 7.3 C 72 % 2.6 C
791 22-02-2009 14:08:53 7.5 C 71 % 2.59 C
792 22-02-2009 14:20:52 7.6 C 70 % 2.49 C
793 22-02-2009 14:32:53 7.5 C 69 % 2.19 C
794 22-02-2009 14:44:52 7.5 C 70 % 2.39 C
795 22-02-2009 14:56:52 7.4 C 71 % 2.5 C
796 22-02-2009 15:08:52 7.3 C 73 % 2.79 C
797 22-02-2009 15:20:53 7.1 C 77 % 3.35 C
798 22-02-2009 15:32:52 7 C 81 % 3.97 C
799 22-02-2009 15:44:52 7 C 83 % 4.32 C
800 22-02-2009 15:56:52 6.9 C 85 % 4.56 C
Sensor: Nr:Datum:Temp:Feuchte:Taupunkt:
Aussen-T/F 801 22-02-2009 16:08:52 6.9 C 87 % 4.89 C
802 22-02-2009 16:20:52 6.8 C 87 % 4.79 C
803 22-02-2009 16:32:52 6.8 C 88 % 4.96 C
804 22-02-2009 16:44:51 6.8 C 88 % 4.96 C
805 22-02-2009 16:56:51 6.7 C 88 % 4.86 C
806 22-02-2009 17:08:51 6.7 C 89 % 5.02 C
807 22-02-2009 17:20:51 6.7 C 89 % 5.02 C
808 22-02-2009 17:32:51 6.6 C 88 % 4.76 C
809 22-02-2009 17:44:51 6.6 C 87 % 4.6 C
810 22-02-2009 17:56:51 6.6 C 86 % 4.43 C
811 22-02-2009 18:08:51 6.6 C 86 % 4.43 C
812 22-02-2009 18:20:50 6.6 C 85 % 4.26 C
813 22-02-2009 18:32:51 6.5 C 84 % 4 C
814 22-02-2009 18:44:50 6.6 C 83 % 3.92 C
815 22-02-2009 18:56:50 6.4 C 83 % 3.73 C
816 22-02-2009 19:08:50 6.3 C 84 % 3.8 C
817 22-02-2009 19:20:50 6.2 C 86 % 4.04 C
818 22-02-2009 19:32:50 6.1 C 86 % 3.94 C
819 22-02-2009 19:44:49 6 C 86 % 3.84 C
820 22-02-2009 19:56:49 5.9 C 86 % 3.74 C
821 22-02-2009 20:08:50 5.9 C 85 % 3.58 C
822 22-02-2009 20:20:50 5.9 C 84 % 3.41 C
823 22-02-2009 20:32:49 5.9 C 84 % 3.41 C
824 22-02-2009 20:44:50 6 C 82 % 3.17 C
825 22-02-2009 20:56:50 6.2 C 80 % 3.01 C
Sensor: Nr:Datum:Temp:Feuchte:Taupunkt:
Aussen-T/F 826 22-02-2009 21:08:49 6.1 C 79 % 2.74 C
827 22-02-2009 21:20:49 6 C 80 % 2.82 C
828 22-02-2009 21:32:49 5.9 C 81 % 2.9 C
829 22-02-2009 21:44:49 5.9 C 82 % 3.07 C
830 22-02-2009 21:56:49 5.9 C 82 % 3.07 C
831 22-02-2009 22:08:48 5.9 C 83 % 3.24 C
832 22-02-2009 22:20:49 5.9 C 83 % 3.24 C
833 22-02-2009 22:33:49 5.8 C 84 % 3.31 C
834 22-02-2009 22:45:49 5.7 C 85 % 3.38 C
835 22-02-2009 22:57:49 5.7 C 85 % 3.38 C
836 22-02-2009 23:09:49 5.6 C 85 % 3.28 C
837 22-02-2009 23:21:49 5.6 C 84 % 3.12 C
838 22-02-2009 23:33:50 5.7 C 82 % 2.87 C
839 22-02-2009 23:45:50 5.7 C 81 % 2.7 C
840 22-02-2009 23:57:50 5.8 C 80 % 2.62 C
841 23-02-2009 00:09:50 5.8 C 78 % 2.27 C
842 23-02-2009 00:21:50 5.9 C 76 % 2 C
843 23-02-2009 00:33:50 5.8 C 75 % 1.72 C
844 23-02-2009 00:45:50 5.8 C 74 % 1.53 C
845 23-02-2009 00:57:50 5.6 C 72 % 0.96 C
846 23-02-2009 01:09:50 5.2 C 72 % 0.58 C
847 23-02-2009 01:21:50 5 C 72 % 0.38 C
848 23-02-2009 01:33:50 5.1 C 70 % 0.09 C
849 23-02-2009 01:45:50 5.2 C 68 % -0.21 C
850 23-02-2009 01:57:50 5.2 C 67 % -0.41 C
Sensor: Nr:Datum:Temp:Feuchte:Taupunkt:
Aussen-T/F 851 23-02-2009 02:09:50 5.2 C 66 % -0.62 C
852 23-02-2009 02:21:50 5.2 C 65 % -0.83 C
853 23-02-2009 02:33:50 5.3 C 64 % -0.94 C
854 23-02-2009 02:45:50 5.3 C 63 % -1.16 C
855 23-02-2009 02:57:50 5.3 C 62 % -1.38 C
856 23-02-2009 03:09:50 5.4 C 61 % -1.5 C
857 23-02-2009 03:21:51 5.6 C 57 % -2.23 C
858 23-02-2009 03:33:51 5.4 C 57 % -2.42 C
859 23-02-2009 03:45:51 5.3 C 58 % -2.28 C
860 23-02-2009 03:57:51 5.3 C 58 % -2.28 C
861 23-02-2009 04:09:51 5.3 C 57 % -2.51 C
862 23-02-2009 04:21:51 5.2 C 56 % -2.84 C
863 23-02-2009 04:33:51 5.2 C 56 % -2.84 C
864 23-02-2009 04:45:51 5.2 C 57 % -2.61 C
865 23-02-2009 04:57:51 5.3 C 56 % -2.75 C
866 23-02-2009 05:09:51 5.4 C 58 % -2.18 C
867 23-02-2009 05:21:51 5.4 C 59 % -1.95 C
868 23-02-2009 05:33:51 5.4 C 59 % -1.95 C
869 23-02-2009 05:45:51 5.3 C 59 % -2.05 C
870 23-02-2009 05:57:51 5 C 62 % -1.66 C
871 23-02-2009 06:09:51 4.2 C 72 % -0.39 C
872 23-02-2009 06:21:51 4.2 C 76 % 0.36 C
873 23-02-2009 06:33:51 4 C 79 % 0.7 C
874 23-02-2009 06:45:51 3.9 C 82 % 1.12 C
875 23-02-2009 06:57:51 3.8 C 83 % 1.19 C
Sensor: Nr:Datum:Temp:Feuchte:Taupunkt:
Aussen-T/F 876 23-02-2009 07:09:52 3.9 C 84 % 1.45 C
877 23-02-2009 07:21:52 4 C 83 % 1.38 C
878 23-02-2009 07:33:52 4 C 83 % 1.38 C
879 23-02-2009 07:45:52 4.3 C 81 % 1.34 C
880 23-02-2009 07:57:52 4.7 C 77 % 1.02 C
881 23-02-2009 08:09:52 4.8 C 74 % 0.57 C
882 23-02-2009 08:21:52 4.9 C 73 % 0.48 C
883 23-02-2009 08:33:52 5 C 71 % 0.19 C
884 23-02-2009 08:45:52 5.1 C 70 % 0.09 C
885 23-02-2009 08:57:52 5.2 C 69 % -0.01 C
886 23-02-2009 09:09:52 5 C 72 % 0.38 C
887 23-02-2009 09:21:52 4.9 C 75 % 0.85 C
888 23-02-2009 09:33:49 5 C 74 % 0.76 C
889 23-02-2009 09:45:48 5.2 C 71 % 0.38 C
890 23-02-2009 09:57:48 5.2 C 71 % 0.38 C
891 23-02-2009 10:09:49 5.3 C 70 % 0.28 C
892 23-02-2009 10:21:49 5.6 C 68 % 0.17 C
893 23-02-2009 10:33:48 5.8 C 68 % 0.36 C
894 23-02-2009 10:45:48 6 C 66 % 0.14 C
895 23-02-2009 10:57:48 6.3 C 65 % 0.22 C
896 23-02-2009 11:09:48 6.7 C 63 % 0.17 C
897 23-02-2009 11:21:48 6.6 C 62 % -0.15 C
898 23-02-2009 11:33:48 6.6 C 62 % -0.15 C
899 23-02-2009 11:45:47 6.6 C 62 % -0.15 C
900 23-02-2009 11:57:47 6.7 C 61 % -0.28 C
Sensor: Nr:Datum:Temp:Feuchte:Taupunkt:
Aussen-T/F 901 23-02-2009 12:09:48 6.7 C 62 % -0.05 C
902 23-02-2009 12:21:47 6.8 C 61 % -0.18 C
903 23-02-2009 12:33:47 6.9 C 60 % -0.31 C
904 23-02-2009 12:45:47 7 C 59 % -0.45 C
905 23-02-2009 12:57:47 7.3 C 58 % -0.4 C
906 23-02-2009 13:09:47 7.3 C 59 % -0.17 C
907 23-02-2009 13:21:47 6.4 C 66 % 0.52 C
908 23-02-2009 13:33:47 5.9 C 74 % 1.63 C
909 23-02-2009 13:45:47 5.9 C 75 % 1.82 C
910 23-02-2009 13:57:47 6.1 C 75 % 2.01 C
911 23-02-2009 14:09:46 6.2 C 73 % 1.73 C
912 23-02-2009 14:21:47 6.4 C 73 % 1.92 C
913 23-02-2009 14:33:46 6.3 C 70 % 1.24 C
914 23-02-2009 14:45:46 5.9 C 73 % 1.44 C
915 23-02-2009 14:57:46 5.7 C 77 % 1.99 C
916 23-02-2009 15:09:46 5.8 C 78 % 2.27 C
917 23-02-2009 15:21:46 6 C 77 % 2.28 C
918 23-02-2009 15:33:46 6.5 C 73 % 2.02 C
919 23-02-2009 15:45:45 6.9 C 71 % 2.02 C
920 23-02-2009 15:57:45 6.8 C 64 % 0.48 C
921 23-02-2009 16:09:46 6.3 C 67 % 0.64 C
922 23-02-2009 16:21:45 6 C 70 % 0.95 C
923 23-02-2009 16:33:45 5.8 C 72 % 1.15 C
924 23-02-2009 16:45:45 5.9 C 72 % 1.25 C
925 23-02-2009 16:57:45 5.9 C 70 % 0.86 C
Sensor: Nr:Datum:Temp:Feuchte:Taupunkt:
Aussen-T/F 926 23-02-2009 17:09:45 5.9 C 70 % 0.86 C
927 23-02-2009 17:21:44 5.7 C 71 % 0.86 C
928 23-02-2009 17:33:45 5.7 C 70 % 0.67 C
929 23-02-2009 17:45:44 5.7 C 69 % 0.47 C
930 23-02-2009 17:57:44 5.7 C 69 % 0.47 C
931 23-02-2009 18:09:03 5.7 C 68 % 0.27 C
932 23-02-2009 18:21:02 5.6 C 69 % 0.37 C
933 23-02-2009 18:33:02 5.4 C 69 % 0.18 C
934 23-02-2009 18:45:02 5.3 C 70 % 0.28 C
935 23-02-2009 18:57:02 5.3 C 70 % 0.28 C
936 23-02-2009 19:09:02 5.4 C 70 % 0.38 C
937 23-02-2009 19:21:01 5.4 C 70 % 0.38 C
938 23-02-2009 19:33:02 5.4 C 66 % -0.43 C
939 23-02-2009 19:45:01 5.6 C 63 % -0.87 C
940 23-02-2009 19:57:01 5.6 C 61 % -1.31 C
941 23-02-2009 20:09:01 5.6 C 61 % -1.31 C
942 23-02-2009 20:21:01 5.6 C 59 % -1.77 C
943 23-02-2009 20:33:01 5.6 C 58 % -2 C
944 23-02-2009 20:45:00 5.6 C 58 % -2 C
945 23-02-2009 20:57:00 5.6 C 57 % -2.23 C
946 23-02-2009 21:09:01 5.6 C 57 % -2.23 C
947 23-02-2009 21:21:00 5.7 C 56 % -2.38 C
948 23-02-2009 21:34:01 5.5 C 57 % -2.33 C
949 23-02-2009 21:46:01 5.6 C 57 % -2.23 C
950 23-02-2009 21:58:01 5.5 C 57 % -2.33 C
Sensor: Nr:Datum:Temp:Feuchte:Taupunkt:
Aussen-T/F 951 23-02-2009 22:10:01 5.3 C 59 % -2.05 C
952 23-02-2009 22:22:01 5.1 C 61 % -1.79 C
953 23-02-2009 22:34:01 5 C 63 % -1.44 C
954 23-02-2009 22:46:01 4.9 C 65 % -1.11 C
955 23-02-2009 22:58:01 4.6 C 68 % -0.78 C
956 23-02-2009 23:10:01 4.6 C 69 % -0.58 C
957 23-02-2009 23:22:01 4.6 C 69 % -0.58 C
958 23-02-2009 23:34:01 4.6 C 69 % -0.58 C
959 23-02-2009 23:46:01 4.6 C 68 % -0.78 C
960 23-02-2009 23:58:01 4.7 C 68 % -0.69 C
961 24-02-2009 00:10:01 4.7 C 68 % -0.69 C
962 24-02-2009 00:22:01 4.7 C 67 % -0.89 C
963 24-02-2009 00:34:01 4.7 C 68 % -0.69 C
964 24-02-2009 00:46:01 4.7 C 67 % -0.89 C
965 24-02-2009 00:58:01 4.7 C 67 % -0.89 C
966 24-02-2009 01:10:02 4.6 C 67 % -0.99 C
967 24-02-2009 01:22:02 4.6 C 67 % -0.99 C
968 24-02-2009 01:34:02 4.5 C 68 % -0.88 C
969 24-02-2009 01:46:02 4.5 C 68 % -0.88 C
970 24-02-2009 01:58:02 4.5 C 68 % -0.88 C
971 24-02-2009 02:10:02 4.4 C 69 % -0.78 C
972 24-02-2009 02:22:02 4.3 C 71 % -0.48 C
973 24-02-2009 02:34:02 4.2 C 72 % -0.39 C
974 24-02-2009 02:46:02 4.3 C 72 % -0.29 C
975 24-02-2009 02:58:02 4.3 C 71 % -0.48 C
Sensor: Nr:Datum:Temp:Feuchte:Taupunkt:
Aussen-T/F 976 24-02-2009 03:10:02 4.2 C 71 % -0.58 C
977 24-02-2009 03:22:02 4.2 C 71 % -0.58 C
978 24-02-2009 03:34:02 4.2 C 71 % -0.58 C
979 24-02-2009 03:46:02 4.1 C 71 % -0.67 C
980 24-02-2009 03:58:02 4.1 C 71 % -0.67 C
981 24-02-2009 04:10:02 4.2 C 70 % -0.77 C
982 24-02-2009 04:22:02 4.1 C 70 % -0.87 C
983 24-02-2009 04:34:02 4.1 C 69 % -1.06 C
984 24-02-2009 04:46:02 4.1 C 69 % -1.06 C
985 24-02-2009 04:58:02 4.1 C 68 % -1.26 C
986 24-02-2009 05:10:03 4.1 C 68 % -1.26 C
987 24-02-2009 05:22:03 4.1 C 68 % -1.26 C
988 24-02-2009 05:34:03 4 C 68 % -1.36 C
989 24-02-2009 05:46:03 4 C 68 % -1.36 C
990 24-02-2009 05:58:03 4.1 C 68 % -1.26 C
991 24-02-2009 06:10:03 4.1 C 68 % -1.26 C
992 24-02-2009 06:22:03 4.1 C 68 % -1.26 C
993 24-02-2009 06:34:03 4 C 68 % -1.36 C
994 24-02-2009 06:46:03 4.1 C 67 % -1.46 C
995 24-02-2009 06:58:03 4 C 68 % -1.36 C
996 24-02-2009 07:10:01 4 C 68 % -1.36 C
997 24-02-2009 07:22:01 4 C 68 % -1.36 C
998 24-02-2009 07:34:01 4 C 68 % -1.36 C
999 24-02-2009 07:46:01 4 C 68 % -1.36 C
1000 24-02-2009 07:58:01 4 C 67 % -1.56 C
Sensor: Nr:Datum:Temp:Feuchte:Taupunkt:
Aussen-T/F 1001 24-02-2009 08:10:00 4.1 C 67 % -1.46 C
1002 24-02-2009 08:22:01 4.1 C 67 % -1.46 C
1003 24-02-2009 08:34:00 4.1 C 67 % -1.46 C
1004 24-02-2009 08:46:00 4.2 C 67 % -1.37 C
1005 24-02-2009 08:58:01 4.2 C 67 % -1.37 C
1006 24-02-2009 09:09:59 4.3 C 67 % -1.27 C
1007 24-02-2009 09:22:00 4.4 C 66 % -1.38 C
1008 24-02-2009 09:34:59 4.6 C 65 % -1.4 C
1009 24-02-2009 09:46:00 4.8 C 65 % -1.21 C
1010 24-02-2009 09:58:00 4.7 C 64 % -1.51 C
1011 24-02-2009 10:10:59 4.9 C 63 % -1.54 C
1012 24-02-2009 10:22:59 5 C 62 % -1.66 C
1013 24-02-2009 10:34:59 5.1 C 62 % -1.57 C
1014 24-02-2009 10:46:59 5.3 C 62 % -1.38 C
1015 24-02-2009 10:59:00 5.1 C 62 % -1.57 C
1016 24-02-2009 11:10:58 5.1 C 62 % -1.57 C
1017 24-02-2009 11:22:59 5.4 C 63 % -1.06 C
1018 24-02-2009 11:34:59 5.4 C 61 % -1.5 C
1019 24-02-2009 11:46:58 5.7 C 61 % -1.22 C
1020 24-02-2009 11:58:58 5.9 C 55 % -2.43 C
1021 24-02-2009 12:10:59 6.1 C 52 % -3 C
1022 24-02-2009 12:22:58 6 C 51 % -3.35 C
1023 24-02-2009 12:34:58 6.1 C 52 % -3 C
1024 24-02-2009 12:46:58 6.3 C 54 % -2.31 C
1025 24-02-2009 12:58:58 6 C 53 % -2.84 C
Sensor: Nr:Datum:Temp:Feuchte:Taupunkt:
Aussen-T/F 1026 24-02-2009 13:10:58 6.2 C 52 % -2.91 C
1027 24-02-2009 13:22:57 6.3 C 51 % -3.08 C
1028 24-02-2009 13:34:57 6.4 C 51 % -2.98 C
1029 24-02-2009 13:46:57 6.7 C 50 % -2.97 C
1030 24-02-2009 13:58:57 6.8 C 48 % -3.42 C
1031 24-02-2009 14:10:57 6.9 C 46 % -3.9 C
1032 24-02-2009 14:22:57 6.4 C 49 % -3.52 C
1033 24-02-2009 14:34:57 6.7 C 49 % -3.24 C
1034 24-02-2009 14:46:56 6.9 C 49 % -3.06 C
1035 24-02-2009 14:58:56 7.1 C 46 % -3.72 C
1036 24-02-2009 15:10:56 7 C 44 % -4.4 C
1037 24-02-2009 15:22:57 6.9 C 44 % -4.49 C
1038 24-02-2009 15:34:56 6.9 C 43 % -4.79 C
1039 24-02-2009 15:46:56 7.5 C 43 % -4.25 C
1040 24-02-2009 15:58:56 7.6 C 41 % -4.79 C
1041 24-02-2009 16:10:56 8.1 C 39 % -5 C
1042 24-02-2009 16:22:56 8.1 C 36 % -6.05 C
1043 24-02-2009 16:34:55 7.9 C 37 % -5.87 C
1044 24-02-2009 16:46:56 8.4 C 36 % -5.78 C
1045 24-02-2009 16:58:57 7.8 C 38 % -5.61 C
1046 24-02-2009 17:10:55 7.2 C 40 % -5.47 C
1047 24-02-2009 17:22:55 6.6 C 42 % -5.37 C
1048 24-02-2009 17:34:55 6.5 C 42 % -5.46 C
1049 24-02-2009 17:46:55 6.5 C 45 % -4.56 C
1050 24-02-2009 17:58:55 6.3 C 46 % -4.45 C
Sensor: Nr:Datum:Temp:Feuchte:Taupunkt:
Aussen-T/F 1051 24-02-2009 18:10:55 6.2 C 44 % -5.13 C
1052 24-02-2009 18:22:54 6.1 C 45 % -4.92 C
1053 24-02-2009 18:34:55 5.9 C 49 % -3.98 C
1054 24-02-2009 18:46:54 5.8 C 50 % -3.8 C
1055 24-02-2009 18:58:54 5.6 C 52 % -3.46 C
1056 24-02-2009 19:10:54 5.4 C 54 % -3.14 C
1057 24-02-2009 19:22:54 5 C 54 % -3.52 C
1058 24-02-2009 19:34:54 4.4 C 57 % -3.36 C
1059 24-02-2009 19:46:53 3.9 C 57 % -3.82 C
1060 24-02-2009 19:58:53 3.5 C 59 % -3.74 C
1061 24-02-2009 20:10:54 3.4 C 59 % -3.84 C
1062 24-02-2009 20:22:54 3.4 C 61 % -3.39 C
1063 24-02-2009 20:34:53 3.5 C 64 % -2.65 C
1064 24-02-2009 20:46:54 3.4 C 67 % -2.13 C
1065 24-02-2009 20:58:54 3.3 C 68 % -2.03 C
1066 24-02-2009 21:10:53 3.1 C 69 % -2.02 C
1067 24-02-2009 21:22:53 2.8 C 71 % -1.92 C
1068 24-02-2009 21:34:52 2.7 C 72 % -1.83 C
1069 24-02-2009 21:46:53 2.8 C 73 % -1.55 C
1070 24-02-2009 21:58:53 2.7 C 72 % -1.83 C
1071 24-02-2009 22:10:52 3 C 73 % -1.35 C
1072 24-02-2009 22:22:52 2.8 C 72 % -1.73 C
1073 24-02-2009 22:34:53 2.6 C 73 % -1.74 C
1074 24-02-2009 22:46:53 2.6 C 73 % -1.74 C
1075 24-02-2009 22:58:53 2.6 C 74 % -1.56 C
Sensor: Nr:Datum:Temp:Feuchte:Taupunkt:
Aussen-T/F 1076 24-02-2009 23:10:53 2.6 C 73 % -1.74 C
1077 24-02-2009 23:22:53 2.4 C 74 % -1.75 C
1078 24-02-2009 23:34:53 2.3 C 74 % -1.85 C
1079 24-02-2009 23:46:53 2 C 75 % -1.95 C
1080 24-02-2009 23:58:53 1.8 C 76 % -1.97 C
1081 25-02-2009 00:10:53 1.7 C 77 % -1.89 C
1082 25-02-2009 00:22:52 1.7 C 77 % -1.89 C
1083 25-02-2009 00:34:52 1.5 C 78 % -1.91 C
1084 25-02-2009 00:46:51 1.3 C 79 % -1.93 C
1085 25-02-2009 00:58:51 1.1 C 79 % -2.12 C
1086 25-02-2009 01:10:52 1.1 C 80 % -1.96 C
1087 25-02-2009 01:22:52 0.9 C 81 % -1.98 C
1088 25-02-2009 01:34:51 0.7 C 82 % -2.01 C
1089 25-02-2009 01:46:51 0.7 C 82 % -2.01 C
1090 25-02-2009 01:58:51 0.6 C 83 % -1.95 C
1091 25-02-2009 02:10:51 0.5 C 83 % -2.04 C
1092 25-02-2009 02:22:51 0.2 C 83 % -2.34 C
1093 25-02-2009 02:34:50 0 C 83 % -2.53 C
1094 25-02-2009 02:47:53 -0.3 C 83 % -2.83 C
1095 25-02-2009 02:59:53 -0.3 C 83 % -2.83 C
1096 25-02-2009 03:11:52 -0.4 C 84 % -2.77 C
1097 25-02-2009 03:23:52 -0.5 C 84 % -2.86 C
1098 25-02-2009 03:35:52 -0.4 C 84 % -2.77 C
1099 25-02-2009 03:47:52 -0.7 C 84 % -3.06 C
1100 25-02-2009 03:59:52 -0.7 C 84 % -3.06 C
Sensor: Nr:Datum:Temp:Feuchte:Taupunkt:
Aussen-T/F 1101 25-02-2009 04:11:52 -0.8 C 84 % -3.16 C
1102 25-02-2009 04:23:52 -0.8 C 84 % -3.16 C
1103 25-02-2009 04:35:51 -0.8 C 85 % -3 C
1104 25-02-2009 04:47:51 -0.9 C 86 % -2.94 C
1105 25-02-2009 04:59:51 -0.7 C 87 % -2.59 C
1106 25-02-2009 05:11:51 -0.7 C 87 % -2.59 C
1107 25-02-2009 05:23:52 -0.6 C 88 % -2.34 C
1108 25-02-2009 05:35:51 -0.7 C 89 % -2.28 C
1109 25-02-2009 05:47:51 -0.6 C 89 % -2.18 C
1110 25-02-2009 05:59:51 -0.6 C 89 % -2.18 C
1111 25-02-2009 06:11:51 -0.7 C 89 % -2.28 C
1112 25-02-2009 06:23:50 -0.9 C 89 % -2.48 C
1113 25-02-2009 06:35:51 -0.8 C 90 % -2.23 C
1114 25-02-2009 06:47:50 -0.9 C 90 % -2.33 C
1115 25-02-2009 06:59:50 -0.8 C 90 % -2.23 C
1116 25-02-2009 07:11:50 -0.7 C 90 % -2.13 C
1117 25-02-2009 07:23:50 -0.7 C 90 % -2.13 C
1118 25-02-2009 07:35:50 -0.6 C 90 % -2.03 C
1119 25-02-2009 07:47:49 -0.7 C 90 % -2.13 C
1120 25-02-2009 07:59:49 -0.8 C 90 % -2.23 C
1121 25-02-2009 08:11:50 -0.8 C 90 % -2.23 C
1122 25-02-2009 08:23:50 -0.9 C 89 % -2.48 C
1123 25-02-2009 08:35:49 -0.9 C 89 % -2.48 C
1124 25-02-2009 08:47:49 -0.8 C 89 % -2.38 C
1125 25-02-2009 08:59:49 -0.3 C 89 % -1.89 C
Sensor: Nr:Datum:Temp:Feuchte:Taupunkt:
Aussen-T/F 1126 25-02-2009 09:11:49 -0.1 C 89 % -1.69 C
1127 25-02-2009 09:23:49 -0.2 C 88 % -1.94 C
1128 25-02-2009 09:35:48 -0.2 C 87 % -2.1 C
1129 25-02-2009 09:47:49 -0.2 C 87 % -2.1 C
1130 25-02-2009 09:59:49 -0.1 C 87 % -2 C
1131 25-02-2009 10:11:48 0.1 C 87 % -1.8 C
1132 25-02-2009 10:23:48 0.3 C 87 % -1.6 C
1133 25-02-2009 10:35:49 1 C 86 % -1.07 C
1134 25-02-2009 10:47:48 1.1 C 83 % -1.46 C
1135 25-02-2009 10:59:48 1.4 C 82 % -1.33 C
1136 25-02-2009 11:11:48 2 C 80 % -1.08 C
1137 25-02-2009 11:23:48 1.7 C 78 % -1.71 C
1138 25-02-2009 11:35:48 2.3 C 77 % -1.31 C
1139 25-02-2009 11:47:47 3.2 C 74 % -0.98 C
1140 25-02-2009 11:59:47 3.5 C 73 % -0.87 C
1141 25-02-2009 12:11:48 3.9 C 72 % -0.68 C
1142 25-02-2009 12:23:47 4.8 C 70 % -0.2 C
1143 25-02-2009 12:35:47 5.8 C 63 % -0.69 C
1144 25-02-2009 12:47:47 6.4 C 53 % -2.47 C
1145 25-02-2009 12:59:47 6.9 C 45 % -4.19 C
1146 25-02-2009 13:11:47 7.4 C 40 % -5.29 C
1147 25-02-2009 13:23:46 7.5 C 40 % -5.2 C
1148 25-02-2009 13:35:46 7.6 C 40 % -5.11 C
1149 25-02-2009 13:47:47 7.8 C 38 % -5.61 C
1150 25-02-2009 13:59:47 7.9 C 38 % -5.52 C
Sensor: Nr:Datum:Temp:Feuchte:Taupunkt:
Aussen-T/F 1151 25-02-2009 14:11:46 8 C 38 % -5.43 C
1152 25-02-2009 14:23:46 8.1 C 38 % -5.34 C
1153 25-02-2009 14:35:46 8.4 C 37 % -5.42 C
1154 25-02-2009 14:47:46 8.7 C 36 % -5.52 C
1155 25-02-2009 14:59:46 8.6 C 35 % -5.97 C
1156 25-02-2009 15:11:45 8.6 C 36 % -5.6 C
1157 25-02-2009 15:23:46 8.7 C 36 % -5.52 C
1158 25-02-2009 15:35:46 8.9 C 35 % -5.71 C
1159 25-02-2009 15:47:45 8.6 C 36 % -5.6 C
1160 25-02-2009 15:59:45 8.4 C 37 % -5.42 C
1161 25-02-2009 16:11:46 8.5 C 38 % -4.98 C
1162 25-02-2009 16:23:45 8.6 C 39 % -4.55 C
1163 25-02-2009 16:35:45 8.6 C 38 % -4.89 C
1164 25-02-2009 16:47:44 8.4 C 40 % -4.4 C
1165 25-02-2009 16:59:44 8.1 C 40 % -4.66 C
1166 25-02-2009 17:11:45 7.8 C 42 % -4.29 C
1167 25-02-2009 17:23:44 7.5 C 45 % -3.65 C
1168 25-02-2009 17:35:44 7.2 C 45 % -3.92 C
1169 25-02-2009 17:47:44 6.9 C 47 % -3.61 C
1170 25-02-2009 17:59:44 6.6 C 47 % -3.89 C
1171 25-02-2009 18:11:44 6.4 C 47 % -4.07 C
1172 25-02-2009 18:23:44 6.2 C 49 % -3.7 C
1173 25-02-2009 18:35:43 6.2 C 50 % -3.43 C
1174 25-02-2009 18:47:44 6 C 50 % -3.62 C
1175 25-02-2009 18:59:44 5.8 C 51 % -3.54 C
Sensor: Nr:Datum:Temp:Feuchte:Taupunkt:
Aussen-T/F 1176 25-02-2009 19:11:43 5.6 C 51 % -3.72 C
1177 25-02-2009 19:23:43 5.4 C 51 % -3.91 C
1178 25-02-2009 19:35:43 5.4 C 51 % -3.91 C
1179 25-02-2009 19:47:43 5.4 C 51 % -3.91 C
1180 25-02-2009 19:59:43 5.3 C 51 % -4 C
1181 25-02-2009 20:11:42 5.1 C 52 % -3.93 C
1182 25-02-2009 20:23:43 5 C 52 % -4.02 C
1183 25-02-2009 20:35:43 5.2 C 52 % -3.83 C
1184 25-02-2009 20:47:42 5.3 C 51 % -4 C
1185 25-02-2009 20:59:42 5.3 C 52 % -3.74 C
1186 25-02-2009 21:11:42 5.5 C 50 % -4.08 C
1187 25-02-2009 21:23:42 5.6 C 50 % -3.99 C
1188 25-02-2009 21:35:42 5.5 C 50 % -4.08 C
1189 25-02-2009 21:47:42 5.5 C 50 % -4.08 C
1190 25-02-2009 21:59:42 5.6 C 50 % -3.99 C
1191 25-02-2009 22:11:41 5.7 C 49 % -4.16 C
1192 25-02-2009 22:23:42 5.7 C 49 % -4.16 C
1193 25-02-2009 22:36:43 5.7 C 49 % -4.16 C
1194 25-02-2009 22:48:43 5.7 C 49 % -4.16 C
1195 25-02-2009 23:00:43 5.7 C 49 % -4.16 C
1196 25-02-2009 23:12:43 5.7 C 49 % -4.16 C
1197 25-02-2009 23:24:43 5.8 C 49 % -4.07 C
1198 25-02-2009 23:36:43 5.7 C 49 % -4.16 C
1199 25-02-2009 23:48:43 5.6 C 50 % -3.99 C
1200 26-02-2009 00:00:43 5.6 C 50 % -3.99 C
Sensor: Nr:Datum:Temp:Feuchte:Taupunkt:
Aussen-T/F 1201 26-02-2009 00:12:43 5.5 C 51 % -3.81 C
1202 26-02-2009 00:24:43 5.6 C 51 % -3.72 C
1203 26-02-2009 00:36:43 5.6 C 52 % -3.46 C
1204 26-02-2009 00:48:43 5.6 C 52 % -3.46 C
1205 26-02-2009 01:00:43 5.6 C 52 % -3.46 C
1206 26-02-2009 01:12:43 5.4 C 53 % -3.39 C
1207 26-02-2009 01:24:43 5.3 C 53 % -3.49 C
1208 26-02-2009 01:36:43 5.3 C 53 % -3.49 C
1209 26-02-2009 01:48:44 5.2 C 54 % -3.33 C
1210 26-02-2009 02:00:44 5.2 C 55 % -3.09 C
1211 26-02-2009 02:12:44 5.2 C 55 % -3.09 C
1212 26-02-2009 02:24:44 5.2 C 56 % -2.84 C
1213 26-02-2009 02:36:44 5.2 C 56 % -2.84 C
1214 26-02-2009 02:48:44 5.1 C 56 % -2.94 C
1215 26-02-2009 03:00:44 5.1 C 57 % -2.7 C
1216 26-02-2009 03:12:44 5 C 57 % -2.79 C
1217 26-02-2009 03:24:44 5 C 58 % -2.56 C
1218 26-02-2009 03:36:44 5.1 C 58 % -2.47 C
1219 26-02-2009 03:48:44 5 C 58 % -2.56 C
1220 26-02-2009 04:00:44 5 C 58 % -2.56 C
1221 26-02-2009 04:12:44 5 C 58 % -2.56 C
1222 26-02-2009 04:24:44 5.2 C 60 % -1.92 C
1223 26-02-2009 04:36:44 5.3 C 62 % -1.38 C
1224 26-02-2009 04:48:44 5.4 C 62 % -1.28 C
1225 26-02-2009 05:00:44 5.5 C 62 % -1.19 C
Sensor: Nr:Datum:Temp:Feuchte:Taupunkt:
Aussen-T/F 1226 26-02-2009 05:12:44 5.5 C 62 % -1.19 C
1227 26-02-2009 05:24:44 5.4 C 62 % -1.28 C
1228 26-02-2009 05:36:44 5.4 C 62 % -1.28 C
1229 26-02-2009 05:48:45 5.4 C 62 % -1.28 C
1230 26-02-2009 06:00:45 5.4 C 62 % -1.28 C
1231 26-02-2009 06:12:45 5.4 C 62 % -1.28 C
1232 26-02-2009 06:24:45 5.3 C 62 % -1.38 C
1233 26-02-2009 06:36:45 5.2 C 63 % -1.25 C
1234 26-02-2009 06:48:45 5.2 C 64 % -1.04 C
1235 26-02-2009 07:00:42 5.2 C 64 % -1.04 C
1236 26-02-2009 07:12:42 5.2 C 65 % -0.83 C
1237 26-02-2009 07:24:42 5.2 C 65 % -0.83 C
1238 26-02-2009 07:36:42 5.3 C 65 % -0.73 C
1239 26-02-2009 07:48:41 5.3 C 65 % -0.73 C
1240 26-02-2009 08:00:42 5.3 C 66 % -0.52 C
1241 26-02-2009 08:12:42 5.3 C 66 % -0.52 C
1242 26-02-2009 08:24:41 5.3 C 67 % -0.32 C
1243 26-02-2009 08:36:41 5.4 C 67 % -0.22 C
1244 26-02-2009 08:48:41 5.4 C 67 % -0.22 C
1245 26-02-2009 09:00:41 5.5 C 67 % -0.13 C
1246 26-02-2009 09:12:41 5.6 C 68 % 0.17 C
1247 26-02-2009 09:24:41 5.6 C 69 % 0.37 C
1248 26-02-2009 09:36:41 5.5 C 72 % 0.86 C
1249 26-02-2009 09:48:41 5.4 C 74 % 1.15 C
1250 26-02-2009 10:00:40 5.3 C 76 % 1.42 C
Sensor: Nr:Datum:Temp:Feuchte:Taupunkt:
Aussen-T/F 1251 26-02-2009 10:12:40 5.4 C 77 % 1.7 C
1252 26-02-2009 10:24:40 5.4 C 76 % 1.52 C
1253 26-02-2009 10:36:40 5.5 C 76 % 1.62 C
1254 26-02-2009 10:48:40 5.6 C 75 % 1.53 C
1255 26-02-2009 11:00:39 5.7 C 75 % 1.62 C
1256 26-02-2009 11:12:39 5.9 C 74 % 1.63 C
1257 26-02-2009 11:24:40 6.3 C 72 % 1.63 C
1258 26-02-2009 11:36:40 6.8 C 68 % 1.32 C
1259 26-02-2009 11:48:39 7.1 C 65 % 0.98 C
1260 26-02-2009 12:00:40 7.3 C 64 % 0.95 C
1261 26-02-2009 12:12:40 7.8 C 62 % 0.99 C
1262 26-02-2009 12:24:39 7.8 C 60 % 0.53 C
1263 26-02-2009 12:36:39 8 C 58 % 0.25 C
1264 26-02-2009 12:48:39 8 C 58 % 0.25 C
1265 26-02-2009 13:00:39 7.9 C 59 % 0.4 C
1266 26-02-2009 13:12:40 7.9 C 60 % 0.63 C
1267 26-02-2009 13:24:38 8 C 59 % 0.49 C
1268 26-02-2009 13:36:38 8.2 C 58 % 0.44 C
1269 26-02-2009 13:48:38 8.3 C 58 % 0.54 C
1270 26-02-2009 14:00:38 8.6 C 57 % 0.58 C
1271 26-02-2009 14:12:38 8.9 C 54 % 0.11 C
1272 26-02-2009 14:24:38 8.8 C 52 % -0.5 C
1273 26-02-2009 14:36:38 9.2 C 44 % -2.4 C
1274 26-02-2009 14:48:38 9.6 C 40 % -3.32 C
1275 26-02-2009 15:00:37 9.5 C 40 % -3.41 C
Sensor: Nr:Datum:Temp:Feuchte:Taupunkt:
Aussen-T/F 1276 26-02-2009 15:12:37 9.5 C 40 % -3.41 C
1277 26-02-2009 15:24:38 9.6 C 39 % -3.65 C
1278 26-02-2009 15:36:37 9.4 C 38 % -4.18 C
1279 26-02-2009 15:48:37 9.4 C 40 % -3.5 C
1280 26-02-2009 16:00:37 9.3 C 39 % -3.92 C
1281 26-02-2009 16:12:37 9.4 C 41 % -3.17 C
1282 26-02-2009 16:24:37 9.2 C 41 % -3.35 C
1283 26-02-2009 16:36:37 9 C 41 % -3.53 C
1284 26-02-2009 16:48:37 9 C 41 % -3.53 C
1285 26-02-2009 17:00:37 8.8 C 41 % -3.71 C
1286 26-02-2009 17:12:37 8.6 C 42 % -3.57 C
1287 26-02-2009 17:24:36 8.6 C 43 % -3.25 C
1288 26-02-2009 17:36:36 8.3 C 44 % -3.22 C
1289 26-02-2009 17:48:36 8.2 C 45 % -3.01 C
1290 26-02-2009 18:00:36 8.1 C 45 % -3.1 C
1291 26-02-2009 18:12:36 8 C 46 % -2.9 C
1292 26-02-2009 18:24:35 7.9 C 46 % -2.99 C
1293 26-02-2009 18:36:02 7.8 C 47 % -2.79 C
1294 26-02-2009 18:48:01 7.8 C 47 % -2.79 C
1295 26-02-2009 19:00:01 7.7 C 48 % -2.6 C
1296 26-02-2009 19:12:01 7.6 C 48 % -2.69 C
1297 26-02-2009 19:24:01 7.6 C 49 % -2.41 C
1298 26-02-2009 19:36:01 7.5 C 51 % -1.97 C
1299 26-02-2009 19:48:00 7.5 C 53 % -1.44 C
1300 26-02-2009 20:00:00 7.4 C 54 % -1.28 C
Sensor: Nr:Datum:Temp:Feuchte:Taupunkt:
Aussen-T/F 1301 26-02-2009 20:12:01 7.4 C 55 % -1.03 C
1302 26-02-2009 20:24:00 7.5 C 53 % -1.44 C
1303 26-02-2009 20:36:00 7.5 C 53 % -1.44 C
1304 26-02-2009 20:48:00 7.4 C 54 % -1.28 C
1305 26-02-2009 21:00:00 7.3 C 55 % -1.13 C
1306 26-02-2009 21:12:00 7.2 C 55 % -1.22 C
1307 26-02-2009 21:24:00 7.2 C 55 % -1.22 C
1308 26-02-2009 21:36:00 7.2 C 55 % -1.22 C
1309 26-02-2009 22:00:00 7.2 C 54 % -1.47 C
1310 26-02-2009 22:00:00 7.2 C 55 % -1.22 C
1311 26-02-2009 22:12:00 7.2 C 55 % -1.22 C
1312 26-02-2009 22:25:00 7.2 C 55 % -1.22 C
1313 26-02-2009 22:37:00 7.1 C 54 % -1.56 C
1314 26-02-2009 22:49:00 7.1 C 54 % -1.56 C
1315 26-02-2009 23:01:00 7.2 C 54 % -1.47 C
1316 26-02-2009 23:13:00 7.2 C 53 % -1.72 C
1317 26-02-2009 23:25:00 7.2 C 54 % -1.47 C
1318 26-02-2009 23:37:01 7.1 C 54 % -1.56 C
1319 26-02-2009 23:49:01 7.3 C 52 % -1.89 C
1320 27-02-2009 00:01:01 7.2 C 52 % -1.98 C
1321 27-02-2009 00:13:01 7.2 C 53 % -1.72 C
1322 27-02-2009 00:25:01 7.2 C 52 % -1.98 C
1323 27-02-2009 00:37:01 7.2 C 53 % -1.72 C
1324 27-02-2009 00:49:01 7.2 C 53 % -1.72 C
1325 27-02-2009 01:01:01 7.2 C 54 % -1.47 C
Sensor: Nr:Datum:Temp:Feuchte:Taupunkt:
Aussen-T/F 1326 27-02-2009 01:13:01 7.2 C 54 % -1.47 C
1327 27-02-2009 01:25:01 7.3 C 54 % -1.38 C
1328 27-02-2009 01:37:01 7.2 C 55 % -1.22 C
1329 27-02-2009 01:49:01 7.2 C 55 % -1.22 C
1330 27-02-2009 02:01:01 7.2 C 55 % -1.22 C
1331 27-02-2009 02:13:01 7.1 C 58 % -0.59 C
1332 27-02-2009 02:25:01 7 C 59 % -0.45 C
1333 27-02-2009 02:37:01 7 C 60 % -0.22 C
1334 27-02-2009 02:49:01 7 C 60 % -0.22 C
1335 27-02-2009 03:01:01 7 C 60 % -0.22 C
1336 27-02-2009 03:13:02 7 C 60 % -0.22 C
1337 27-02-2009 03:25:02 6.9 C 63 % 0.36 C
1338 27-02-2009 03:37:02 6.4 C 70 % 1.34 C
1339 27-02-2009 03:49:02 6 C 74 % 1.73 C
1340 27-02-2009 04:01:02 5.9 C 78 % 2.37 C
1341 27-02-2009 04:13:02 6.1 C 77 % 2.38 C
1342 27-02-2009 04:25:02 5.9 C 79 % 2.54 C
1343 27-02-2009 04:37:02 5.9 C 80 % 2.72 C
1344 27-02-2009 04:49:02 5.9 C 81 % 2.9 C
1345 27-02-2009 05:01:02 5.7 C 82 % 2.87 C
1346 27-02-2009 05:13:02 5.6 C 84 % 3.12 C
1347 27-02-2009 05:25:02 5.6 C 85 % 3.28 C
1348 27-02-2009 05:37:02 5.6 C 86 % 3.45 C
1349 27-02-2009 05:49:02 5.6 C 86 % 3.45 C
1350 27-02-2009 06:01:02 5.6 C 86 % 3.45 C
Sensor: Nr:Datum:Temp:Feuchte:Taupunkt:
Aussen-T/F 1351 27-02-2009 06:13:02 5.6 C 85 % 3.28 C
1352 27-02-2009 06:25:02 5.6 C 85 % 3.28 C
1353 27-02-2009 06:37:02 5.6 C 84 % 3.12 C
1354 27-02-2009 06:49:02 5.6 C 84 % 3.12 C
1355 27-02-2009 07:01:00 5.6 C 83 % 2.95 C
1356 27-02-2009 07:13:00 5.7 C 82 % 2.87 C
1357 27-02-2009 07:25:00 5.9 C 80 % 2.72 C
1358 27-02-2009 07:37:00 6.1 C 77 % 2.38 C
1359 27-02-2009 07:49:00 6.1 C 75 % 2.01 C
1360 27-02-2009 08:01:59 6.2 C 73 % 1.73 C
1361 27-02-2009 08:13:59 6.4 C 71 % 1.54 C
1362 27-02-2009 08:25:00 6.5 C 69 % 1.23 C
1363 27-02-2009 08:37:00 6.6 C 68 % 1.13 C
1364 27-02-2009 08:49:59 6.7 C 67 % 1.02 C
1365 27-02-2009 09:00:59 6.8 C 66 % 0.9 C
1366 27-02-2009 09:12:59 6.9 C 66 % 1 C
1367 27-02-2009 09:25:59 7 C 64 % 0.67 C
1368 27-02-2009 09:37:59 7.2 C 63 % 0.64 C
1369 27-02-2009 09:49:58 7.7 C 61 % 0.67 C
1370 27-02-2009 10:01:59 7.9 C 59 % 0.4 C
1371 27-02-2009 10:13:59 8 C 57 % 0.01 C
1372 27-02-2009 10:25:58 8.1 C 56 % -0.13 C
1373 27-02-2009 10:37:58 8.6 C 56 % 0.33 C
1374 27-02-2009 10:49:58 8.6 C 53 % -0.42 C
1375 27-02-2009 11:01:58 8.7 C 53 % -0.33 C
Sensor: Nr:Datum:Temp:Feuchte:Taupunkt:
Aussen-T/F 1376 27-02-2009 11:13:58 8.7 C 52 % -0.59 C
1377 27-02-2009 11:25:57 8.7 C 54 % -0.07 C
1378 27-02-2009 11:37:58 8.5 C 55 % -0.01 C
1379 27-02-2009 11:49:58 8.3 C 59 % 0.77 C
1380 27-02-2009 12:01:57 8 C 62 % 1.18 C
1381 27-02-2009 12:13:57 7.7 C 67 % 1.97 C
1382 27-02-2009 12:25:58 7.4 C 70 % 2.3 C
1383 27-02-2009 12:37:57 7.2 C 73 % 2.69 C
1384 27-02-2009 12:49:57 7 C 77 % 3.25 C
1385 27-02-2009 13:01:56 6.8 C 80 % 3.6 C
1386 27-02-2009 13:13:56 6.8 C 82 % 3.95 C
1387 27-02-2009 13:25:57 7 C 82 % 4.14 C
1388 27-02-2009 13:37:56 7.1 C 82 % 4.24 C
1389 27-02-2009 13:49:56 7.1 C 80 % 3.89 C
1390 27-02-2009 14:01:57 7.1 C 79 % 3.71 C
1391 27-02-2009 14:13:57 7.3 C 78 % 3.73 C
1392 27-02-2009 14:25:56 7.5 C 78 % 3.92 C
1393 27-02-2009 14:37:56 7.5 C 78 % 3.92 C
1394 27-02-2009 14:49:56 7.7 C 77 % 3.93 C
1395 27-02-2009 15:01:56 7.5 C 74 % 3.17 C
1396 27-02-2009 15:13:56 7.6 C 73 % 3.08 C
1397 27-02-2009 15:25:56 7.5 C 72 % 2.79 C
1398 27-02-2009 15:37:55 7.7 C 71 % 2.78 C
1399 27-02-2009 15:49:56 7.9 C 70 % 2.78 C
1400 27-02-2009 16:01:55 8 C 67 % 2.26 C
Sensor: Nr:Datum:Temp:Feuchte:Taupunkt:
Aussen-T/F 1401 27-02-2009 16:13:55 8 C 66 % 2.05 C
1402 27-02-2009 16:25:55 8 C 66 % 2.05 C
1403 27-02-2009 16:37:55 8 C 64 % 1.62 C
1404 27-02-2009 16:49:54 7.9 C 66 % 1.95 C
1405 27-02-2009 17:01:54 7.9 C 66 % 1.95 C
1406 27-02-2009 17:13:54 7.9 C 66 % 1.95 C
1407 27-02-2009 17:25:55 7.8 C 68 % 2.27 C
1408 27-02-2009 17:37:54 7.6 C 70 % 2.49 C
1409 27-02-2009 17:49:54 7.5 C 71 % 2.59 C
1410 27-02-2009 18:01:54 7.5 C 71 % 2.59 C
1411 27-02-2009 18:13:54 7.6 C 71 % 2.69 C
1412 27-02-2009 18:25:54 7.6 C 70 % 2.49 C
1413 27-02-2009 18:37:53 7.6 C 70 % 2.49 C
1414 27-02-2009 18:49:54 7.6 C 70 % 2.49 C
1415 27-02-2009 19:01:53 7.6 C 69 % 2.29 C
1416 27-02-2009 19:13:53 7.7 C 69 % 2.38 C
1417 27-02-2009 19:25:53 7.8 C 69 % 2.48 C
1418 27-02-2009 19:37:54 7.8 C 68 % 2.27 C
1419 27-02-2009 19:49:53 7.9 C 68 % 2.37 C
1420 27-02-2009 20:01:53 7.8 C 68 % 2.27 C
1421 27-02-2009 20:13:53 7.8 C 68 % 2.27 C
1422 27-02-2009 20:25:53 7.7 C 70 % 2.58 C
1423 27-02-2009 20:37:53 7.7 C 70 % 2.58 C
1424 27-02-2009 20:49:52 7.5 C 72 % 2.79 C
1425 27-02-2009 21:01:53 7.2 C 75 % 3.07 C
Sensor: Nr:Datum:Temp:Feuchte:Taupunkt:
Aussen-T/F 1426 27-02-2009 21:13:54 7 C 78 % 3.43 C
1427 27-02-2009 21:25:52 7 C 80 % 3.79 C
1428 27-02-2009 21:37:52 6.9 C 82 % 4.05 C
1429 27-02-2009 21:49:52 6.8 C 84 % 4.29 C
1430 27-02-2009 22:01:52 6.7 C 84 % 4.19 C
1431 27-02-2009 22:13:52 6.7 C 85 % 4.36 C
1432 27-02-2009 22:25:52 6.8 C 84 % 4.29 C
1433 27-02-2009 22:37:51 6.9 C 84 % 4.39 C
1434 27-02-2009 22:49:52 6.9 C 83 % 4.22 C
1435 27-02-2009 23:01:51 6.9 C 82 % 4.05 C
1436 27-02-2009 23:13:51 6.9 C 81 % 3.87 C
1437 27-02-2009 23:25:51 6.9 C 82 % 4.05 C
1438 27-02-2009 23:37:51 6.8 C 82 % 3.95 C
1439 27-02-2009 23:50:52 6.9 C 82 % 4.05 C
1440 28-02-2009 00:02:52 6.9 C 82 % 4.05 C
1441 28-02-2009 00:14:52 6.9 C 81 % 3.87 C
1442 28-02-2009 00:26:53 6.9 C 81 % 3.87 C
1443 28-02-2009 00:38:53 6.9 C 80 % 3.7 C
1444 28-02-2009 00:50:53 6.9 C 80 % 3.7 C
1445 28-02-2009 01:02:53 6.9 C 79 % 3.52 C
1446 28-02-2009 01:14:53 6.9 C 79 % 3.52 C
1447 28-02-2009 01:26:53 6.9 C 79 % 3.52 C
1448 28-02-2009 01:38:53 7 C 77 % 3.25 C
1449 28-02-2009 01:50:53 7 C 77 % 3.25 C
1450 28-02-2009 02:02:53 7.1 C 76 % 3.16 C
Sensor: Nr:Datum:Temp:Feuchte:Taupunkt:
Aussen-T/F 1451 28-02-2009 02:14:53 7.1 C 76 % 3.16 C
1452 28-02-2009 02:26:53 7.3 C 75 % 3.17 C
1453 28-02-2009 02:38:53 7.4 C 74 % 3.08 C
1454 28-02-2009 02:50:53 7.5 C 73 % 2.98 C
1455 28-02-2009 03:02:53 7.5 C 73 % 2.98 C
1456 28-02-2009 03:14:53 7.5 C 73 % 2.98 C
1457 28-02-2009 03:26:53 7.5 C 73 % 2.98 C
1458 28-02-2009 03:38:53 7.5 C 73 % 2.98 C
1459 28-02-2009 03:50:53 7.5 C 73 % 2.98 C
1460 28-02-2009 04:02:54 7.6 C 73 % 3.08 C
1461 28-02-2009 04:14:54 7.6 C 73 % 3.08 C
1462 28-02-2009 04:26:54 7.6 C 72 % 2.88 C
1463 28-02-2009 04:38:54 7.6 C 72 % 2.88 C
1464 28-02-2009 04:50:54 7.7 C 72 % 2.98 C
1465 28-02-2009 05:02:54 7.7 C 72 % 2.98 C
1466 28-02-2009 05:14:54 7.8 C 71 % 2.88 C
1467 28-02-2009 05:26:54 7.8 C 71 % 2.88 C
1468 28-02-2009 05:38:54 7.8 C 71 % 2.88 C
1469 28-02-2009 05:50:54 7.7 C 71 % 2.78 C
1470 28-02-2009 06:02:54 7.6 C 72 % 2.88 C
1471 28-02-2009 06:14:54 7.6 C 72 % 2.88 C
1472 28-02-2009 06:26:54 7.5 C 72 % 2.79 C
1473 28-02-2009 06:38:54 7.5 C 73 % 2.98 C
1474 28-02-2009 06:50:54 7.4 C 73 % 2.89 C
1475 28-02-2009 07:02:54 7.4 C 73 % 2.89 C
Sensor: Nr:Datum:Temp:Feuchte:Taupunkt:
Aussen-T/F 1476 28-02-2009 07:14:54 7.4 C 74 % 3.08 C
1477 28-02-2009 07:26:54 7.3 C 74 % 2.98 C
1478 28-02-2009 07:38:54 7.3 C 75 % 3.17 C
1479 28-02-2009 07:50:55 7.4 C 75 % 3.27 C
1480 28-02-2009 08:02:51 7.5 C 74 % 3.17 C
1481 28-02-2009 08:14:51 7.6 C 74 % 3.27 C
1482 28-02-2009 08:26:51 7.6 C 73 % 3.08 C
1483 28-02-2009 08:38:51 7.9 C 73 % 3.37 C
1484 28-02-2009 08:50:51 8 C 72 % 3.27 C
1485 28-02-2009 09:02:51 8.1 C 71 % 3.17 C
1486 28-02-2009 09:14:51 8.2 C 71 % 3.26 C
1487 28-02-2009 09:26:51 9 C 67 % 3.21 C
1488 28-02-2009 09:38:51 9.5 C 64 % 3.04 C
1489 28-02-2009 09:50:51 9.3 C 64 % 2.85 C
1490 28-02-2009 10:02:51 9.3 C 64 % 2.85 C
1491 28-02-2009 10:14:50 9.7 C 63 % 3.01 C
1492 28-02-2009 10:26:50 9.8 C 62 % 2.88 C
1493 28-02-2009 10:38:50 9.7 C 63 % 3.01 C
1494 28-02-2009 10:50:50 9.8 C 62 % 2.88 C
1495 28-02-2009 11:02:50 9.9 C 62 % 2.97 C
1496 28-02-2009 11:14:49 10.1 C 61 % 2.93 C
1497 28-02-2009 11:26:49 10.8 C 59 % 3.12 C
1498 28-02-2009 11:38:50 11.2 C 57 % 3.01 C
1499 28-02-2009 11:50:49 10.7 C 59 % 3.03 C
1500 28-02-2009 12:02:49 10.3 C 60 % 2.89 C
Sensor: Nr:Datum:Temp:Feuchte:Taupunkt:
Aussen-T/F 1501 28-02-2009 12:14:50 10.3 C 61 % 3.12 C
1502 28-02-2009 12:26:50 11 C 58 % 3.07 C
1503 28-02-2009 12:38:49 11.4 C 56 % 2.95 C
1504 28-02-2009 12:50:49 12 C 54 % 2.99 C
1505 28-02-2009 13:02:49 12.2 C 52 % 2.65 C
1506 28-02-2009 13:14:49 12.4 C 50 % 2.28 C
1507 28-02-2009 13:26:49 12.7 C 50 % 2.56 C
1508 28-02-2009 13:38:49 13.5 C 47 % 2.42 C
1509 28-02-2009 13:50:49 13.9 C 45 % 2.18 C
1510 28-02-2009 14:02:48 14.2 C 42 % 1.49 C
1511 28-02-2009 14:14:48 14.3 C 42 % 1.58 C
1512 28-02-2009 14:26:49 14 C 43 % 1.63 C
1513 28-02-2009 14:38:47 14.2 C 41 % 1.15 C
1514 28-02-2009 14:50:48 14.9 C 38 % 0.73 C
1515 28-02-2009 15:02:47 15.3 C 36 % 0.34 C
1516 28-02-2009 15:14:47 16.1 C 35 % 0.65 C
1517 28-02-2009 15:26:47 16.8 C 34 % 0.87 C
1518 28-02-2009 15:38:48 18 C 31 % 0.64 C
1519 28-02-2009 15:50:47 18.1 C 31 % 0.73 C
1520 28-02-2009 16:02:47 17.6 C 33 % 1.16 C
1521 28-02-2009 16:14:47 16.8 C 36 % 1.66 C
1522 28-02-2009 16:26:47 16.6 C 37 % 1.87 C
1523 28-02-2009 16:38:47 16.1 C 38 % 1.79 C
1524 28-02-2009 16:50:47 15.6 C 40 % 2.06 C
1525 28-02-2009 17:02:48 15.2 C 41 % 2.05 C
Sensor: Nr:Datum:Temp:Feuchte:Taupunkt:
Aussen-T/F 1526 28-02-2009 17:14:46 15 C 42 % 2.21 C
1527 28-02-2009 17:26:46 14.7 C 46 % 3.22 C
1528 28-02-2009 17:38:47 14.3 C 47 % 3.15 C
1529 28-02-2009 17:50:46 13.8 C 49 % 3.28 C
1530 28-02-2009 18:02:46 13.4 C 50 % 3.2 C
1531 28-02-2009 18:14:46 12.9 C 52 % 3.29 C
1532 28-02-2009 18:26:46 12.2 C 54 % 3.18 C
1533 28-02-2009 18:38:46 12 C 55 % 3.25 C
1534 28-02-2009 18:50:45 11.7 C 56 % 3.23 C
1535 28-02-2009 19:02:45 11.6 C 56 % 3.13 C
1536 28-02-2009 19:14:46 11.4 C 56 % 2.95 C
1537 28-02-2009 19:26:46 11.2 C 57 % 3.01 C
1538 28-02-2009 19:38:45 11.1 C 57 % 2.92 C
1539 28-02-2009 19:50:44 11 C 57 % 2.82 C
1540 28-02-2009 20:02:45 10.7 C 59 % 3.03 C
1541 28-02-2009 20:14:45 10.2 C 60 % 2.79 C
1542 28-02-2009 20:26:45 10 C 61 % 2.84 C
1543 28-02-2009 20:38:44 9.7 C 63 % 3.01 C
1544 28-02-2009 20:50:45 9.6 C 63 % 2.91 C
1545 28-02-2009 21:02:44 9.5 C 64 % 3.04 C
1546 28-02-2009 21:14:45 9.4 C 65 % 3.16 C
1547 28-02-2009 21:26:45 9.2 C 65 % 2.97 C
1548 28-02-2009 21:38:44 9.1 C 66 % 3.09 C
1549 28-02-2009 21:50:44 8.8 C 67 % 3.02 C
1550 28-02-2009 22:02:44 8.7 C 68 % 3.13 C
Sensor: Nr:Datum:Temp:Feuchte:Taupunkt:
Aussen-T/F 1551 28-02-2009 22:14:44 8.7 C 69 % 3.34 C
1552 28-02-2009 22:26:44 8.7 C 69 % 3.34 C
1553 28-02-2009 22:38:43 8.4 C 69 % 3.05 C
1554 28-02-2009 22:51:44 8.2 C 70 % 3.06 C
1555 28-02-2009 23:03:44 7.9 C 72 % 3.17 C
1556 28-02-2009 23:15:44 7.7 C 72 % 2.98 C
1557 28-02-2009 23:27:44 7.5 C 73 % 2.98 C
1558 28-02-2009 23:39:44 7.4 C 74 % 3.08 C
1559 28-02-2009 23:51:45 7.2 C 74 % 2.89 C
1560 01-03-2009 00:03:45 7.1 C 75 % 2.98 C
1561 01-03-2009 00:15:45 7 C 75 % 2.88 C
1562 01-03-2009 00:27:45 7.4 C 77 % 3.64 C
1563 01-03-2009 00:39:45 7.7 C 76 % 3.75 C
1564 01-03-2009 00:51:45 7.7 C 75 % 3.56 C
1565 01-03-2009 01:03:45 7.5 C 74 % 3.17 C
1566 01-03-2009 01:15:45 7.6 C 74 % 3.27 C
1567 01-03-2009 01:27:45 7.7 C 74 % 3.37 C
1568 01-03-2009 01:39:45 7.8 C 74 % 3.46 C
1569 01-03-2009 01:51:45 7.9 C 74 % 3.56 C
1570 01-03-2009 02:03:45 7.8 C 73 % 3.27 C
1571 01-03-2009 02:15:45 7.8 C 73 % 3.27 C
1572 01-03-2009 02:27:45 7.9 C 73 % 3.37 C
1573 01-03-2009 02:39:45 7.7 C 73 % 3.18 C
1574 01-03-2009 02:51:45 7.6 C 73 % 3.08 C
1575 01-03-2009 03:03:45 7.5 C 73 % 2.98 C
Sensor: Nr:Datum:Temp:Feuchte:Taupunkt:
Aussen-T/F 1576 01-03-2009 03:15:45 7.2 C 74 % 2.89 C
1577 01-03-2009 03:27:45 6.8 C 75 % 2.69 C
1578 01-03-2009 03:39:46 6.7 C 77 % 2.96 C
1579 01-03-2009 03:51:46 6.5 C 78 % 2.95 C
1580 01-03-2009 04:03:46 6.5 C 78 % 2.95 C
1581 01-03-2009 04:15:46 6.3 C 78 % 2.75 C
1582 01-03-2009 04:27:46 6.2 C 78 % 2.66 C
1583 01-03-2009 04:39:46 6.2 C 79 % 2.84 C
1584 01-03-2009 04:51:46 6 C 78 % 2.46 C
1585 01-03-2009 05:03:46 6 C 79 % 2.64 C
1586 01-03-2009 05:15:46 6.4 C 80 % 3.21 C
1587 01-03-2009 05:27:46 6.4 C 80 % 3.21 C
1588 01-03-2009 05:39:46 6.4 C 79 % 3.03 C
1589 01-03-2009 05:51:46 6.3 C 78 % 2.75 C
1590 01-03-2009 06:03:46 6.3 C 79 % 2.93 C
1591 01-03-2009 06:15:46 6.5 C 79 % 3.13 C
1592 01-03-2009 06:27:46 6.6 C 79 % 3.23 C
1593 01-03-2009 06:39:46 6.7 C 79 % 3.32 C
1594 01-03-2009 06:51:46 6.8 C 79 % 3.42 C
1595 01-03-2009 07:03:46 6.8 C 79 % 3.42 C
1596 01-03-2009 07:15:46 6.9 C 78 % 3.34 C
1597 01-03-2009 07:27:47 6.8 C 78 % 3.24 C
1598 01-03-2009 07:39:47 6.9 C 78 % 3.34 C
1599 01-03-2009 07:51:47 7 C 77 % 3.25 C
1600 01-03-2009 08:03:47 7.2 C 77 % 3.45 C
Sensor: Nr:Datum:Temp:Feuchte:Taupunkt:
Aussen-T/F 1601 01-03-2009 08:15:47 7.4 C 76 % 3.45 C
1602 01-03-2009 08:27:47 7.6 C 75 % 3.46 C
1603 01-03-2009 08:39:47 7.8 C 75 % 3.65 C
1604 01-03-2009 08:51:47 7.9 C 73 % 3.37 C
1605 01-03-2009 09:03:43 8 C 71 % 3.07 C
1606 01-03-2009 09:15:44 8.1 C 69 % 2.77 C
1607 01-03-2009 09:27:44 8.4 C 69 % 3.05 C
1608 01-03-2009 09:39:44 8.6 C 67 % 2.83 C
1609 01-03-2009 09:51:43 8.7 C 65 % 2.5 C
1610 01-03-2009 10:03:43 9.1 C 64 % 2.66 C
1611 01-03-2009 10:15:43 9.3 C 63 % 2.63 C
1612 01-03-2009 10:27:43 9.6 C 61 % 2.46 C
1613 01-03-2009 10:39:43 10 C 58 % 2.13 C
1614 01-03-2009 10:51:43 10.1 C 58 % 2.22 C
1615 01-03-2009 11:03:43 10.7 C 55 % 2.04 C
1616 01-03-2009 11:15:42 10.5 C 56 % 2.11 C
1617 01-03-2009 11:27:42 10.6 C 55 % 1.95 C
1618 01-03-2009 11:39:42 10.9 C 54 % 1.97 C
1619 01-03-2009 11:51:42 11.5 C 53 % 2.27 C
1620 01-03-2009 12:03:42 11.7 C 51 % 1.91 C
1621 01-03-2009 12:15:42 11.8 C 50 % 1.73 C
1622 01-03-2009 12:27:42 11.6 C 50 % 1.54 C
1623 01-03-2009 12:39:42 12.1 C 48 % 1.44 C
1624 01-03-2009 12:51:42 12.8 C 46 % 1.48 C
1625 01-03-2009 13:03:41 13.3 C 44 % 1.32 C
Sensor: Nr:Datum:Temp:Feuchte:Taupunkt:
Aussen-T/F 1626 01-03-2009 13:15:42 13.5 C 43 % 1.18 C
1627 01-03-2009 13:27:42 13.8 C 43 % 1.45 C
1628 01-03-2009 13:39:41 13.3 C 43 % 1 C
1629 01-03-2009 13:51:41 13.6 C 43 % 1.27 C
1630 01-03-2009 14:03:41 13.9 C 43 % 1.54 C
1631 01-03-2009 14:15:41 13.9 C 42 % 1.22 C
1632 01-03-2009 14:27:41 13.9 C 42 % 1.22 C
1633 01-03-2009 14:39:41 13.9 C 42 % 1.22 C
1634 01-03-2009 14:51:41 14.2 C 41 % 1.15 C
1635 01-03-2009 15:03:41 14.5 C 41 % 1.42 C
1636 01-03-2009 15:15:40 14.4 C 41 % 1.33 C
1637 01-03-2009 15:27:40 15.1 C 39 % 1.26 C
1638 01-03-2009 15:39:40 15.2 C 39 % 1.35 C
1639 01-03-2009 15:51:40 14.8 C 40 % 1.35 C
1640 01-03-2009 16:03:40 14.5 C 40 % 1.08 C
1641 01-03-2009 16:15:39 14.1 C 40 % 0.72 C
1642 01-03-2009 16:27:39 13.7 C 41 % 0.7 C
1643 01-03-2009 16:39:40 13.5 C 42 % 0.86 C
1644 01-03-2009 16:51:39 13.3 C 43 % 1 C
1645 01-03-2009 17:03:39 13.2 C 44 % 1.23 C
1646 01-03-2009 17:15:40 13 C 44 % 1.05 C
1647 01-03-2009 17:27:40 12.8 C 46 % 1.48 C
1648 01-03-2009 17:39:39 12.5 C 46 % 1.21 C
1649 01-03-2009 17:51:39 12.4 C 48 % 1.71 C
1650 01-03-2009 18:03:38 11.8 C 53 % 2.54 C
Sensor: Nr:Datum:Temp:Feuchte:Taupunkt:
Aussen-T/F 1651 01-03-2009 18:15:39 11.4 C 55 % 2.69 C
1652 01-03-2009 18:27:39 11.2 C 56 % 2.76 C
1653 01-03-2009 18:39:38 11.1 C 55 % 2.41 C
1654 01-03-2009 18:51:38 10.9 C 57 % 2.73 C
1655 01-03-2009 19:03:38 10.9 C 58 % 2.97 C
1656 01-03-2009 19:15:38 11 C 56 % 2.57 C
1657 01-03-2009 19:27:38 11 C 56 % 2.57 C
1658 01-03-2009 19:39:38 11.2 C 55 % 2.51 C
1659 01-03-2009 19:51:38 11.5 C 52 % 2 C
1660 01-03-2009 20:03:38 11.9 C 50 % 1.82 C
1661 01-03-2009 20:15:37 12 C 48 % 1.34 C
1662 01-03-2009 20:27:37 12 C 48 % 1.34 C
1663 01-03-2009 20:39:37 11.8 C 49 % 1.45 C
1664 01-03-2009 20:51:37 11.8 C 49 % 1.45 C
1665 01-03-2009 21:03:37 11.7 C 49 % 1.36 C
1666 01-03-2009 21:15:37 11.8 C 49 % 1.45 C
1667 01-03-2009 21:27:37 11.6 C 50 % 1.54 C
1668 01-03-2009 21:39:37 11.4 C 51 % 1.64 C
1669 01-03-2009 21:51:36 11.4 C 51 % 1.64 C
1670 01-03-2009 22:03:36 11.1 C 55 % 2.41 C
1671 01-03-2009 22:15:37 10.5 C 62 % 3.54 C
1672 01-03-2009 22:27:37 10.1 C 67 % 4.26 C
1673 01-03-2009 22:40:37 9.8 C 70 % 4.6 C
1674 01-03-2009 22:52:37 9.7 C 70 % 4.5 C
1675 01-03-2009 23:04:37 9.5 C 72 % 4.71 C
Sensor: Nr:Datum:Temp:Feuchte:Taupunkt:
Aussen-T/F 1676 01-03-2009 23:16:37 9.5 C 73 % 4.91 C
1677 01-03-2009 23:28:37 9.6 C 71 % 4.61 C
1678 01-03-2009 23:40:37 9.8 C 68 % 4.18 C
1679 01-03-2009 23:52:37 9.8 C 68 % 4.18 C
1680 02-03-2009 00:04:37 9.8 C 67 % 3.97 C
1681 02-03-2009 00:16:38 9.8 C 68 % 4.18 C
1682 02-03-2009 00:28:38 9.5 C 71 % 4.51 C
1683 02-03-2009 00:40:38 9.2 C 73 % 4.62 C
1684 02-03-2009 00:52:38 9.1 C 74 % 4.72 C
1685 02-03-2009 01:04:38 9.1 C 74 % 4.72 C
1686 02-03-2009 01:16:38 9.1 C 74 % 4.72 C
1687 02-03-2009 01:28:38 9.1 C 74 % 4.72 C
1688 02-03-2009 01:40:38 9.1 C 73 % 4.52 C
1689 02-03-2009 01:52:38 9 C 75 % 4.81 C
1690 02-03-2009 02:04:38 8.9 C 76 % 4.91 C
1691 02-03-2009 02:16:38 8.8 C 77 % 5 C
1692 02-03-2009 02:28:38 8.7 C 78 % 5.08 C
1693 02-03-2009 02:40:38 8.6 C 78 % 4.99 C
1694 02-03-2009 02:52:38 8.6 C 79 % 5.17 C
1695 02-03-2009 03:04:38 8.7 C 80 % 5.45 C
1696 02-03-2009 03:16:38 8.5 C 82 % 5.61 C
1697 02-03-2009 03:28:38 8.5 C 82 % 5.61 C
1698 02-03-2009 03:40:38 8.5 C 83 % 5.78 C
1699 02-03-2009 03:52:38 8.4 C 83 % 5.69 C
1700 02-03-2009 04:04:39 8.4 C 84 % 5.86 C
Sensor: Nr:Datum:Temp:Feuchte:Taupunkt:
Aussen-T/F 1701 02-03-2009 04:16:39 8.4 C 85 % 6.03 C
1702 02-03-2009 04:28:39 8.3 C 86 % 6.1 C
1703 02-03-2009 04:40:39 8.3 C 86 % 6.1 C
1704 02-03-2009 04:52:39 8.3 C 87 % 6.27 C
1705 02-03-2009 05:04:39 8.2 C 87 % 6.17 C
1706 02-03-2009 05:16:39 8.2 C 87 % 6.17 C
1707 02-03-2009 05:28:39 8.2 C 87 % 6.17 C
1708 02-03-2009 05:40:39 8.1 C 87 % 6.07 C
1709 02-03-2009 05:52:39 8.1 C 86 % 5.9 C
1710 02-03-2009 06:04:39 8.2 C 86 % 6 C
1711 02-03-2009 06:16:39 8.2 C 85 % 5.83 C
1712 02-03-2009 06:28:39 8.2 C 85 % 5.83 C
1713 02-03-2009 06:40:39 8.1 C 85 % 5.73 C
1714 02-03-2009 06:52:39 8.2 C 85 % 5.83 C
1715 02-03-2009 07:04:37 8.2 C 86 % 6 C
1716 02-03-2009 07:16:37 8.4 C 85 % 6.03 C
1717 02-03-2009 07:28:37 8.4 C 84 % 5.86 C
1718 02-03-2009 07:40:37 8.4 C 83 % 5.69 C
1719 02-03-2009 07:52:38 8.3 C 82 % 5.41 C
1720 02-03-2009 08:04:37 8.3 C 83 % 5.59 C
1721 02-03-2009 08:16:36 8.3 C 83 % 5.59 C
1722 02-03-2009 08:28:37 8.2 C 84 % 5.66 C
1723 02-03-2009 08:40:36 8.2 C 84 % 5.66 C
1724 02-03-2009 08:52:36 8.1 C 84 % 5.56 C
1725 02-03-2009 09:04:36 8.1 C 85 % 5.73 C
Sensor: Nr:Datum:Temp:Feuchte:Taupunkt:
Aussen-T/F 1726 02-03-2009 09:16:35 8.1 C 85 % 5.73 C
1727 02-03-2009 09:28:35 8.1 C 85 % 5.73 C
1728 02-03-2009 09:40:36 8.1 C 86 % 5.9 C
1729 02-03-2009 09:52:35 8.1 C 86 % 5.9 C
1730 02-03-2009 10:04:35 8.1 C 87 % 6.07 C
1731 02-03-2009 10:16:36 8.2 C 87 % 6.17 C
1732 02-03-2009 10:28:36 8 C 87 % 5.97 C
1733 02-03-2009 10:40:35 8.1 C 85 % 5.73 C
1734 02-03-2009 10:52:35 8.2 C 84 % 5.66 C
1735 02-03-2009 11:04:35 8.2 C 83 % 5.49 C
1736 02-03-2009 11:16:35 8.1 C 82 % 5.22 C
1737 02-03-2009 11:28:35 8 C 81 % 4.94 C
1738 02-03-2009 11:40:34 8 C 81 % 4.94 C
1739 02-03-2009 11:52:35 8.2 C 82 % 5.32 C
1740 02-03-2009 12:04:34 8.6 C 81 % 5.53 C
1741 02-03-2009 12:16:34 8.8 C 77 % 5 C
1742 02-03-2009 12:28:34 8.9 C 72 % 4.14 C
1743 02-03-2009 12:40:34 8.7 C 70 % 3.54 C
1744 02-03-2009 12:52:34 9.5 C 67 % 3.69 C
1745 02-03-2009 13:04:34 9.2 C 61 % 2.08 C
1746 02-03-2009 13:16:33 9 C 59 % 1.43 C
1747 02-03-2009 13:28:33 9.3 C 59 % 1.71 C
1748 02-03-2009 13:40:34 9.8 C 58 % 1.94 C
1749 02-03-2009 13:52:33 10.6 C 52 % 1.17 C
1750 02-03-2009 14:04:33 10.1 C 48 % -0.4 C
Sensor: Nr:Datum:Temp:Feuchte:Taupunkt:
Aussen-T/F 1751 02-03-2009 14:16:33 10.2 C 48 % -0.31 C
1752 02-03-2009 14:28:33 10.7 C 47 % -0.14 C
1753 02-03-2009 14:40:33 10.4 C 46 % -0.7 C
1754 02-03-2009 14:52:32 10.4 C 47 % -0.41 C
1755 02-03-2009 15:04:33 10.3 C 45 % -1.1 C
1756 02-03-2009 15:16:33 10.3 C 45 % -1.1 C
1757 02-03-2009 15:28:33 10.2 C 45 % -1.19 C
1758 02-03-2009 15:40:32 10.8 C 45 % -0.64 C
1759 02-03-2009 15:52:32 10.7 C 45 % -0.73 C
1760 02-03-2009 16:04:32 10.5 C 44 % -1.22 C
1761 02-03-2009 16:16:32 10.3 C 45 % -1.1 C
1762 02-03-2009 16:28:33 10 C 46 % -1.07 C
1763 02-03-2009 16:40:31 10 C 46 % -1.07 C
1764 02-03-2009 16:52:32 9.8 C 47 % -0.96 C
1765 02-03-2009 17:04:31 9.7 C 50 % -0.21 C
1766 02-03-2009 17:16:31 9.5 C 50 % -0.39 C
1767 02-03-2009 17:28:31 9.2 C 50 % -0.67 C
1768 02-03-2009 17:40:32 8.9 C 52 % -0.41 C
1769 02-03-2009 17:52:31 8.5 C 53 % -0.52 C
1770 02-03-2009 18:04:31 8.3 C 54 % -0.45 C
1771 02-03-2009 18:16:31 8.1 C 56 % -0.13 C
1772 02-03-2009 18:28:31 7.8 C 57 % -0.17 C
1773 02-03-2009 18:40:30 7.8 C 57 % -0.17 C
1774 02-03-2009 18:52:31 7.5 C 58 % -0.21 C
1775 02-03-2009 19:04:30 7.6 C 57 % -0.36 C
Sensor: Nr:Datum:Temp:Feuchte:Taupunkt:
Aussen-T/F 1776 02-03-2009 19:16:30 7.5 C 56 % -0.7 C
1777 02-03-2009 19:28:30 7.3 C 57 % -0.64 C
1778 02-03-2009 19:40:30 7.1 C 58 % -0.59 C
1779 02-03-2009 19:52:30 6.8 C 59 % -0.64 C
1780 02-03-2009 20:04:29 6.4 C 60 % -0.78 C
1781 02-03-2009 20:16:30 6 C 61 % -0.94 C
1782 02-03-2009 20:28:30 5.8 C 63 % -0.69 C
1783 02-03-2009 20:40:30 5.4 C 63 % -1.06 C
1784 02-03-2009 20:52:29 5.1 C 65 % -0.92 C
1785 02-03-2009 21:04:29 4.8 C 67 % -0.8 C
1786 02-03-2009 21:16:29 4.6 C 68 % -0.78 C
1787 02-03-2009 21:28:29 4.4 C 69 % -0.78 C
1788 02-03-2009 21:40:29 4.1 C 70 % -0.87 C
1789 02-03-2009 21:52:29 3.9 C 72 % -0.68 C
1790 02-03-2009 22:04:29 3.7 C 73 % -0.68 C
1791 02-03-2009 22:16:28 3.7 C 73 % -0.68 C
1792 02-03-2009 22:28:28 3.5 C 74 % -0.69 C
1793 02-03-2009 22:40:29 3.4 C 74 % -0.78 C
1794 02-03-2009 22:53:29 3 C 76 % -0.81 C
1795 02-03-2009 23:05:29 2.8 C 78 % -0.65 C
1796 02-03-2009 23:17:29 2.7 C 78 % -0.74 C
1797 02-03-2009 23:29:29 2.9 C 80 % -0.2 C
1798 02-03-2009 23:41:29 3.1 C 79 % -0.18 C
1799 02-03-2009 23:53:29 2.8 C 79 % -0.47 C
1800 03-03-2009 00:05:29 2.6 C 79 % -0.67 C
Sensor: Nr:Datum:Temp:Feuchte:Taupunkt:
Aussen-T/F 1801 03-03-2009 00:17:30 2.9 C 79 % -0.37 C
1802 03-03-2009 00:29:30 3.1 C 77 % -0.53 C
1803 03-03-2009 00:41:30 3 C 76 % -0.81 C
1804 03-03-2009 00:53:30 2.9 C 77 % -0.72 C
1805 03-03-2009 01:05:30 3 C 76 % -0.81 C
1806 03-03-2009 01:17:30 3 C 75 % -0.99 C
1807 03-03-2009 01:29:30 3.1 C 74 % -1.07 C
1808 03-03-2009 01:41:30 3 C 74 % -1.17 C
1809 03-03-2009 01:53:30 2.8 C 75 % -1.18 C
1810 03-03-2009 02:05:30 2.6 C 75 % -1.37 C
1811 03-03-2009 02:17:30 2.4 C 75 % -1.57 C
1812 03-03-2009 02:29:30 2.3 C 76 % -1.48 C
1813 03-03-2009 02:41:30 2.2 C 76 % -1.58 C
1814 03-03-2009 02:53:30 2.1 C 78 % -1.33 C
1815 03-03-2009 03:05:30 1.9 C 80 % -1.18 C
1816 03-03-2009 03:17:30 1.6 C 79 % -1.64 C
1817 03-03-2009 03:29:30 1.5 C 80 % -1.57 C
1818 03-03-2009 03:41:30 1.5 C 81 % -1.4 C
1819 03-03-2009 03:53:30 1.2 C 82 % -1.52 C
1820 03-03-2009 04:05:31 1.2 C 82 % -1.52 C
1821 03-03-2009 04:17:31 1.5 C 83 % -1.06 C
1822 03-03-2009 04:29:31 1.4 C 83 % -1.16 C
1823 03-03-2009 04:41:31 1.3 C 83 % -1.26 C
1824 03-03-2009 04:53:31 1 C 82 % -1.72 C
1825 03-03-2009 05:05:31 0.7 C 83 % -1.85 C
Sensor: Nr:Datum:Temp:Feuchte:Taupunkt:
Aussen-T/F 1826 03-03-2009 05:17:31 0.5 C 83 % -2.04 C
1827 03-03-2009 05:29:31 0.3 C 83 % -2.24 C
1828 03-03-2009 05:41:31 0.3 C 83 % -2.24 C
1829 03-03-2009 05:53:31 0.1 C 84 % -2.27 C
1830 03-03-2009 06:05:31 0 C 84 % -2.37 C
1831 03-03-2009 06:17:31 -0.1 C 84 % -2.47 C
1832 03-03-2009 06:29:31 0 C 84 % -2.37 C
1833 03-03-2009 06:41:31 -0.1 C 84 % -2.47 C
1834 03-03-2009 06:53:31 -0.2 C 84 % -2.57 C
1835 03-03-2009 07:05:29 -0.3 C 84 % -2.67 C
1836 03-03-2009 07:17:28 -0.4 C 84 % -2.77 C
1837 03-03-2009 07:29:28 -0.4 C 84 % -2.77 C
1838 03-03-2009 07:41:29 -0.4 C 85 % -2.61 C
1839 03-03-2009 07:53:28 -0.4 C 85 % -2.61 C
1840 03-03-2009 08:05:28 -0.3 C 85 % -2.51 C
1841 03-03-2009 08:17:28 -0.2 C 86 % -2.25 C
1842 03-03-2009 08:29:28 -0.1 C 86 % -2.16 C
1843 03-03-2009 08:41:28 0.1 C 87 % -1.8 C
1844 03-03-2009 08:53:27 0.4 C 87 % -1.5 C
1845 03-03-2009 09:05:28 0.9 C 87 % -1.01 C
1846 03-03-2009 09:17:27 1.2 C 85 % -1.03 C
1847 03-03-2009 09:29:27 1.2 C 84 % -1.2 C
1848 03-03-2009 09:41:28 1.3 C 83 % -1.26 C
1849 03-03-2009 09:53:27 1.7 C 83 % -0.87 C
1850 03-03-2009 10:05:27 2.1 C 82 % -0.64 C
Sensor: Nr:Datum:Temp:Feuchte:Taupunkt:
Aussen-T/F 1851 03-03-2009 10:17:27 2.6 C 81 % -0.32 C
1852 03-03-2009 10:29:27 3.1 C 80 % -0.01 C
1853 03-03-2009 10:41:27 3.7 C 77 % 0.05 C
1854 03-03-2009 10:53:27 4.3 C 74 % 0.09 C
1855 03-03-2009 11:05:26 5 C 68 % -0.4 C
1856 03-03-2009 11:17:27 5.3 C 68 % -0.12 C
1857 03-03-2009 11:29:27 6.4 C 59 % -1.01 C
1858 03-03-2009 11:41:26 6.7 C 58 % -0.97 C
1859 03-03-2009 11:53:26 7.2 C 55 % -1.22 C
1860 03-03-2009 12:05:26 7.6 C 53 % -1.35 C
1861 03-03-2009 12:17:27 8 C 50 % -1.77 C
1862 03-03-2009 12:29:27 8.2 C 46 % -2.71 C
1863 03-03-2009 12:41:26 8.7 C 45 % -2.55 C
1864 03-03-2009 12:53:26 9 C 41 % -3.53 C
1865 03-03-2009 13:05:26 9.3 C 39 % -3.92 C
1866 03-03-2009 13:17:25 9.6 C 35 % -5.09 C
1867 03-03-2009 13:29:25 9.8 C 33 % -5.68 C
1868 03-03-2009 13:41:25 10.5 C 31 % -5.89 C
1869 03-03-2009 13:53:25 10.8 C 30 % -6.06 C
1870 03-03-2009 14:05:25 11.1 C 28 % -6.69 C
1871 03-03-2009 14:17:24 11 C 27 % -7.25 C
1872 03-03-2009 14:29:24 10.7 C 26 % -7.99 C
1873 03-03-2009 14:41:25 11 C 25 % -8.24 C
1874 03-03-2009 14:53:24 11.8 C 24 % -8.08 C
1875 03-03-2009 15:05:24 11.3 C 22 % -9.61 C
Sensor: Nr:Datum:Temp:Feuchte:Taupunkt:
Aussen-T/F 1876 03-03-2009 15:17:24 11 C 26 % -7.74 C
1877 03-03-2009 15:29:24 11.5 C 27 % -6.82 C
1878 03-03-2009 15:41:24 11.6 C 25 % -7.73 C
1879 03-03-2009 15:53:24 11.2 C 23 % -9.13 C
1880 03-03-2009 16:05:23 10.6 C 25 % -8.58 C
1881 03-03-2009 16:17:24 10.4 C 26 % -8.25 C
1882 03-03-2009 16:29:24 10.5 C 26 % -8.16 C
1883 03-03-2009 16:41:23 10.6 C 26 % -8.08 C
1884 03-03-2009 16:53:23 10.1 C 25 % -9.01 C
1885 03-03-2009 17:05:24 9.9 C 28 % -7.73 C
1886 03-03-2009 17:17:23 10.2 C 28 % -7.47 C
1887 03-03-2009 17:29:23 10.5 C 27 % -7.68 C
1888 03-03-2009 17:41:23 10.2 C 26 % -8.42 C
1889 03-03-2009 17:53:23 9.7 C 28 % -7.9 C
1890 03-03-2009 18:05:23 9.1 C 31 % -7.11 C
1891 03-03-2009 18:17:22 8.2 C 35 % -6.33 C
1892 03-03-2009 18:29:22 7.5 C 38 % -5.88 C
1893 03-03-2009 18:41:23 6.9 C 41 % -5.42 C
1894 03-03-2009 18:53:22 6.6 C 43 % -5.07 C
1895 03-03-2009 19:05:22 6.4 C 43 % -5.25 C
1896 03-03-2009 19:17:22 6.5 C 45 % -4.56 C
1897 03-03-2009 19:29:22 6.8 C 42 % -5.19 C
1898 03-03-2009 19:41:22 6.7 C 43 % -4.97 C
1899 03-03-2009 19:53:22 6.5 C 44 % -4.85 C
1900 03-03-2009 20:05:21 6.4 C 44 % -4.94 C
Sensor: Nr:Datum:Temp:Feuchte:Taupunkt:
Aussen-T/F 1901 03-03-2009 20:17:22 6.4 C 43 % -5.25 C
1902 03-03-2009 20:29:22 6.3 C 42 % -5.65 C
1903 03-03-2009 20:41:21 6.1 C 43 % -5.52 C
1904 03-03-2009 20:53:21 6.2 C 42 % -5.74 C
1905 03-03-2009 21:05:21 6.4 C 41 % -5.87 C
1906 03-03-2009 21:17:21 6 C 40 % -6.55 C
1907 03-03-2009 21:29:21 5.9 C 41 % -6.32 C
1908 03-03-2009 21:41:20 5.8 C 41 % -6.41 C
1909 03-03-2009 21:53:21 5.8 C 40 % -6.73 C
1910 03-03-2009 22:05:20 5.7 C 44 % -5.58 C
1911 03-03-2009 22:17:20 5.8 C 42 % -6.1 C
1912 03-03-2009 22:29:20 6 C 41 % -6.23 C
1913 03-03-2009 22:41:20 5.9 C 42 % -6.01 C
1914 03-03-2009 22:54:21 6 C 41 % -6.23 C
1915 03-03-2009 23:06:22 6.2 C 40 % -6.37 C
1916 03-03-2009 23:18:22 6.4 C 41 % -5.87 C
1917 03-03-2009 23:30:22 6.2 C 42 % -5.74 C
1918 03-03-2009 23:42:22 6.4 C 42 % -5.56 C
1919 03-03-2009 23:54:22 5.9 C 45 % -5.1 C
1920 04-03-2009 00:06:22 5.5 C 46 % -5.18 C
1921 04-03-2009 00:18:22 5 C 48 % -5.08 C
1922 04-03-2009 00:30:22 4.5 C 53 % -4.23 C
1923 04-03-2009 00:42:22 4.4 C 54 % -4.08 C
1924 04-03-2009 00:54:22 4.2 C 56 % -3.78 C
1925 04-03-2009 01:06:22 4.3 C 56 % -3.69 C
Sensor: Nr:Datum:Temp:Feuchte:Taupunkt:
Aussen-T/F 1926 04-03-2009 01:18:22 4.1 C 58 % -3.41 C
1927 04-03-2009 01:30:22 3.9 C 60 % -3.14 C
1928 04-03-2009 01:42:22 3.7 C 61 % -3.11 C
1929 04-03-2009 01:54:22 3.6 C 61 % -3.2 C
1930 04-03-2009 02:06:22 3.4 C 62 % -3.17 C
1931 04-03-2009 02:18:22 3.3 C 64 % -2.84 C
1932 04-03-2009 02:30:22 3.2 C 64 % -2.94 C
1933 04-03-2009 02:42:22 3.2 C 65 % -2.73 C
1934 04-03-2009 02:54:22 3.1 C 66 % -2.62 C
1935 04-03-2009 03:06:23 2.9 C 66 % -2.81 C
1936 04-03-2009 03:18:23 2.7 C 67 % -2.8 C
1937 04-03-2009 03:30:23 2.7 C 68 % -2.6 C
1938 04-03-2009 03:42:23 2.8 C 69 % -2.31 C
1939 04-03-2009 03:54:23 2.8 C 69 % -2.31 C
1940 04-03-2009 04:06:23 2.8 C 70 % -2.11 C
1941 04-03-2009 04:18:23 2.6 C 70 % -2.31 C
1942 04-03-2009 04:30:23 2.5 C 70 % -2.4 C
1943 04-03-2009 04:42:23 2.5 C 71 % -2.21 C
1944 04-03-2009 04:54:23 2.4 C 71 % -2.31 C
1945 04-03-2009 05:06:23 2.5 C 72 % -2.02 C
1946 04-03-2009 05:18:23 2.7 C 71 % -2.02 C
1947 04-03-2009 05:30:23 3 C 69 % -2.12 C
1948 04-03-2009 05:42:23 3.1 C 68 % -2.22 C
1949 04-03-2009 05:54:23 3.2 C 67 % -2.32 C
1950 04-03-2009 06:06:23 3.4 C 66 % -2.33 C
Sensor: Nr:Datum:Temp:Feuchte:Taupunkt:
Aussen-T/F 1951 04-03-2009 06:18:23 3.5 C 66 % -2.24 C
1952 04-03-2009 06:30:23 3.5 C 65 % -2.44 C
1953 04-03-2009 06:42:23 3.4 C 66 % -2.33 C
1954 04-03-2009 06:54:23 3.5 C 65 % -2.44 C
1955 04-03-2009 07:06:20 3.6 C 65 % -2.35 C
1956 04-03-2009 07:18:21 3.7 C 65 % -2.25 C
1957 04-03-2009 07:30:21 3.8 C 64 % -2.37 C
1958 04-03-2009 07:42:21 3.7 C 65 % -2.25 C
1959 04-03-2009 07:54:20 3.8 C 65 % -2.16 C
1960 04-03-2009 08:06:21 3.9 C 64 % -2.27 C
1961 04-03-2009 08:18:20 4 C 64 % -2.18 C
1962 04-03-2009 08:30:20 4.1 C 63 % -2.3 C
1963 04-03-2009 08:42:20 4.2 C 63 % -2.2 C
1964 04-03-2009 08:54:19 4.2 C 63 % -2.2 C
1965 04-03-2009 09:06:20 4.2 C 63 % -2.2 C
1966 04-03-2009 09:18:19 4 C 62 % -2.61 C
1967 04-03-2009 09:30:20 4.1 C 62 % -2.51 C
1968 04-03-2009 09:42:21 4.3 C 61 % -2.54 C
1969 04-03-2009 09:54:19 4.9 C 59 % -2.42 C
1970 04-03-2009 10:06:19 5.4 C 56 % -2.66 C
1971 04-03-2009 10:18:18 5.9 C 54 % -2.68 C
1972 04-03-2009 10:30:19 6.1 C 53 % -2.74 C
1973 04-03-2009 10:42:19 6.8 C 50 % -2.88 C
1974 04-03-2009 10:54:18 7.5 C 47 % -3.06 C
1975 04-03-2009 11:06:18 8 C 44 % -3.49 C
Sensor: Nr:Datum:Temp:Feuchte:Taupunkt:
Aussen-T/F 1976 04-03-2009 11:18:19 8.3 C 43 % -3.52 C
1977 04-03-2009 11:30:18 8.6 C 42 % -3.57 C
1978 04-03-2009 11:42:18 8.8 C 42 % -3.39 C
1979 04-03-2009 11:54:18 9.1 C 42 % -3.12 C
1980 04-03-2009 12:06:18 9.4 C 41 % -3.17 C
1981 04-03-2009 12:18:18 9.9 C 40 % -3.05 C
1982 04-03-2009 12:30:18 10.3 C 37 % -3.73 C
1983 04-03-2009 12:42:18 10.7 C 37 % -3.38 C
1984 04-03-2009 12:54:18 11.1 C 36 % -3.39 C
1985 04-03-2009 13:06:18 11.8 C 32 % -4.34 C
1986 04-03-2009 13:18:17 12.2 C 28 % -5.75 C
1987 04-03-2009 13:30:17 12.2 C 30 % -4.84 C
1988 04-03-2009 13:42:17 11.5 C 33 % -4.19 C
1989 04-03-2009 13:54:17 11.7 C 33 % -4.01 C
1990 04-03-2009 14:06:17 12 C 32 % -4.16 C
1991 04-03-2009 14:18:16 12.4 C 31 % -4.23 C
1992 04-03-2009 14:30:17 12.3 C 30 % -4.75 C
1993 04-03-2009 14:42:17 12.7 C 30 % -4.41 C
1994 04-03-2009 14:54:16 12.9 C 30 % -4.23 C
1995 04-03-2009 15:06:16 13 C 28 % -5.06 C
1996 04-03-2009 15:18:17 13.3 C 28 % -4.8 C
1997 04-03-2009 15:30:16 12.9 C 28 % -5.14 C
1998 04-03-2009 15:42:16 12.3 C 30 % -4.75 C
1999 04-03-2009 15:54:16 11.9 C 32 % -4.25 C
2000 04-03-2009 16:06:16 11.9 C 32 % -4.25 C
Sensor: Nr:Datum:Temp:Feuchte:Taupunkt:
Aussen-T/F 2001 04-03-2009 16:18:16 12.7 C 29 % -4.85 C
2002 04-03-2009 16:30:15 12.3 C 31 % -4.32 C
2003 04-03-2009 16:42:15 12.2 C 30 % -4.84 C
2004 04-03-2009 16:54:15 11.9 C 32 % -4.25 C
2005 04-03-2009 17:06:15 11.7 C 31 % -4.84 C
2006 04-03-2009 17:18:15 11.6 C 31 % -4.93 C
2007 04-03-2009 17:30:15 11.4 C 31 % -5.1 C
2008 04-03-2009 17:42:15 11.3 C 31 % -5.19 C
2009 04-03-2009 17:54:15 11.1 C 31 % -5.37 C
2010 04-03-2009 18:06:15 11 C 32 % -5.04 C
2011 04-03-2009 18:18:14 10.8 C 33 % -4.81 C
2012 04-03-2009 18:30:14 10.3 C 35 % -4.47 C
2013 04-03-2009 18:42:15 9.7 C 39 % -3.57 C
2014 04-03-2009 18:54:14 9 C 42 % -3.21 C
2015 04-03-2009 19:06:14 8.9 C 43 % -2.98 C
2016 04-03-2009 19:18:13 8.7 C 45 % -2.55 C
2017 04-03-2009 19:30:14 8.8 C 43 % -3.07 C
2018 04-03-2009 19:42:14 8.6 C 45 % -2.64 C
2019 04-03-2009 19:54:13 8.9 C 44 % -2.67 C
2020 04-03-2009 20:06:13 8.9 C 45 % -2.37 C
2021 04-03-2009 20:18:14 9 C 45 % -2.28 C
2022 04-03-2009 20:30:13 9 C 46 % -1.98 C
2023 04-03-2009 20:42:13 8.9 C 48 % -1.5 C
2024 04-03-2009 20:54:13 8.8 C 49 % -1.31 C
2025 04-03-2009 21:06:13 8.6 C 51 % -0.95 C
Sensor: Nr:Datum:Temp:Feuchte:Taupunkt:
Aussen-T/F 2026 04-03-2009 21:18:13 8.5 C 52 % -0.78 C
2027 04-03-2009 21:30:13 8.4 C 52 % -0.87 C
2028 04-03-2009 21:42:13 8.4 C 51 % -1.13 C
2029 04-03-2009 21:54:13 8.5 C 51 % -1.04 C
2030 04-03-2009 22:06:12 8.5 C 50 % -1.31 C
2031 04-03-2009 22:19:15 8.6 C 50 % -1.22 C
2032 04-03-2009 22:31:15 8.4 C 51 % -1.13 C
2033 04-03-2009 22:43:15 8.7 C 48 % -1.68 C
2034 04-03-2009 22:55:15 8.7 C 50 % -1.13 C
2035 04-03-2009 23:07:15 8.6 C 50 % -1.22 C
2036 04-03-2009 23:19:15 8.4 C 51 % -1.13 C
2037 04-03-2009 23:31:15 8.3 C 52 % -0.96 C
2038 04-03-2009 23:43:15 8.1 C 53 % -0.89 C
2039 04-03-2009 23:55:15 8 C 55 % -0.47 C
2040 05-03-2009 00:07:15 7.9 C 56 % -0.32 C
2041 05-03-2009 00:19:15 7.9 C 57 % -0.08 C
2042 05-03-2009 00:31:15 7.8 C 60 % 0.53 C
2043 05-03-2009 00:43:15 7.6 C 62 % 0.8 C
2044 05-03-2009 00:55:15 7.5 C 64 % 1.14 C
2045 05-03-2009 01:07:15 7.6 C 63 % 1.02 C
2046 05-03-2009 01:19:15 7.6 C 62 % 0.8 C
2047 05-03-2009 01:31:16 7.6 C 61 % 0.57 C
2048 05-03-2009 01:43:16 7.6 C 61 % 0.57 C
2049 05-03-2009 01:55:16 7.6 C 61 % 0.57 C
2050 05-03-2009 02:07:16 7.6 C 61 % 0.57 C
Sensor: Nr:Datum:Temp:Feuchte:Taupunkt:
Aussen-T/F 2051 05-03-2009 02:19:16 7.6 C 61 % 0.57 C
2052 05-03-2009 02:31:16 7.6 C 61 % 0.57 C
2053 05-03-2009 02:43:16 7.6 C 61 % 0.57 C
2054 05-03-2009 02:55:16 7.5 C 62 % 0.7 C
2055 05-03-2009 03:07:16 7.5 C 61 % 0.48 C
2056 05-03-2009 03:19:16 7.6 C 61 % 0.57 C
2057 05-03-2009 03:31:16 7.6 C 61 % 0.57 C
2058 05-03-2009 03:43:16 7.5 C 61 % 0.48 C
2059 05-03-2009 03:55:16 7.4 C 62 % 0.61 C
2060 05-03-2009 04:07:16 7.3 C 63 % 0.74 C
2061 05-03-2009 04:19:16 7.1 C 65 % 0.98 C
2062 05-03-2009 04:31:16 7.1 C 66 % 1.19 C
2063 05-03-2009 04:43:16 7 C 66 % 1.09 C
2064 05-03-2009 04:55:16 6.7 C 69 % 1.43 C
2065 05-03-2009 05:07:16 6.4 C 71 % 1.54 C
2066 05-03-2009 05:19:16 6.1 C 73 % 1.63 C
2067 05-03-2009 05:31:17 6 C 74 % 1.73 C
2068 05-03-2009 05:43:17 5.7 C 77 % 1.99 C
2069 05-03-2009 05:55:17 5.5 C 80 % 2.33 C
2070 05-03-2009 06:07:17 5.4 C 81 % 2.41 C
2071 05-03-2009 06:19:17 5.2 C 81 % 2.21 C
2072 05-03-2009 06:31:17 5.1 C 81 % 2.12 C
2073 05-03-2009 06:43:17 5 C 82 % 2.19 C
2074 05-03-2009 06:55:17 4.9 C 84 % 2.43 C
2075 05-03-2009 07:07:14 4.9 C 85 % 2.6 C
Sensor: Nr:Datum:Temp:Feuchte:Taupunkt:
Aussen-T/F 2076 05-03-2009 07:19:14 4.8 C 85 % 2.5 C
2077 05-03-2009 07:31:14 4.7 C 86 % 2.56 C
2078 05-03-2009 07:43:14 4.7 C 86 % 2.56 C
2079 05-03-2009 07:55:14 4.6 C 86 % 2.47 C
2080 05-03-2009 08:07:13 4.6 C 86 % 2.47 C
2081 05-03-2009 08:19:14 4.4 C 86 % 2.27 C
2082 05-03-2009 08:31:14 4.2 C 85 % 1.91 C
2083 05-03-2009 08:43:14 3.9 C 85 % 1.61 C
2084 05-03-2009 08:55:13 3.6 C 85 % 1.32 C
2085 05-03-2009 09:07:14 3.4 C 85 % 1.12 C
2086 05-03-2009 09:19:13 3.4 C 85 % 1.12 C
2087 05-03-2009 09:31:13 3.5 C 86 % 1.38 C
2088 05-03-2009 09:43:13 3.2 C 86 % 1.09 C
2089 05-03-2009 09:55:13 3.2 C 86 % 1.09 C
2090 05-03-2009 10:07:13 3.1 C 86 % 0.99 C
2091 05-03-2009 10:19:12 3 C 86 % 0.89 C
2092 05-03-2009 10:31:12 3.1 C 86 % 0.99 C
2093 05-03-2009 10:43:12 3.1 C 87 % 1.15 C
2094 05-03-2009 10:55:12 2.7 C 87 % 0.76 C
2095 05-03-2009 11:07:12 2.7 C 87 % 0.76 C
2096 05-03-2009 11:19:12 2.6 C 87 % 0.66 C
2097 05-03-2009 11:31:12 2.6 C 87 % 0.66 C
2098 05-03-2009 11:43:12 2.5 C 87 % 0.56 C
2099 05-03-2009 11:55:12 2.6 C 87 % 0.66 C
2100 05-03-2009 12:07:11 2.6 C 88 % 0.82 C
Sensor: Nr:Datum:Temp:Feuchte:Taupunkt:
Aussen-T/F 2101 05-03-2009 12:19:12 2.8 C 88 % 1.02 C
2102 05-03-2009 12:31:11 2.6 C 88 % 0.82 C
2103 05-03-2009 12:43:11 2.8 C 88 % 1.02 C
2104 05-03-2009 12:55:11 3.1 C 88 % 1.31 C
2105 05-03-2009 13:07:11 2.9 C 88 % 1.11 C
2106 05-03-2009 13:19:11 2.9 C 88 % 1.11 C
2107 05-03-2009 13:31:11 2.9 C 88 % 1.11 C
2108 05-03-2009 13:43:11 3 C 87 % 1.05 C
2109 05-03-2009 13:55:10 3 C 87 % 1.05 C
2110 05-03-2009 14:07:11 3 C 87 % 1.05 C
2111 05-03-2009 14:19:10 2.9 C 88 % 1.11 C
2112 05-03-2009 14:31:10 3 C 88 % 1.21 C
2113 05-03-2009 14:43:10 3 C 88 % 1.21 C
2114 05-03-2009 14:55:10 3.1 C 88 % 1.31 C
2115 05-03-2009 15:07:10 3 C 88 % 1.21 C
2116 05-03-2009 15:19:10 3.1 C 88 % 1.31 C
2117 05-03-2009 15:31:09 3 C 88 % 1.21 C
2118 05-03-2009 15:43:09 3.1 C 88 % 1.31 C
2119 05-03-2009 15:55:09 3.2 C 89 % 1.57 C
2120 05-03-2009 16:07:09 3.3 C 89 % 1.67 C
2121 05-03-2009 16:19:10 3.2 C 89 % 1.57 C
2122 05-03-2009 16:31:09 3.3 C 89 % 1.67 C
2123 05-03-2009 16:43:09 3.4 C 89 % 1.76 C
2124 05-03-2009 16:55:09 3.5 C 89 % 1.86 C
2125 05-03-2009 17:07:08 3.6 C 89 % 1.96 C
Sensor: Nr:Datum:Temp:Feuchte:Taupunkt:
Aussen-T/F 2126 05-03-2009 17:19:09 3.6 C 89 % 1.96 C
2127 05-03-2009 17:31:09 3.6 C 89 % 1.96 C
2128 05-03-2009 17:43:09 3.7 C 89 % 2.06 C
2129 05-03-2009 17:55:08 3.7 C 89 % 2.06 C
2130 05-03-2009 18:07:08 4 C 87 % 2.04 C
2131 05-03-2009 18:19:09 4 C 87 % 2.04 C
2132 05-03-2009 18:31:08 4 C 87 % 2.04 C
2133 05-03-2009 18:43:08 3.9 C 88 % 2.1 C
2134 05-03-2009 18:55:08 4 C 88 % 2.2 C
2135 05-03-2009 19:07:08 4 C 88 % 2.2 C
2136 05-03-2009 19:19:07 4 C 89 % 2.36 C
2137 05-03-2009 19:31:08 4 C 89 % 2.36 C
2138 05-03-2009 19:43:08 3.8 C 90 % 2.31 C
2139 05-03-2009 19:55:07 3.8 C 90 % 2.31 C
2140 05-03-2009 20:07:07 3.7 C 90 % 2.22 C
2141 05-03-2009 20:19:07 3.7 C 89 % 2.06 C
2142 05-03-2009 20:31:07 3.6 C 89 % 1.96 C
2143 05-03-2009 20:43:07 3.6 C 90 % 2.12 C
2144 05-03-2009 20:55:06 3.6 C 90 % 2.12 C
2145 05-03-2009 21:07:07 3.5 C 90 % 2.02 C
2146 05-03-2009 21:19:06 3.5 C 90 % 2.02 C
2147 05-03-2009 21:31:06 3.5 C 90 % 2.02 C
2148 05-03-2009 21:43:07 3.4 C 90 % 1.92 C
2149 05-03-2009 21:55:06 3.4 C 91 % 2.07 C
2150 05-03-2009 22:07:06 3.4 C 91 % 2.07 C
Sensor: Nr:Datum:Temp:Feuchte:Taupunkt:
Aussen-T/F 2151 05-03-2009 22:19:05 3.4 C 91 % 2.07 C
2152 05-03-2009 22:32:06 3.3 C 90 % 1.82 C
2153 05-03-2009 22:44:06 3.2 C 90 % 1.72 C
2154 05-03-2009 22:56:07 3.1 C 90 % 1.62 C
2155 05-03-2009 23:08:07 3 C 90 % 1.52 C
2156 05-03-2009 23:20:07 3 C 90 % 1.52 C
2157 05-03-2009 23:32:07 2.8 C 90 % 1.33 C
2158 05-03-2009 23:44:07 2.8 C 90 % 1.33 C
2159 05-03-2009 23:56:07 2.8 C 90 % 1.33 C
2160 06-03-2009 00:08:07 2.9 C 91 % 1.58 C
2161 06-03-2009 00:20:07 3 C 90 % 1.52 C
2162 06-03-2009 00:32:07 3 C 90 % 1.52 C
2163 06-03-2009 00:44:07 3 C 90 % 1.52 C
2164 06-03-2009 00:56:07 3 C 91 % 1.68 C
2165 06-03-2009 01:08:07 3.1 C 91 % 1.78 C
2166 06-03-2009 01:20:07 3.1 C 91 % 1.78 C
2167 06-03-2009 01:32:07 3.2 C 91 % 1.88 C
2168 06-03-2009 01:44:07 3.2 C 91 % 1.88 C
2169 06-03-2009 01:56:07 3.2 C 91 % 1.88 C
2170 06-03-2009 02:08:07 3.2 C 91 % 1.88 C
2171 06-03-2009 02:20:07 3.3 C 91 % 1.98 C
2172 06-03-2009 02:32:07 3.3 C 91 % 1.98 C
2173 06-03-2009 02:44:07 3.3 C 91 % 1.98 C
2174 06-03-2009 02:56:08 3.4 C 91 % 2.07 C
2175 06-03-2009 03:08:08 3.4 C 91 % 2.07 C
Sensor: Nr:Datum:Temp:Feuchte:Taupunkt:
Aussen-T/F 2176 06-03-2009 03:20:08 3.4 C 91 % 2.07 C
2177 06-03-2009 03:32:08 3.4 C 91 % 2.07 C
2178 06-03-2009 03:44:08 3.5 C 91 % 2.17 C
2179 06-03-2009 03:56:08 3.5 C 91 % 2.17 C
2180 06-03-2009 04:08:08 3.5 C 91 % 2.17 C
2181 06-03-2009 04:20:08 3.4 C 91 % 2.07 C
2182 06-03-2009 04:32:08 3.4 C 91 % 2.07 C
2183 06-03-2009 04:44:08 3.3 C 90 % 1.82 C
2184 06-03-2009 04:56:08 3.3 C 90 % 1.82 C
2185 06-03-2009 05:08:08 3.3 C 90 % 1.82 C
2186 06-03-2009 05:20:08 3.3 C 91 % 1.98 C
2187 06-03-2009 05:32:08 3.3 C 91 % 1.98 C
2188 06-03-2009 05:44:08 3.3 C 91 % 1.98 C
2189 06-03-2009 05:56:08 3.4 C 92 % 2.23 C
2190 06-03-2009 06:08:08 3.5 C 92 % 2.33 C
2191 06-03-2009 06:20:08 3.6 C 92 % 2.42 C
2192 06-03-2009 06:32:08 3.5 C 92 % 2.33 C
2193 06-03-2009 06:44:08 3.6 C 92 % 2.42 C
2194 06-03-2009 06:56:08 3.6 C 92 % 2.42 C
2195 06-03-2009 07:08:06 3.5 C 92 % 2.33 C
2196 06-03-2009 07:20:06 3.5 C 92 % 2.33 C
2197 06-03-2009 07:32:06 3.3 C 91 % 1.98 C
2198 06-03-2009 07:44:06 3.3 C 92 % 2.13 C
2199 06-03-2009 07:56:06 3.3 C 92 % 2.13 C
2200 06-03-2009 08:08:05 3.3 C 91 % 1.98 C
Sensor: Nr:Datum:Temp:Feuchte:Taupunkt:
Aussen-T/F 2201 06-03-2009 08:20:05 3.3 C 91 % 1.98 C
2202 06-03-2009 08:32:05 3.3 C 91 % 1.98 C
2203 06-03-2009 08:44:05 3.2 C 90 % 1.72 C
2204 06-03-2009 08:56:05 3.3 C 90 % 1.82 C
2205 06-03-2009 09:08:05 3.3 C 90 % 1.82 C
2206 06-03-2009 09:20:05 3.4 C 90 % 1.92 C
2207 06-03-2009 09:32:05 3.4 C 89 % 1.76 C
2208 06-03-2009 09:44:05 3.5 C 89 % 1.86 C
2209 06-03-2009 09:56:05 3.6 C 89 % 1.96 C
2210 06-03-2009 10:08:05 3.6 C 89 % 1.96 C
2211 06-03-2009 10:20:04 3.7 C 88 % 1.9 C
2212 06-03-2009 10:32:04 3.9 C 88 % 2.1 C
2213 06-03-2009 10:44:04 3.8 C 88 % 2 C
2214 06-03-2009 10:56:04 3.8 C 88 % 2 C
2215 06-03-2009 11:08:04 3.9 C 89 % 2.26 C
2216 06-03-2009 11:20:03 4 C 88 % 2.2 C
2217 06-03-2009 11:32:04 4.1 C 88 % 2.3 C
2218 06-03-2009 11:44:03 4.1 C 88 % 2.3 C
2219 06-03-2009 11:56:03 4.2 C 88 % 2.39 C
2220 06-03-2009 12:08:03 4.2 C 87 % 2.23 C
2221 06-03-2009 12:20:04 4.3 C 88 % 2.49 C
2222 06-03-2009 12:32:03 4.3 C 88 % 2.49 C
2223 06-03-2009 12:44:03 4.4 C 87 % 2.43 C
2224 06-03-2009 12:56:03 4.4 C 87 % 2.43 C
2225 06-03-2009 13:08:03 4.5 C 86 % 2.37 C
Sensor: Nr:Datum:Temp:Feuchte:Taupunkt:
Aussen-T/F 2226 06-03-2009 13:20:03 4.6 C 85 % 2.3 C
2227 06-03-2009 13:32:02 5 C 82 % 2.19 C
2228 06-03-2009 13:44:02 5 C 82 % 2.19 C
2229 06-03-2009 13:56:03 4.8 C 83 % 2.16 C
2230 06-03-2009 14:08:02 4.7 C 84 % 2.23 C
2231 06-03-2009 14:20:02 4.7 C 84 % 2.23 C
2232 06-03-2009 14:32:02 4.8 C 83 % 2.16 C
2233 06-03-2009 14:44:02 4.9 C 82 % 2.09 C
2234 06-03-2009 14:56:02 4.9 C 83 % 2.26 C
2235 06-03-2009 15:08:02 4.8 C 82 % 1.99 C
2236 06-03-2009 15:20:01 4.8 C 82 % 1.99 C
2237 06-03-2009 15:32:01 4.9 C 82 % 2.09 C
2238 06-03-2009 15:44:01 4.9 C 82 % 2.09 C
2239 06-03-2009 15:56:01 4.7 C 82 % 1.9 C
2240 06-03-2009 16:08:01 4.7 C 82 % 1.9 C
2241 06-03-2009 16:20:00 4.6 C 82 % 1.8 C
2242 06-03-2009 16:32:01 4.6 C 82 % 1.8 C
2243 06-03-2009 16:44:00 4.5 C 83 % 1.87 C
2244 06-03-2009 16:56:00 4.4 C 84 % 1.94 C
2245 06-03-2009 17:08:00 4.4 C 84 % 1.94 C
2246 06-03-2009 17:20:01 4.3 C 84 % 1.84 C
2247 06-03-2009 17:32:00 4.2 C 83 % 1.58 C
2248 06-03-2009 17:44:00 4.2 C 83 % 1.58 C
2249 06-03-2009 17:56:00 4.2 C 84 % 1.74 C
2250 06-03-2009 18:08:00 4.2 C 83 % 1.58 C
Sensor: Nr:Datum:Temp:Feuchte:Taupunkt:
Aussen-T/F 2251 06-03-2009 18:20:00 4.1 C 82 % 1.31 C
2252 06-03-2009 18:32:00 4 C 83 % 1.38 C
2253 06-03-2009 18:44:00 4 C 84 % 1.55 C
2254 06-03-2009 18:56:00 3.9 C 85 % 1.61 C
2255 06-03-2009 19:08:00 3.9 C 84 % 1.45 C
2256 06-03-2009 19:20:59 4 C 82 % 1.21 C
2257 06-03-2009 19:32:59 4 C 82 % 1.21 C
2258 06-03-2009 19:44:59 4 C 83 % 1.38 C
2259 06-03-2009 19:56:59 3.9 C 84 % 1.45 C
2260 06-03-2009 20:08:59 3.8 C 84 % 1.35 C
2261 06-03-2009 20:20:58 3.8 C 84 % 1.35 C
2262 06-03-2009 20:32:59 3.8 C 83 % 1.19 C
2263 06-03-2009 20:44:58 4 C 80 % 0.87 C
2264 06-03-2009 20:56:58 3.9 C 81 % 0.95 C
2265 06-03-2009 21:08:59 3.8 C 80 % 0.68 C
2266 06-03-2009 21:20:58 3.7 C 78 % 0.23 C
2267 06-03-2009 21:32:58 3.7 C 76 % -0.13 C
2268 06-03-2009 21:44:58 3.8 C 72 % -0.77 C
2269 06-03-2009 21:56:58 3.8 C 70 % -1.16 C
2270 06-03-2009 22:08:58 3.8 C 68 % -1.55 C
2271 06-03-2009 22:21:57 3.7 C 68 % -1.64 C
2272 06-03-2009 22:33:57 3.8 C 67 % -1.75 C
2273 06-03-2009 22:45:57 3.8 C 68 % -1.55 C
2274 06-03-2009 22:57:57 3.8 C 67 % -1.75 C
2275 06-03-2009 23:09:57 3.8 C 66 % -1.95 C
Sensor: Nr:Datum:Temp:Feuchte:Taupunkt:
Aussen-T/F 2276 06-03-2009 23:21:57 3.7 C 66 % -2.05 C
2277 06-03-2009 23:33:57 3.8 C 65 % -2.16 C
2278 06-03-2009 23:45:57 3.8 C 65 % -2.16 C
2279 06-03-2009 23:57:57 3.8 C 64 % -2.37 C
2280 07-03-2009 00:09:58 3.7 C 64 % -2.46 C
2281 07-03-2009 00:21:58 3.8 C 62 % -2.8 C
2282 07-03-2009 00:33:58 3.8 C 61 % -3.01 C
2283 07-03-2009 00:45:58 3.8 C 60 % -3.23 C
2284 07-03-2009 00:57:58 3.7 C 61 % -3.11 C
2285 07-03-2009 01:09:58 3.6 C 63 % -2.77 C
2286 07-03-2009 01:21:58 3.6 C 62 % -2.98 C
2287 07-03-2009 01:33:58 3.6 C 62 % -2.98 C
2288 07-03-2009 01:45:58 3.5 C 62 % -3.08 C
2289 07-03-2009 01:57:58 3.4 C 63 % -2.96 C
2290 07-03-2009 02:09:58 3.4 C 63 % -2.96 C
2291 07-03-2009 02:21:58 3.4 C 63 % -2.96 C
2292 07-03-2009 02:33:58 3.3 C 63 % -3.05 C
2293 07-03-2009 02:45:58 3.3 C 64 % -2.84 C
2294 07-03-2009 02:57:58 3.2 C 64 % -2.94 C
2295 07-03-2009 03:09:58 3.1 C 65 % -2.83 C
2296 07-03-2009 03:21:58 3.2 C 64 % -2.94 C
2297 07-03-2009 03:33:58 3.2 C 64 % -2.94 C
2298 07-03-2009 03:45:58 3.2 C 64 % -2.94 C
2299 07-03-2009 03:57:58 3.2 C 64 % -2.94 C
2300 07-03-2009 04:09:59 3.2 C 64 % -2.94 C
Sensor: Nr:Datum:Temp:Feuchte:Taupunkt:
Aussen-T/F 2301 07-03-2009 04:21:59 3.2 C 64 % -2.94 C
2302 07-03-2009 04:33:59 3.1 C 64 % -3.03 C
2303 07-03-2009 04:45:59 3.1 C 64 % -3.03 C
2304 07-03-2009 04:57:59 3.2 C 63 % -3.15 C
2305 07-03-2009 05:09:59 3.2 C 63 % -3.15 C
2306 07-03-2009 05:21:59 3.2 C 62 % -3.36 C
2307 07-03-2009 05:33:59 3.1 C 63 % -3.24 C
2308 07-03-2009 05:45:59 3 C 63 % -3.34 C
2309 07-03-2009 05:57:59 3 C 62 % -3.55 C
2310 07-03-2009 06:09:59 3 C 61 % -3.77 C
2311 07-03-2009 06:21:58 3 C 60 % -3.99 C
2312 07-03-2009 06:33:57 3 C 61 % -3.77 C
2313 07-03-2009 06:45:57 3 C 61 % -3.77 C
2314 07-03-2009 06:57:57 3 C 61 % -3.77 C
2315 07-03-2009 07:09:57 2.9 C 62 % -3.65 C
2316 07-03-2009 07:21:57 2.9 C 63 % -3.43 C
2317 07-03-2009 07:33:57 2.7 C 64 % -3.41 C
2318 07-03-2009 07:45:57 2.6 C 65 % -3.3 C
2319 07-03-2009 07:57:57 2.7 C 65 % -3.21 C
2320 07-03-2009 08:09:57 2.7 C 64 % -3.41 C
2321 07-03-2009 08:21:56 2.7 C 64 % -3.41 C
2322 07-03-2009 08:33:56 2.6 C 63 % -3.72 C
2323 07-03-2009 08:45:56 2.6 C 63 % -3.72 C
2324 07-03-2009 08:57:56 2.7 C 63 % -3.62 C
2325 07-03-2009 09:09:56 2.7 C 63 % -3.62 C
Sensor: Nr:Datum:Temp:Feuchte:Taupunkt:
Aussen-T/F 2326 07-03-2009 09:21:56 3 C 62 % -3.55 C
2327 07-03-2009 09:33:56 3.3 C 61 % -3.49 C
2328 07-03-2009 09:45:56 3.2 C 60 % -3.8 C
2329 07-03-2009 09:57:56 3.1 C 62 % -3.46 C
2330 07-03-2009 10:09:56 3.2 C 63 % -3.15 C
2331 07-03-2009 10:21:55 3.5 C 63 % -2.86 C
2332 07-03-2009 10:33:55 3.9 C 61 % -2.92 C
2333 07-03-2009 10:45:55 4.5 C 60 % -2.57 C
2334 07-03-2009 10:57:55 5 C 57 % -2.79 C
2335 07-03-2009 11:09:55 5.1 C 58 % -2.47 C
2336 07-03-2009 11:21:54 5.9 C 55 % -2.43 C
2337 07-03-2009 11:33:55 6.6 C 51 % -2.8 C
2338 07-03-2009 11:45:54 7.2 C 48 % -3.06 C
2339 07-03-2009 11:57:54 7.4 C 49 % -2.6 C
2340 07-03-2009 12:09:54 7.5 C 47 % -3.06 C
2341 07-03-2009 12:21:55 7.6 C 45 % -3.55 C
2342 07-03-2009 12:33:54 7.8 C 44 % -3.67 C
2343 07-03-2009 12:45:54 8.2 C 41 % -4.25 C
2344 07-03-2009 12:57:54 7.9 C 41 % -4.52 C
2345 07-03-2009 13:09:54 8.5 C 38 % -4.98 C
2346 07-03-2009 13:21:54 8.4 C 38 % -5.07 C
2347 07-03-2009 13:33:54 9 C 37 % -4.89 C
2348 07-03-2009 13:45:53 8.5 C 36 % -5.69 C
2349 07-03-2009 13:57:53 9.4 C 36 % -4.89 C
2350 07-03-2009 14:09:54 10 C 32 % -5.91 C
Sensor: Nr:Datum:Temp:Feuchte:Taupunkt:
Aussen-T/F 2351 07-03-2009 14:21:53 10.8 C 31 % -5.63 C
2352 07-03-2009 14:33:53 11.3 C 29 % -6.06 C
2353 07-03-2009 14:45:53 11.4 C 27 % -6.91 C
2354 07-03-2009 14:57:53 11.3 C 28 % -6.52 C
2355 07-03-2009 15:09:53 11.8 C 26 % -7.05 C
2356 07-03-2009 15:21:52 11.9 C 25 % -7.47 C
2357 07-03-2009 15:33:52 11 C 32 % -5.04 C
2358 07-03-2009 15:45:52 10.8 C 34 % -4.41 C
2359 07-03-2009 15:57:52 11 C 30 % -5.88 C
2360 07-03-2009 16:09:52 10.7 C 28 % -7.04 C
2361 07-03-2009 16:21:52 10.2 C 30 % -6.58 C
2362 07-03-2009 16:33:52 10.4 C 30 % -6.4 C
2363 07-03-2009 16:45:52 10.6 C 28 % -7.12 C
2364 07-03-2009 16:57:52 10.4 C 27 % -7.77 C
2365 07-03-2009 17:09:51 9.6 C 39 % -3.65 C
2366 07-03-2009 17:21:52 9.2 C 42 % -3.02 C
2367 07-03-2009 17:33:51 8.7 C 45 % -2.55 C
2368 07-03-2009 17:45:51 8.4 C 47 % -2.24 C
2369 07-03-2009 17:57:51 8 C 49 % -2.05 C
2370 07-03-2009 18:09:51 7.8 C 50 % -1.96 C
2371 07-03-2009 18:21:51 7.5 C 52 % -1.7 C
2372 07-03-2009 18:33:51 7.2 C 53 % -1.72 C
2373 07-03-2009 18:45:50 6.8 C 55 % -1.59 C
2374 07-03-2009 18:57:50 6.4 C 56 % -1.72 C
2375 07-03-2009 19:09:51 6.2 C 58 % -1.43 C
Sensor: Nr:Datum:Temp:Feuchte:Taupunkt:
Aussen-T/F 2376 07-03-2009 19:21:50 5.8 C 60 % -1.35 C
2377 07-03-2009 19:33:50 5.6 C 61 % -1.31 C
2378 07-03-2009 19:45:50 5.3 C 61 % -1.6 C
2379 07-03-2009 19:57:50 5.3 C 62 % -1.38 C
2380 07-03-2009 20:09:50 5.2 C 62 % -1.47 C
2381 07-03-2009 20:21:49 5.6 C 62 % -1.09 C
2382 07-03-2009 20:33:50 6 C 59 % -1.39 C
2383 07-03-2009 20:45:50 6 C 58 % -1.62 C
2384 07-03-2009 20:57:50 5.9 C 59 % -1.48 C
2385 07-03-2009 21:09:50 5.9 C 59 % -1.48 C
2386 07-03-2009 21:21:49 5.9 C 59 % -1.48 C
2387 07-03-2009 21:33:49 6 C 57 % -1.86 C
2388 07-03-2009 21:45:49 6.1 C 56 % -2 C
2389 07-03-2009 21:57:49 6.2 C 55 % -2.15 C
2390 07-03-2009 22:09:49 6.4 C 55 % -1.97 C
2391 07-03-2009 22:21:48 6.2 C 55 % -2.15 C
2392 07-03-2009 22:33:49 6.4 C 55 % -1.97 C
2393 07-03-2009 22:46:50 6.4 C 56 % -1.72 C
2394 07-03-2009 22:58:50 6.2 C 57 % -1.67 C
2395 07-03-2009 23:10:50 6.3 C 57 % -1.58 C
2396 07-03-2009 23:22:50 6.3 C 58 % -1.34 C
2397 07-03-2009 23:34:50 6.5 C 55 % -1.87 C
2398 07-03-2009 23:46:50 6.5 C 56 % -1.63 C
2399 07-03-2009 23:58:50 6.4 C 57 % -1.48 C
2400 08-03-2009 00:10:50 6.3 C 57 % -1.58 C
Sensor: Nr:Datum:Temp:Feuchte:Taupunkt:
Aussen-T/F 2401 08-03-2009 00:22:50 6.4 C 57 % -1.48 C
2402 08-03-2009 00:34:50 6.3 C 57 % -1.58 C
2403 08-03-2009 00:46:50 6.3 C 58 % -1.34 C
2404 08-03-2009 00:58:51 6.1 C 59 % -1.3 C
2405 08-03-2009 01:10:51 5.9 C 61 % -1.03 C
2406 08-03-2009 01:22:51 6.1 C 60 % -1.07 C
2407 08-03-2009 01:34:51 6.3 C 60 % -0.88 C
2408 08-03-2009 01:46:51 6.3 C 60 % -0.88 C
2409 08-03-2009 01:58:51 6.5 C 58 % -1.15 C
2410 08-03-2009 02:10:51 6.4 C 59 % -1.01 C
2411 08-03-2009 02:22:51 6.4 C 59 % -1.01 C
2412 08-03-2009 02:34:51 6.4 C 59 % -1.01 C
2413 08-03-2009 02:46:51 6.5 C 61 % -0.46 C
2414 08-03-2009 02:58:51 6.7 C 61 % -0.28 C
2415 08-03-2009 03:10:51 6.6 C 61 % -0.37 C
2416 08-03-2009 03:22:51 6.6 C 62 % -0.15 C
2417 08-03-2009 03:34:51 6.7 C 62 % -0.05 C
2418 08-03-2009 03:46:51 6.9 C 62 % 0.14 C
2419 08-03-2009 03:58:51 7 C 60 % -0.22 C
2420 08-03-2009 04:10:51 7.1 C 61 % 0.1 C
2421 08-03-2009 04:22:51 7.1 C 61 % 0.1 C
2422 08-03-2009 04:34:51 7.1 C 61 % 0.1 C
2423 08-03-2009 04:46:52 7.2 C 61 % 0.2 C
2424 08-03-2009 04:58:52 7.2 C 61 % 0.2 C
2425 08-03-2009 05:10:52 7.2 C 60 % -0.03 C
Sensor: Nr:Datum:Temp:Feuchte:Taupunkt:
Aussen-T/F 2426 08-03-2009 05:22:52 7.3 C 60 % 0.06 C
2427 08-03-2009 05:34:52 7.2 C 60 % -0.03 C
2428 08-03-2009 05:46:52 7.3 C 60 % 0.06 C
2429 08-03-2009 05:58:52 7.3 C 60 % 0.06 C
2430 08-03-2009 06:10:52 7.2 C 61 % 0.2 C
2431 08-03-2009 06:22:52 7.2 C 60 % -0.03 C
2432 08-03-2009 06:34:52 7.3 C 61 % 0.29 C
2433 08-03-2009 06:46:52 7.3 C 61 % 0.29 C
2434 08-03-2009 06:58:52 7.3 C 62 % 0.51 C
2435 08-03-2009 07:10:52 7.3 C 62 % 0.51 C
2436 08-03-2009 07:22:52 7.3 C 63 % 0.74 C
2437 08-03-2009 07:34:52 7.3 C 63 % 0.74 C
2438 08-03-2009 07:46:49 7.3 C 64 % 0.95 C
2439 08-03-2009 07:58:49 7.4 C 65 % 1.26 C
2440 08-03-2009 08:10:50 7.5 C 65 % 1.36 C
2441 08-03-2009 08:22:50 7.8 C 65 % 1.64 C
2442 08-03-2009 08:34:49 8 C 63 % 1.4 C
2443 08-03-2009 08:46:49 8.1 C 62 % 1.27 C
2444 08-03-2009 08:58:49 8 C 63 % 1.4 C
2445 08-03-2009 09:10:49 8 C 63 % 1.4 C
2446 08-03-2009 09:22:49 8.2 C 63 % 1.59 C
2447 08-03-2009 09:34:48 8.2 C 63 % 1.59 C
2448 08-03-2009 09:46:49 8.2 C 63 % 1.59 C
2449 08-03-2009 09:58:49 8.2 C 63 % 1.59 C
2450 08-03-2009 10:10:48 8.3 C 63 % 1.68 C
Sensor: Nr:Datum:Temp:Feuchte:Taupunkt:
Aussen-T/F 2451 08-03-2009 10:22:48 8.3 C 63 % 1.68 C
2452 08-03-2009 10:34:48 8.3 C 64 % 1.9 C
2453 08-03-2009 10:46:48 8.5 C 64 % 2.09 C
2454 08-03-2009 10:58:48 8.5 C 65 % 2.31 C
2455 08-03-2009 11:10:47 8.5 C 66 % 2.52 C
2456 08-03-2009 11:22:48 8.5 C 66 % 2.52 C
2457 08-03-2009 11:34:48 8.7 C 66 % 2.71 C
2458 08-03-2009 11:46:47 8.6 C 66 % 2.62 C
2459 08-03-2009 11:58:47 8.6 C 67 % 2.83 C
2460 08-03-2009 12:10:48 8.8 C 67 % 3.02 C
2461 08-03-2009 12:22:47 9.1 C 64 % 2.66 C
2462 08-03-2009 12:34:47 9.3 C 63 % 2.63 C
2463 08-03-2009 12:46:46 9.3 C 62 % 2.4 C
2464 08-03-2009 12:58:46 9.1 C 65 % 2.88 C
2465 08-03-2009 13:10:47 8.9 C 70 % 3.74 C
2466 08-03-2009 13:22:46 8.7 C 73 % 4.14 C
2467 08-03-2009 13:34:46 8.9 C 74 % 4.53 C
2468 08-03-2009 13:46:47 9.6 C 69 % 4.2 C
2469 08-03-2009 13:58:47 10.2 C 64 % 3.7 C
2470 08-03-2009 14:10:46 10.2 C 63 % 3.48 C
2471 08-03-2009 14:22:46 10.1 C 63 % 3.39 C
2472 08-03-2009 14:34:46 10.4 C 62 % 3.44 C
2473 08-03-2009 14:46:46 10.5 C 61 % 3.31 C
2474 08-03-2009 14:58:46 10.3 C 62 % 3.35 C
2475 08-03-2009 15:10:45 10.2 C 62 % 3.25 C
Sensor: Nr:Datum:Temp:Feuchte:Taupunkt:
Aussen-T/F 2476 08-03-2009 15:22:46 9.9 C 66 % 3.86 C
2477 08-03-2009 15:34:45 9.7 C 69 % 4.3 C
2478 08-03-2009 15:46:45 10.1 C 66 % 4.05 C
2479 08-03-2009 15:58:45 9.8 C 68 % 4.18 C
2480 08-03-2009 16:10:45 9.3 C 73 % 4.72 C
2481 08-03-2009 16:22:45 9 C 78 % 5.38 C
2482 08-03-2009 16:34:45 8.7 C 82 % 5.8 C
2483 08-03-2009 16:46:44 8.5 C 81 % 5.43 C
2484 08-03-2009 16:58:44 8.5 C 81 % 5.43 C
2485 08-03-2009 17:10:45 8.5 C 80 % 5.25 C
2486 08-03-2009 17:22:44 8.4 C 81 % 5.33 C
2487 08-03-2009 17:34:45 8.3 C 82 % 5.41 C
2488 08-03-2009 17:46:44 8.4 C 83 % 5.69 C
2489 08-03-2009 17:58:44 8.3 C 84 % 5.76 C
2490 08-03-2009 18:10:44 8.2 C 84 % 5.66 C
2491 08-03-2009 18:22:44 8.1 C 84 % 5.56 C
2492 08-03-2009 18:34:44 8.1 C 85 % 5.73 C
2493 08-03-2009 18:46:43 8.2 C 77 % 4.42 C
2494 08-03-2009 18:58:43 8.1 C 75 % 3.94 C
2495 08-03-2009 19:10:44 8.1 C 76 % 4.13 C
2496 08-03-2009 19:22:43 7.7 C 77 % 3.93 C
2497 08-03-2009 19:34:43 7.1 C 79 % 3.71 C
2498 08-03-2009 19:46:43 6.9 C 82 % 4.05 C
2499 08-03-2009 19:58:43 7 C 83 % 4.32 C
2500 08-03-2009 20:10:43 6.9 C 84 % 4.39 C
Sensor: Nr:Datum:Temp:Feuchte:Taupunkt:
Aussen-T/F 2501 08-03-2009 20:22:43 6.9 C 85 % 4.56 C
2502 08-03-2009 20:34:42 6.6 C 84 % 4.1 C
2503 08-03-2009 20:46:43 6.2 C 83 % 3.53 C
2504 08-03-2009 20:58:43 5.8 C 84 % 3.31 C
2505 08-03-2009 21:10:43 5.4 C 84 % 2.92 C
2506 08-03-2009 21:22:42 5.2 C 84 % 2.72 C
2507 08-03-2009 21:34:42 5.1 C 84 % 2.63 C
2508 08-03-2009 21:46:42 5.1 C 84 % 2.63 C
2509 08-03-2009 21:58:42 5 C 84 % 2.53 C
2510 08-03-2009 22:10:42 4.8 C 84 % 2.33 C
2511 08-03-2009 22:22:41 4.7 C 84 % 2.23 C
2512 08-03-2009 22:34:41 4.6 C 84 % 2.14 C
2513 08-03-2009 22:46:41 4.8 C 82 % 1.99 C
2514 08-03-2009 22:58:41 5.3 C 71 % 0.48 C
2515 08-03-2009 23:10:41 5.3 C 68 % -0.12 C
2516 08-03-2009 23:23:43 4.7 C 72 % 0.09 C
2517 08-03-2009 23:35:43 4.6 C 73 % 0.19 C
2518 08-03-2009 23:47:43 4.5 C 73 % 0.09 C
2519 08-03-2009 23:59:43 4.4 C 73 % 0 C
2520 09-03-2009 00:11:43 4.4 C 74 % 0.18 C
2521 09-03-2009 00:23:43 4.8 C 74 % 0.57 C
2522 09-03-2009 00:35:43 5.1 C 70 % 0.09 C
2523 09-03-2009 00:47:43 5 C 69 % -0.2 C
2524 09-03-2009 00:59:43 5 C 69 % -0.2 C
2525 09-03-2009 01:11:43 4.7 C 71 % -0.1 C
Sensor: Nr:Datum:Temp:Feuchte:Taupunkt:
Aussen-T/F 2526 09-03-2009 01:23:43 4.7 C 63 % -1.73 C
2527 09-03-2009 01:35:43 4.7 C 67 % -0.89 C
2528 09-03-2009 01:47:43 4.7 C 67 % -0.89 C
2529 09-03-2009 01:59:44 4.7 C 61 % -2.16 C
2530 09-03-2009 02:11:44 4.7 C 56 % -3.31 C
2531 09-03-2009 02:23:44 4.7 C 55 % -3.55 C
2532 09-03-2009 02:35:44 4.3 C 56 % -3.69 C
2533 09-03-2009 02:47:44 3.9 C 60 % -3.14 C
2534 09-03-2009 02:59:44 3.7 C 60 % -3.33 C
2535 09-03-2009 03:11:44 3.6 C 60 % -3.42 C
2536 09-03-2009 03:23:44 3.5 C 61 % -3.3 C
2537 09-03-2009 03:35:44 3.3 C 62 % -3.27 C
2538 09-03-2009 03:47:44 3.3 C 65 % -2.64 C
2539 09-03-2009 03:59:44 3.4 C 66 % -2.33 C
2540 09-03-2009 04:11:44 3.4 C 67 % -2.13 C
2541 09-03-2009 04:23:44 3.6 C 67 % -1.94 C
2542 09-03-2009 04:35:44 3.7 C 69 % -1.45 C
2543 09-03-2009 04:47:44 3.3 C 74 % -0.88 C
2544 09-03-2009 04:59:44 3.2 C 77 % -0.43 C
2545 09-03-2009 05:11:44 3.1 C 78 % -0.35 C
2546 09-03-2009 05:23:44 3.1 C 79 % -0.18 C
2547 09-03-2009 05:35:44 3 C 78 % -0.45 C
2548 09-03-2009 05:47:45 3.2 C 77 % -0.43 C
2549 09-03-2009 05:59:45 3.3 C 76 % -0.52 C
2550 09-03-2009 06:11:45 3.1 C 78 % -0.35 C
Sensor: Nr:Datum:Temp:Feuchte:Taupunkt:
Aussen-T/F 2551 09-03-2009 06:23:45 2.5 C 81 % -0.42 C
2552 09-03-2009 06:35:45 2.3 C 83 % -0.28 C
2553 09-03-2009 06:47:45 2.1 C 84 % -0.31 C
2554 09-03-2009 06:59:42 2.2 C 85 % -0.05 C
2555 09-03-2009 07:11:42 2.2 C 84 % -0.22 C
2556 09-03-2009 07:23:42 2.1 C 79 % -1.15 C
2557 09-03-2009 07:35:41 2.1 C 75 % -1.86 C
2558 09-03-2009 07:47:42 2 C 71 % -2.69 C
2559 09-03-2009 07:59:41 2.1 C 70 % -2.79 C
2560 09-03-2009 08:11:41 2.2 C 69 % -2.88 C
2561 09-03-2009 08:23:41 2.6 C 66 % -3.1 C
2562 09-03-2009 08:35:42 2.5 C 68 % -2.79 C
2563 09-03-2009 08:47:41 3 C 66 % -2.72 C
2564 09-03-2009 08:59:41 3.4 C 65 % -2.54 C
2565 09-03-2009 09:11:41 3.5 C 65 % -2.44 C
2566 09-03-2009 09:23:40 3.3 C 66 % -2.43 C
2567 09-03-2009 09:35:41 3.7 C 66 % -2.05 C
2568 09-03-2009 09:47:40 4.2 C 62 % -2.42 C
2569 09-03-2009 09:59:40 4.5 C 61 % -2.35 C
2570 09-03-2009 10:11:41 4.7 C 62 % -1.94 C
2571 09-03-2009 10:23:40 5.1 C 58 % -2.47 C
2572 09-03-2009 10:35:40 5.3 C 58 % -2.28 C
2573 09-03-2009 10:47:39 5.6 C 57 % -2.23 C
2574 09-03-2009 10:59:40 5.6 C 56 % -2.47 C
2575 09-03-2009 11:11:40 6 C 54 % -2.59 C
Sensor: Nr:Datum:Temp:Feuchte:Taupunkt:
Aussen-T/F 2576 09-03-2009 11:23:40 5.8 C 55 % -2.53 C
2577 09-03-2009 11:35:39 6.4 C 53 % -2.47 C
2578 09-03-2009 11:47:40 6.1 C 52 % -3 C
2579 09-03-2009 11:59:39 6.5 C 53 % -2.37 C
2580 09-03-2009 12:11:39 7.2 C 50 % -2.51 C
2581 09-03-2009 12:23:39 7 C 46 % -3.81 C
2582 09-03-2009 12:35:38 7 C 47 % -3.52 C
2583 09-03-2009 12:47:39 7.2 C 47 % -3.34 C
2584 09-03-2009 12:59:39 7.7 C 43 % -4.07 C
2585 09-03-2009 13:11:39 7.7 C 43 % -4.07 C
2586 09-03-2009 13:23:38 7.4 C 43 % -4.34 C
2587 09-03-2009 13:35:39 7.5 C 44 % -3.94 C
2588 09-03-2009 13:47:38 7.7 C 40 % -5.02 C
2589 09-03-2009 13:59:38 8 C 39 % -5.09 C
2590 09-03-2009 14:11:38 7.7 C 40 % -5.02 C
2591 09-03-2009 14:23:38 8.2 C 40 % -4.57 C
2592 09-03-2009 14:35:38 8.4 C 41 % -4.07 C
2593 09-03-2009 14:47:37 8.3 C 41 % -4.16 C
2594 09-03-2009 14:59:38 7.2 C 47 % -3.34 C
2595 09-03-2009 15:11:38 6.3 C 54 % -2.31 C
2596 09-03-2009 15:23:37 6.9 C 54 % -1.75 C
2597 09-03-2009 15:35:37 8.1 C 46 % -2.8 C
2598 09-03-2009 15:47:38 8.7 C 42 % -3.48 C
2599 09-03-2009 15:59:37 8.6 C 41 % -3.89 C
2600 09-03-2009 16:11:37 9.5 C 39 % -3.74 C
Sensor: Nr:Datum:Temp:Feuchte:Taupunkt:
Aussen-T/F 2601 09-03-2009 16:23:37 8.7 C 41 % -3.8 C
2602 09-03-2009 16:35:36 8.7 C 43 % -3.16 C
2603 09-03-2009 16:47:37 8.8 C 43 % -3.07 C
2604 09-03-2009 16:59:36 9.1 C 38 % -4.45 C
2605 09-03-2009 17:11:36 8.3 C 40 % -4.48 C
2606 09-03-2009 17:23:36 8 C 42 % -4.11 C
2607 09-03-2009 17:35:37 7.9 C 44 % -3.58 C
2608 09-03-2009 17:47:36 7.5 C 46 % -3.35 C
2609 09-03-2009 17:59:36 7.4 C 46 % -3.44 C
2610 09-03-2009 18:11:36 7.4 C 47 % -3.16 C
2611 09-03-2009 18:23:36 7.3 C 47 % -3.25 C
2612 09-03-2009 18:35:36 7 C 50 % -2.69 C
2613 09-03-2009 18:47:35 6.7 C 54 % -1.94 C
2614 09-03-2009 18:59:35 6.4 C 56 % -1.72 C
2615 09-03-2009 19:11:35 6.4 C 55 % -1.97 C
2616 09-03-2009 19:23:35 6.2 C 52 % -2.91 C
2617 09-03-2009 19:35:35 6 C 53 % -2.84 C
2618 09-03-2009 19:47:34 5.8 C 56 % -2.28 C
2619 09-03-2009 19:59:35 5.8 C 57 % -2.04 C
2620 09-03-2009 20:11:35 5.8 C 59 % -1.58 C
2621 09-03-2009 20:23:35 5.5 C 61 % -1.41 C
2622 09-03-2009 20:35:34 5.2 C 63 % -1.25 C
2623 09-03-2009 20:47:35 4.9 C 66 % -0.91 C
2624 09-03-2009 20:59:34 4.8 C 68 % -0.59 C
2625 09-03-2009 21:11:34 4.6 C 69 % -0.58 C
Sensor: Nr:Datum:Temp:Feuchte:Taupunkt:
Aussen-T/F 2626 09-03-2009 21:23:34 4.4 C 71 % -0.39 C
2627 09-03-2009 21:35:34 4 C 75 % -0.02 C
2628 09-03-2009 21:48:35 3.8 C 78 % 0.33 C
2629 09-03-2009 22:00:35 3.8 C 78 % 0.33 C
2630 09-03-2009 22:12:35 4.1 C 76 % 0.26 C
2631 09-03-2009 22:24:35 3.7 C 77 % 0.05 C
2632 09-03-2009 22:36:35 4 C 72 % -0.58 C
2633 09-03-2009 22:48:35 3.9 C 73 % -0.49 C
2634 09-03-2009 23:00:35 3.7 C 74 % -0.49 C
2635 09-03-2009 23:12:35 3.5 C 75 % -0.5 C
2636 09-03-2009 23:24:35 3.3 C 77 % -0.34 C
2637 09-03-2009 23:36:35 3.2 C 78 % -0.26 C
2638 09-03-2009 23:48:35 3.4 C 79 % 0.11 C
2639 10-03-2009 00:00:35 3.4 C 79 % 0.11 C
2640 10-03-2009 00:12:35 3.3 C 79 % 0.02 C
2641 10-03-2009 00:24:35 3.4 C 80 % 0.29 C
2642 10-03-2009 00:36:35 3.7 C 79 % 0.4 C
2643 10-03-2009 00:48:35 3.9 C 77 % 0.25 C
2644 10-03-2009 01:00:35 4.1 C 75 % 0.08 C
2645 10-03-2009 01:12:35 4.2 C 74 % -0.01 C
2646 10-03-2009 01:24:36 4.3 C 72 % -0.29 C
2647 10-03-2009 01:36:36 4.3 C 72 % -0.29 C
2648 10-03-2009 01:48:36 4.4 C 71 % -0.39 C
2649 10-03-2009 02:00:36 4.5 C 70 % -0.48 C
2650 10-03-2009 02:12:36 4.4 C 71 % -0.39 C
Sensor: Nr:Datum:Temp:Feuchte:Taupunkt:
Aussen-T/F 2651 10-03-2009 02:24:36 4.6 C 69 % -0.58 C
2652 10-03-2009 02:36:36 4.7 C 67 % -0.89 C
2653 10-03-2009 02:48:36 4.7 C 66 % -1.1 C
2654 10-03-2009 03:00:36 4.7 C 66 % -1.1 C
2655 10-03-2009 03:12:36 4.5 C 67 % -1.08 C
2656 10-03-2009 03:24:36 4.5 C 67 % -1.08 C
2657 10-03-2009 03:36:36 4.5 C 67 % -1.08 C
2658 10-03-2009 03:48:36 4.5 C 68 % -0.88 C
2659 10-03-2009 04:00:36 4.6 C 67 % -0.99 C
2660 10-03-2009 04:12:36 4.5 C 67 % -1.08 C
2661 10-03-2009 04:24:36 4.6 C 67 % -0.99 C
2662 10-03-2009 04:36:36 4.5 C 67 % -1.08 C
2663 10-03-2009 04:48:36 4.4 C 68 % -0.98 C
2664 10-03-2009 05:00:36 4.4 C 67 % -1.18 C
2665 10-03-2009 05:12:37 4.4 C 68 % -0.98 C
2666 10-03-2009 05:24:37 4.4 C 68 % -0.98 C
2667 10-03-2009 05:36:37 4.3 C 69 % -0.87 C
2668 10-03-2009 05:48:37 4.3 C 70 % -0.68 C
2669 10-03-2009 06:00:37 4.3 C 71 % -0.48 C
2670 10-03-2009 06:12:37 4.1 C 72 % -0.48 C
2671 10-03-2009 06:24:37 4.2 C 72 % -0.39 C
2672 10-03-2009 06:36:37 4.2 C 72 % -0.39 C
2673 10-03-2009 06:48:37 4.3 C 72 % -0.29 C
2674 10-03-2009 07:00:35 4.3 C 71 % -0.48 C
2675 10-03-2009 07:12:35 4.3 C 71 % -0.48 C
Sensor: Nr:Datum:Temp:Feuchte:Taupunkt:
Aussen-T/F 2676 10-03-2009 07:24:34 4.2 C 72 % -0.39 C
2677 10-03-2009 07:36:35 4.2 C 72 % -0.39 C
2678 10-03-2009 07:48:34 4.3 C 73 % -0.1 C
2679 10-03-2009 08:00:34 4.5 C 72 % -0.1 C
2680 10-03-2009 08:12:34 4.7 C 71 % -0.1 C
2681 10-03-2009 08:24:35 4.8 C 71 % 0 C
2682 10-03-2009 08:36:34 4.9 C 70 % -0.1 C
2683 10-03-2009 08:48:34 5 C 69 % -0.2 C
2684 10-03-2009 09:00:33 5 C 69 % -0.2 C
2685 10-03-2009 09:12:33 5.2 C 69 % -0.01 C
2686 10-03-2009 09:24:34 5.2 C 68 % -0.21 C
2687 10-03-2009 09:36:34 5.3 C 67 % -0.32 C
2688 10-03-2009 09:48:33 5.3 C 67 % -0.32 C
2689 10-03-2009 10:00:34 5.4 C 66 % -0.43 C
2690 10-03-2009 10:12:34 5.5 C 66 % -0.33 C
2691 10-03-2009 10:24:33 5.6 C 66 % -0.24 C
2692 10-03-2009 10:36:33 5.7 C 65 % -0.35 C
2693 10-03-2009 10:48:33 5.9 C 65 % -0.16 C
2694 10-03-2009 11:00:33 6.1 C 63 % -0.4 C
2695 10-03-2009 11:12:33 6.3 C 62 % -0.43 C
2696 10-03-2009 11:24:32 6.4 C 62 % -0.34 C
2697 10-03-2009 11:36:33 6.3 C 63 % -0.21 C
2698 10-03-2009 11:48:32 6.3 C 63 % -0.21 C
2699 10-03-2009 12:00:32 6.4 C 63 % -0.12 C
2700 10-03-2009 12:12:32 6.5 C 62 % -0.24 C
Sensor: Nr:Datum:Temp:Feuchte:Taupunkt:
Aussen-T/F 2701 10-03-2009 12:24:32 6.6 C 61 % -0.37 C
2702 10-03-2009 12:36:32 6.5 C 61 % -0.46 C
2703 10-03-2009 12:48:32 6.5 C 61 % -0.46 C
2704 10-03-2009 13:00:31 6.6 C 61 % -0.37 C
2705 10-03-2009 13:12:31 6.7 C 61 % -0.28 C
2706 10-03-2009 13:24:32 6.8 C 61 % -0.18 C
2707 10-03-2009 13:36:31 6.8 C 61 % -0.18 C
2708 10-03-2009 13:48:31 7 C 60 % -0.22 C
2709 10-03-2009 14:00:31 7.1 C 59 % -0.36 C
2710 10-03-2009 14:12:31 7.1 C 58 % -0.59 C
2711 10-03-2009 14:24:31 7.1 C 59 % -0.36 C
2712 10-03-2009 14:36:31 6.9 C 61 % -0.09 C
2713 10-03-2009 14:48:31 6.8 C 62 % 0.04 C
2714 10-03-2009 15:00:31 6.8 C 61 % -0.18 C
2715 10-03-2009 15:12:31 6.8 C 61 % -0.18 C
2716 10-03-2009 15:24:30 6.6 C 61 % -0.37 C
2717 10-03-2009 15:36:30 6.4 C 62 % -0.34 C
2718 10-03-2009 15:48:30 6.4 C 61 % -0.56 C
2719 10-03-2009 16:00:30 6.4 C 58 % -1.25 C
2720 10-03-2009 16:12:30 6.4 C 60 % -0.78 C
2721 10-03-2009 16:24:29 5.9 C 62 % -0.81 C
2722 10-03-2009 16:36:30 5.7 C 66 % -0.14 C
2723 10-03-2009 16:48:30 5.4 C 68 % -0.02 C
2724 10-03-2009 17:00:29 5.6 C 69 % 0.37 C
2725 10-03-2009 17:12:29 5.6 C 68 % 0.17 C
Sensor: Nr:Datum:Temp:Feuchte:Taupunkt:
Aussen-T/F 2726 10-03-2009 17:24:30 5.8 C 68 % 0.36 C
2727 10-03-2009 17:36:29 5.7 C 69 % 0.47 C
2728 10-03-2009 17:48:29 5.7 C 69 % 0.47 C
2729 10-03-2009 18:00:28 5.8 C 70 % 0.76 C
2730 10-03-2009 18:12:28 5.7 C 71 % 0.86 C
2731 10-03-2009 18:24:29 5.8 C 71 % 0.96 C
2732 10-03-2009 18:36:29 5.8 C 71 % 0.96 C
2733 10-03-2009 18:48:28 5.9 C 72 % 1.25 C
2734 10-03-2009 19:00:29 6 C 71 % 1.15 C
2735 10-03-2009 19:12:29 6 C 72 % 1.35 C
2736 10-03-2009 19:24:28 6 C 73 % 1.54 C
2737 10-03-2009 19:36:28 6 C 74 % 1.73 C
2738 10-03-2009 19:48:28 5.8 C 80 % 2.62 C
2739 10-03-2009 20:00:28 5.8 C 82 % 2.97 C
2740 10-03-2009 20:12:28 5.8 C 83 % 3.14 C
2741 10-03-2009 20:24:27 5.9 C 83 % 3.24 C
2742 10-03-2009 20:36:27 6.5 C 79 % 3.13 C
2743 10-03-2009 20:48:27 6.9 C 73 % 2.4 C
2744 10-03-2009 21:00:27 7.2 C 68 % 1.7 C
2745 10-03-2009 21:12:27 7.3 C 66 % 1.38 C
2746 10-03-2009 21:24:27 7.3 C 66 % 1.38 C
2747 10-03-2009 21:36:27 6.8 C 72 % 2.12 C
2748 10-03-2009 21:49:28 6.2 C 74 % 1.92 C
2749 10-03-2009 22:01:28 5.7 C 75 % 1.62 C
2750 10-03-2009 22:13:28 5.6 C 75 % 1.53 C
Sensor: Nr:Datum:Temp:Feuchte:Taupunkt:
Aussen-T/F 2751 10-03-2009 22:25:28 5.4 C 77 % 1.7 C
2752 10-03-2009 22:37:28 5.3 C 77 % 1.6 C
2753 10-03-2009 22:49:28 5.2 C 80 % 2.04 C
2754 10-03-2009 23:01:28 5.1 C 80 % 1.94 C
2755 10-03-2009 23:13:28 5.1 C 80 % 1.94 C
2756 10-03-2009 23:25:28 5.2 C 78 % 1.69 C
2757 10-03-2009 23:37:28 5.4 C 72 % 0.77 C
2758 10-03-2009 23:49:28 5.4 C 69 % 0.18 C
2759 11-03-2009 00:01:28 5.5 C 66 % -0.33 C
2760 11-03-2009 00:13:28 5.5 C 68 % 0.08 C
2761 11-03-2009 00:25:28 5.3 C 69 % 0.09 C
2762 11-03-2009 00:37:28 5.1 C 69 % -0.11 C
2763 11-03-2009 00:49:28 5 C 69 % -0.2 C
2764 11-03-2009 01:01:28 4.8 C 70 % -0.2 C
2765 11-03-2009 01:13:29 4.8 C 70 % -0.2 C
2766 11-03-2009 01:25:29 4.9 C 69 % -0.3 C
2767 11-03-2009 01:37:29 4.9 C 69 % -0.3 C
2768 11-03-2009 01:49:29 4.8 C 69 % -0.39 C
2769 11-03-2009 02:01:29 4.9 C 68 % -0.5 C
2770 11-03-2009 02:13:29 5 C 66 % -0.81 C
2771 11-03-2009 02:25:29 4.9 C 67 % -0.7 C
2772 11-03-2009 02:37:29 4.9 C 68 % -0.5 C
2773 11-03-2009 02:49:29 4.8 C 68 % -0.59 C
2774 11-03-2009 03:01:29 4.6 C 68 % -0.78 C
2775 11-03-2009 03:13:29 4.5 C 69 % -0.68 C
Sensor: Nr:Datum:Temp:Feuchte:Taupunkt:
Aussen-T/F 2776 11-03-2009 03:25:29 4.5 C 69 % -0.68 C
2777 11-03-2009 03:37:29 4.6 C 69 % -0.58 C
2778 11-03-2009 03:49:29 4.7 C 67 % -0.89 C
2779 11-03-2009 04:01:29 4.7 C 67 % -0.89 C
2780 11-03-2009 04:13:29 4.7 C 66 % -1.1 C
2781 11-03-2009 04:25:29 4.7 C 65 % -1.3 C
2782 11-03-2009 04:37:29 4.7 C 65 % -1.3 C
2783 11-03-2009 04:49:29 4.7 C 65 % -1.3 C
2784 11-03-2009 05:01:30 4.7 C 64 % -1.51 C
2785 11-03-2009 05:13:30 4.6 C 64 % -1.61 C
2786 11-03-2009 05:25:30 4.6 C 64 % -1.61 C
2787 11-03-2009 05:37:30 4.6 C 63 % -1.82 C
2788 11-03-2009 05:49:30 4.6 C 63 % -1.82 C
2789 11-03-2009 06:01:30 4.6 C 62 % -2.04 C
2790 11-03-2009 06:13:30 4.1 C 66 % -1.67 C
2791 11-03-2009 06:25:30 3.9 C 72 % -0.68 C
2792 11-03-2009 06:37:30 3.6 C 76 % -0.22 C
2793 11-03-2009 06:49:30 3.6 C 78 % 0.13 C
2794 11-03-2009 07:01:27 3.7 C 78 % 0.23 C
2795 11-03-2009 07:13:28 3.9 C 77 % 0.25 C
2796 11-03-2009 07:25:28 3.9 C 77 % 0.25 C
2797 11-03-2009 07:37:27 3.8 C 78 % 0.33 C
2798 11-03-2009 07:49:27 4 C 76 % 0.16 C
2799 11-03-2009 08:01:27 4.3 C 73 % -0.1 C
2800 11-03-2009 08:13:27 4.5 C 70 % -0.48 C
Sensor: Nr:Datum:Temp:Feuchte:Taupunkt:
Aussen-T/F 2801 11-03-2009 08:25:27 4.5 C 70 % -0.48 C
2802 11-03-2009 08:37:26 4.7 C 69 % -0.49 C
2803 11-03-2009 08:49:27 4.9 C 68 % -0.5 C
2804 11-03-2009 09:01:26 4.8 C 70 % -0.2 C
2805 11-03-2009 09:13:26 4.6 C 73 % 0.19 C
2806 11-03-2009 09:25:26 4.6 C 73 % 0.19 C
2807 11-03-2009 09:37:26 4.8 C 73 % 0.38 C
2808 11-03-2009 09:49:26 4.9 C 73 % 0.48 C
2809 11-03-2009 10:01:25 4.9 C 71 % 0.09 C
2810 11-03-2009 10:13:26 5 C 69 % -0.2 C
2811 11-03-2009 10:25:26 4.8 C 70 % -0.2 C
2812 11-03-2009 10:37:25 4.8 C 70 % -0.2 C
2813 11-03-2009 10:49:25 4.8 C 69 % -0.39 C
2814 11-03-2009 11:01:26 5.2 C 66 % -0.62 C
2815 11-03-2009 11:13:25 5.2 C 66 % -0.62 C
2816 11-03-2009 11:25:25 5.2 C 65 % -0.83 C
2817 11-03-2009 11:37:25 5.4 C 64 % -0.85 C
2818 11-03-2009 11:49:25 5.9 C 63 % -0.59 C
2819 11-03-2009 12:01:25 6.7 C 57 % -1.2 C
2820 11-03-2009 12:13:24 7.1 C 54 % -1.56 C
2821 11-03-2009 12:25:24 7.4 C 54 % -1.28 C
2822 11-03-2009 12:37:24 7.3 C 50 % -2.42 C
2823 11-03-2009 12:49:24 7.4 C 51 % -2.06 C
2824 11-03-2009 13:01:24 7.1 C 52 % -2.07 C
2825 11-03-2009 13:13:24 6.2 C 63 % -0.31 C
Sensor: Nr:Datum:Temp:Feuchte:Taupunkt:
Aussen-T/F 2826 11-03-2009 13:25:24 6.5 C 65 % 0.41 C
2827 11-03-2009 13:37:24 7.3 C 61 % 0.29 C
2828 11-03-2009 13:49:24 7.9 C 51 % -1.6 C
2829 11-03-2009 14:01:23 8 C 45 % -3.19 C
2830 11-03-2009 14:13:24 8.1 C 47 % -2.52 C
2831 11-03-2009 14:25:24 7.6 C 47 % -2.97 C
2832 11-03-2009 14:37:23 8.5 C 41 % -3.98 C
2833 11-03-2009 14:49:23 8.5 C 40 % -4.31 C
2834 11-03-2009 15:01:23 8.6 C 41 % -3.89 C
2835 11-03-2009 15:13:23 9.3 C 39 % -3.92 C
2836 11-03-2009 15:25:23 9.4 C 40 % -3.5 C
2837 11-03-2009 15:37:23 9.7 C 40 % -3.23 C
2838 11-03-2009 15:49:22 9.1 C 41 % -3.44 C
2839 11-03-2009 16:01:23 8.5 C 42 % -3.66 C
2840 11-03-2009 16:13:22 8.4 C 44 % -3.13 C
2841 11-03-2009 16:25:22 8.5 C 45 % -2.73 C
2842 11-03-2009 16:37:22 8.6 C 46 % -2.35 C
2843 11-03-2009 16:49:22 8.3 C 46 % -2.62 C
2844 11-03-2009 17:01:22 9.1 C 46 % -1.89 C
2845 11-03-2009 17:13:21 8.5 C 43 % -3.34 C
2846 11-03-2009 17:25:21 8.4 C 45 % -2.83 C
2847 11-03-2009 17:37:22 8.3 C 44 % -3.22 C
2848 11-03-2009 17:49:21 8.3 C 44 % -3.22 C
2849 11-03-2009 18:01:21 8.1 C 44 % -3.4 C
2850 11-03-2009 18:13:22 7.6 C 47 % -2.97 C
Sensor: Nr:Datum:Temp:Feuchte:Taupunkt:
Aussen-T/F 2851 11-03-2009 18:25:22 7.1 C 50 % -2.6 C
2852 11-03-2009 18:37:21 6.8 C 54 % -1.84 C
2853 11-03-2009 18:49:21 6.5 C 55 % -1.87 C
2854 11-03-2009 19:01:20 6.4 C 56 % -1.72 C
2855 11-03-2009 19:13:21 6.3 C 57 % -1.58 C
2856 11-03-2009 19:25:21 6.1 C 55 % -2.25 C
2857 11-03-2009 19:37:20 5.8 C 56 % -2.28 C
2858 11-03-2009 19:49:20 5.6 C 57 % -2.23 C
2859 11-03-2009 20:01:20 5.7 C 57 % -2.14 C
2860 11-03-2009 20:13:20 5.8 C 56 % -2.28 C
2861 11-03-2009 20:25:20 5.5 C 57 % -2.33 C
2862 11-03-2009 20:37:20 5.3 C 58 % -2.28 C
2863 11-03-2009 20:49:20 5.1 C 59 % -2.24 C
2864 11-03-2009 21:01:20 4.8 C 61 % -2.07 C
2865 11-03-2009 21:13:20 4.6 C 62 % -2.04 C
2866 11-03-2009 21:25:20 4.3 C 64 % -1.89 C
2867 11-03-2009 21:37:19 4.2 C 65 % -1.78 C
2868 11-03-2009 21:49:20 4 C 65 % -1.97 C
2869 11-03-2009 22:02:20 4.1 C 65 % -1.87 C
2870 11-03-2009 22:14:20 3.7 C 67 % -1.85 C
2871 11-03-2009 22:26:20 3.5 C 68 % -1.84 C
2872 11-03-2009 22:38:20 3.4 C 68 % -1.93 C
2873 11-03-2009 22:50:21 3.1 C 69 % -2.02 C
2874 11-03-2009 23:02:21 3.3 C 69 % -1.83 C
2875 11-03-2009 23:14:21 3 C 70 % -1.92 C
Sensor: Nr:Datum:Temp:Feuchte:Taupunkt:
Aussen-T/F 2876 11-03-2009 23:26:21 2.8 C 72 % -1.73 C
2877 11-03-2009 23:38:21 2.8 C 73 % -1.55 C
2878 11-03-2009 23:50:21 3.1 C 71 % -1.63 C
2879 12-03-2009 00:02:21 3.4 C 70 % -1.54 C
2880 12-03-2009 00:14:21 3.5 C 69 % -1.64 C
2881 12-03-2009 00:26:21 3.5 C 68 % -1.84 C
2882 12-03-2009 00:38:21 3.5 C 68 % -1.84 C
2883 12-03-2009 00:50:21 3.5 C 68 % -1.84 C
2884 12-03-2009 01:02:21 3.5 C 68 % -1.84 C
2885 12-03-2009 01:14:21 3.4 C 68 % -1.93 C
2886 12-03-2009 01:26:21 3.4 C 68 % -1.93 C
2887 12-03-2009 01:38:21 3.4 C 69 % -1.73 C
2888 12-03-2009 01:50:21 3.4 C 68 % -1.93 C
2889 12-03-2009 02:02:21 3.5 C 68 % -1.84 C
2890 12-03-2009 02:14:21 3.4 C 68 % -1.93 C
2891 12-03-2009 02:26:21 3.5 C 68 % -1.84 C
2892 12-03-2009 02:38:22 3.6 C 67 % -1.94 C
2893 12-03-2009 02:50:22 3.6 C 67 % -1.94 C
2894 12-03-2009 03:02:22 3.8 C 65 % -2.16 C
2895 12-03-2009 03:14:22 3.8 C 64 % -2.37 C
2896 12-03-2009 03:26:22 3.8 C 64 % -2.37 C
2897 12-03-2009 03:38:22 3.9 C 64 % -2.27 C
2898 12-03-2009 03:50:22 4.1 C 61 % -2.73 C
2899 12-03-2009 04:02:22 4 C 62 % -2.61 C
2900 12-03-2009 04:14:22 4 C 62 % -2.61 C
Sensor: Nr:Datum:Temp:Feuchte:Taupunkt:
Aussen-T/F 2901 12-03-2009 04:26:22 4.1 C 62 % -2.51 C
2902 12-03-2009 04:38:22 4.2 C 61 % -2.64 C
2903 12-03-2009 04:50:22 4.2 C 61 % -2.64 C
2904 12-03-2009 05:02:22 4.4 C 60 % -2.67 C
2905 12-03-2009 05:14:22 4.3 C 60 % -2.76 C
2906 12-03-2009 05:26:22 4.5 C 58 % -3.03 C
2907 12-03-2009 05:38:22 4.6 C 59 % -2.71 C
2908 12-03-2009 05:50:22 4.4 C 60 % -2.67 C
2909 12-03-2009 06:02:22 4.4 C 61 % -2.45 C
2910 12-03-2009 06:14:22 4.5 C 61 % -2.35 C
2911 12-03-2009 06:26:23 4.7 C 60 % -2.39 C
2912 12-03-2009 06:38:23 4.8 C 59 % -2.52 C
2913 12-03-2009 06:50:23 4.8 C 59 % -2.52 C
2914 12-03-2009 07:02:20 4.7 C 59 % -2.61 C
2915 12-03-2009 07:14:20 4.7 C 60 % -2.39 C
2916 12-03-2009 07:26:20 4.7 C 60 % -2.39 C
2917 12-03-2009 07:38:20 4.8 C 60 % -2.29 C
2918 12-03-2009 07:50:19 4.9 C 59 % -2.42 C
2919 12-03-2009 08:02:19 5 C 59 % -2.33 C
2920 12-03-2009 08:14:20 5.1 C 58 % -2.47 C
2921 12-03-2009 08:26:20 5.1 C 58 % -2.47 C
2922 12-03-2009 08:38:19 5.2 C 58 % -2.37 C
2923 12-03-2009 08:50:19 5.1 C 62 % -1.57 C
2924 12-03-2009 09:02:19 5 C 65 % -1.02 C
2925 12-03-2009 09:14:19 4.9 C 69 % -0.3 C
Sensor: Nr:Datum:Temp:Feuchte:Taupunkt:
Aussen-T/F 2926 12-03-2009 09:26:19 4.8 C 71 % 0 C
2927 12-03-2009 09:38:18 4.7 C 73 % 0.28 C
2928 12-03-2009 09:50:19 4.8 C 72 % 0.19 C
2929 12-03-2009 10:02:18 4.6 C 73 % 0.19 C
2930 12-03-2009 10:14:18 4.6 C 74 % 0.38 C
2931 12-03-2009 10:26:18 4.5 C 75 % 0.46 C
2932 12-03-2009 10:38:18 4.7 C 74 % 0.47 C
2933 12-03-2009 10:50:18 5.1 C 70 % 0.09 C
2934 12-03-2009 11:02:18 5.4 C 68 % -0.02 C
2935 12-03-2009 11:14:17 5.5 C 66 % -0.33 C
2936 12-03-2009 11:26:17 5.5 C 66 % -0.33 C
2937 12-03-2009 11:38:18 5.5 C 68 % 0.08 C
2938 12-03-2009 11:50:17 5.7 C 66 % -0.14 C
2939 12-03-2009 12:02:17 6.1 C 64 % -0.19 C
2940 12-03-2009 12:14:18 6.5 C 63 % -0.02 C
2941 12-03-2009 12:26:18 6.5 C 63 % -0.02 C
2942 12-03-2009 12:38:17 6.5 C 64 % 0.19 C
2943 12-03-2009 12:50:17 6.6 C 64 % 0.29 C
2944 12-03-2009 13:02:16 6.7 C 64 % 0.38 C
2945 12-03-2009 13:14:17 6.8 C 64 % 0.48 C
2946 12-03-2009 13:26:17 6.8 C 64 % 0.48 C
2947 12-03-2009 13:38:16 6.8 C 64 % 0.48 C
2948 12-03-2009 13:50:17 6.9 C 64 % 0.57 C
2949 12-03-2009 14:02:16 6.9 C 65 % 0.79 C
2950 12-03-2009 14:14:16 6.8 C 66 % 0.9 C
Sensor: Nr:Datum:Temp:Feuchte:Taupunkt:
Aussen-T/F 2951 12-03-2009 14:26:16 6.9 C 67 % 1.21 C
2952 12-03-2009 14:38:16 6.9 C 67 % 1.21 C
2953 12-03-2009 14:50:16 7 C 69 % 1.71 C
2954 12-03-2009 15:02:16 6.8 C 72 % 2.12 C
2955 12-03-2009 15:14:15 6.5 C 74 % 2.21 C
2956 12-03-2009 15:26:15 6.4 C 77 % 2.67 C
2957 12-03-2009 15:38:16 6.8 C 79 % 3.42 C
2958 12-03-2009 15:50:15 6.9 C 78 % 3.34 C
2959 12-03-2009 16:02:15 7 C 75 % 2.88 C
2960 12-03-2009 16:14:14 7.1 C 75 % 2.98 C
2961 12-03-2009 16:26:14 7.1 C 75 % 2.98 C
2962 12-03-2009 16:38:15 7.2 C 75 % 3.07 C
2963 12-03-2009 16:50:14 7.1 C 75 % 2.98 C
2964 12-03-2009 17:02:14 7.1 C 75 % 2.98 C
2965 12-03-2009 17:14:15 6.9 C 78 % 3.34 C
2966 12-03-2009 17:26:15 6.9 C 80 % 3.7 C
2967 12-03-2009 17:38:14 6.9 C 80 % 3.7 C
2968 12-03-2009 17:50:14 6.9 C 80 % 3.7 C
2969 12-03-2009 18:02:14 6.8 C 81 % 3.77 C
2970 12-03-2009 18:14:14 6.7 C 83 % 4.02 C
2971 12-03-2009 18:26:14 6.7 C 84 % 4.19 C
2972 12-03-2009 18:38:14 6.7 C 86 % 4.53 C
2973 12-03-2009 18:50:13 6.7 C 87 % 4.69 C
2974 12-03-2009 19:02:13 6.7 C 88 % 4.86 C
2975 12-03-2009 19:14:13 6.7 C 89 % 5.02 C
Sensor: Nr:Datum:Temp:Feuchte:Taupunkt:
Aussen-T/F 2976 12-03-2009 19:26:13 6.9 C 90 % 5.38 C
2977 12-03-2009 19:38:13 6.9 C 91 % 5.54 C
2978 12-03-2009 19:50:13 7.1 C 90 % 5.57 C
2979 12-03-2009 20:02:13 7.2 C 91 % 5.83 C
2980 12-03-2009 20:14:13 7.1 C 91 % 5.73 C
2981 12-03-2009 20:26:13 7.2 C 91 % 5.83 C
2982 12-03-2009 20:38:12 7.1 C 91 % 5.73 C
2983 12-03-2009 20:50:13 7.2 C 91 % 5.83 C
2984 12-03-2009 21:02:13 7.1 C 91 % 5.73 C
2985 12-03-2009 21:14:12 7.1 C 91 % 5.73 C
2986 12-03-2009 21:26:12 7.1 C 91 % 5.73 C
2987 12-03-2009 21:38:12 7.2 C 91 % 5.83 C
2988 12-03-2009 21:50:12 7.2 C 91 % 5.83 C
2989 12-03-2009 22:03:12 7.2 C 90 % 5.67 C
2990 12-03-2009 22:15:12 7.2 C 90 % 5.67 C
2991 12-03-2009 22:27:12 7.3 C 90 % 5.77 C
2992 12-03-2009 22:39:12 7.4 C 89 % 5.71 C
2993 12-03-2009 22:51:12 7.4 C 88 % 5.55 C
2994 12-03-2009 23:03:12 7.5 C 88 % 5.64 C
2995 12-03-2009 23:15:12 7.6 C 87 % 5.58 C
2996 12-03-2009 23:27:12 7.7 C 86 % 5.51 C
2997 12-03-2009 23:39:12 7.7 C 86 % 5.51 C
2998 12-03-2009 23:51:12 7.8 C 86 % 5.61 C
2999 13-03-2009 00:03:12 7.8 C 85 % 5.44 C
3000 13-03-2009 00:15:12 7.8 C 86 % 5.61 C
Sensor: Nr:Datum:Temp:Feuchte:Taupunkt:
Aussen-T/F 3001 13-03-2009 00:27:12 7.8 C 86 % 5.61 C
3002 13-03-2009 00:39:12 7.8 C 86 % 5.61 C
3003 13-03-2009 00:51:12 7.7 C 87 % 5.68 C
3004 13-03-2009 01:03:12 7.7 C 87 % 5.68 C
3005 13-03-2009 01:15:12 7.7 C 88 % 5.84 C
3006 13-03-2009 01:27:12 7.6 C 88 % 5.74 C
3007 13-03-2009 01:39:12 7.6 C 88 % 5.74 C
3008 13-03-2009 01:51:12 7.5 C 89 % 5.81 C
3009 13-03-2009 02:03:13 7.5 C 89 % 5.81 C
3010 13-03-2009 02:15:13 7.5 C 90 % 5.97 C
3011 13-03-2009 02:27:13 7.5 C 90 % 5.97 C
3012 13-03-2009 02:39:13 7.4 C 90 % 5.87 C
3013 13-03-2009 02:51:13 7.4 C 91 % 6.03 C
3014 13-03-2009 03:03:13 7.3 C 91 % 5.93 C
3015 13-03-2009 03:15:13 7.5 C 91 % 6.13 C
3016 13-03-2009 03:27:13 7.5 C 89 % 5.81 C
3017 13-03-2009 03:39:13 7.4 C 88 % 5.55 C
3018 13-03-2009 03:51:13 7.3 C 87 % 5.28 C
3019 13-03-2009 04:03:13 7.3 C 86 % 5.12 C
3020 13-03-2009 04:15:13 7.3 C 87 % 5.28 C
3021 13-03-2009 04:27:13 7.3 C 87 % 5.28 C
3022 13-03-2009 04:39:13 7.1 C 87 % 5.09 C
3023 13-03-2009 04:51:13 7.2 C 86 % 5.02 C
3024 13-03-2009 05:03:13 7.3 C 85 % 4.95 C
3025 13-03-2009 05:15:13 6.9 C 84 % 4.39 C
Sensor: Nr:Datum:Temp:Feuchte:Taupunkt:
Aussen-T/F 3026 13-03-2009 05:27:13 6.6 C 85 % 4.26 C
3027 13-03-2009 05:39:13 6.3 C 85 % 3.97 C
3028 13-03-2009 05:51:14 6.1 C 86 % 3.94 C
3029 13-03-2009 06:03:14 5.9 C 87 % 3.91 C
3030 13-03-2009 06:15:14 5.7 C 87 % 3.71 C
3031 13-03-2009 06:27:14 5.6 C 88 % 3.77 C
3032 13-03-2009 06:39:14 5.5 C 88 % 3.67 C
3033 13-03-2009 06:51:14 5.4 C 88 % 3.58 C
3034 13-03-2009 07:03:12 5.4 C 88 % 3.58 C
3035 13-03-2009 07:15:12 5.4 C 89 % 3.74 C
3036 13-03-2009 07:27:12 5.4 C 89 % 3.74 C
3037 13-03-2009 07:39:12 5.4 C 89 % 3.74 C
3038 13-03-2009 07:51:12 5.5 C 89 % 3.84 C
3039 13-03-2009 08:03:11 5.7 C 89 % 4.03 C
3040 13-03-2009 08:15:12 5.9 C 90 % 4.39 C
3041 13-03-2009 08:27:12 5.9 C 90 % 4.39 C
3042 13-03-2009 08:39:11 5.9 C 90 % 4.39 C
3043 13-03-2009 08:51:11 5.9 C 89 % 4.23 C
3044 13-03-2009 09:03:11 5.9 C 89 % 4.23 C
3045 13-03-2009 09:15:11 6.4 C 89 % 4.72 C
3046 13-03-2009 09:27:11 7.3 C 90 % 5.77 C
3047 13-03-2009 09:39:11 7.4 C 86 % 5.22 C
3048 13-03-2009 09:51:10 8 C 82 % 5.12 C
3049 13-03-2009 10:03:11 8.6 C 78 % 4.99 C
3050 13-03-2009 10:15:10 8.8 C 73 % 4.24 C
Sensor: Nr:Datum:Temp:Feuchte:Taupunkt:
Aussen-T/F 3051 13-03-2009 10:27:10 9.3 C 65 % 3.07 C
3052 13-03-2009 10:39:10 9.5 C 63 % 2.82 C
3053 13-03-2009 10:51:10 9.7 C 60 % 2.32 C
3054 13-03-2009 11:03:10 10 C 59 % 2.37 C
3055 13-03-2009 11:15:10 10.3 C 56 % 1.92 C
3056 13-03-2009 11:27:10 10.2 C 55 % 1.58 C
3057 13-03-2009 11:39:09 10.7 C 56 % 2.29 C
3058 13-03-2009 11:51:10 11.7 C 49 % 1.36 C
3059 13-03-2009 12:03:09 11.6 C 47 % 0.69 C
3060 13-03-2009 12:15:09 11.9 C 45 % 0.36 C
3061 13-03-2009 12:27:10 11.3 C 44 % -0.49 C
3062 13-03-2009 12:39:09 10.9 C 43 % -1.17 C
3063 13-03-2009 12:51:09 11.7 C 46 % 0.48 C
3064 13-03-2009 13:03:08 11.9 C 40 % -1.25 C
3065 13-03-2009 13:15:09 11.8 C 41 % -1.01 C
3066 13-03-2009 13:27:09 12.1 C 35 % -2.88 C
3067 13-03-2009 13:39:09 12.5 C 35 % -2.52 C
3068 13-03-2009 13:51:08 14.1 C 32 % -2.32 C
3069 13-03-2009 14:03:09 13.9 C 31 % -2.93 C
3070 13-03-2009 14:15:08 13.1 C 32 % -3.2 C
3071 13-03-2009 14:27:08 13.2 C 30 % -3.97 C
3072 13-03-2009 14:39:08 13.4 C 30 % -3.8 C
3073 13-03-2009 14:51:07 13.6 C 31 % -3.19 C
3074 13-03-2009 15:03:08 14 C 29 % -3.73 C
3075 13-03-2009 15:15:08 13.7 C 28 % -4.45 C
Sensor: Nr:Datum:Temp:Feuchte:Taupunkt:
Aussen-T/F 3076 13-03-2009 15:27:08 13.9 C 29 % -3.82 C
3077 13-03-2009 15:39:07 14.1 C 29 % -3.64 C
3078 13-03-2009 15:51:08 13.6 C 28 % -4.54 C
3079 13-03-2009 16:03:07 13.8 C 29 % -3.9 C
3080 13-03-2009 16:15:07 13.5 C 28 % -4.63 C
3081 13-03-2009 16:27:07 13.3 C 29 % -4.33 C
3082 13-03-2009 16:39:07 13.1 C 30 % -4.06 C
3083 13-03-2009 16:51:07 13.2 C 31 % -3.54 C
3084 13-03-2009 17:03:06 13 C 30 % -4.15 C
3085 13-03-2009 17:15:07 12.9 C 30 % -4.23 C
3086 13-03-2009 17:27:07 12.8 C 34 % -2.65 C
3087 13-03-2009 17:39:06 12.6 C 36 % -2.06 C
3088 13-03-2009 17:51:06 12.4 C 41 % -0.47 C
3089 13-03-2009 18:03:06 11.7 C 42 % -0.77 C
3090 13-03-2009 18:15:06 11.1 C 43 % -0.99 C
3091 13-03-2009 18:27:06 10.4 C 44 % -1.31 C
3092 13-03-2009 18:39:05 9.8 C 46 % -1.25 C
3093 13-03-2009 18:51:06 9.2 C 48 % -1.22 C
3094 13-03-2009 19:03:06 9 C 48 % -1.41 C
3095 13-03-2009 19:15:05 8.6 C 52 % -0.68 C
3096 13-03-2009 19:27:05 8.3 C 54 % -0.45 C
3097 13-03-2009 19:39:05 8.1 C 54 % -0.63 C
3098 13-03-2009 19:51:05 8 C 54 % -0.73 C
3099 13-03-2009 20:03:05 7.8 C 57 % -0.17 C
3100 13-03-2009 20:15:04 7.6 C 59 % 0.11 C
Sensor: Nr:Datum:Temp:Feuchte:Taupunkt:
Aussen-T/F 3101 13-03-2009 20:27:04 7.4 C 60 % 0.16 C
3102 13-03-2009 20:39:05 7.2 C 61 % 0.2 C
3103 13-03-2009 20:51:04 6.9 C 63 % 0.36 C
3104 13-03-2009 21:03:04 6.6 C 64 % 0.29 C
3105 13-03-2009 21:15:04 6.5 C 64 % 0.19 C
3106 13-03-2009 21:27:04 6.3 C 64 % 0 C
3107 13-03-2009 21:39:04 6.1 C 65 % 0.03 C
3108 13-03-2009 21:51:04 5.9 C 67 % 0.25 C
3109 13-03-2009 22:03:04 5.8 C 67 % 0.16 C
3110 13-03-2009 22:15:03 5.8 C 67 % 0.16 C
3111 13-03-2009 22:27:03 5.6 C 67 % -0.03 C
3112 13-03-2009 22:39:04 5.6 C 68 % 0.17 C
3113 13-03-2009 22:52:05 5.4 C 69 % 0.18 C
3114 13-03-2009 23:04:05 5.3 C 70 % 0.28 C
3115 13-03-2009 23:16:05 5.2 C 70 % 0.19 C
3116 13-03-2009 23:28:05 5 C 70 % 0 C
3117 13-03-2009 23:40:05 4.9 C 72 % 0.29 C
3118 13-03-2009 23:52:05 4.8 C 72 % 0.19 C
3119 14-03-2009 00:04:05 4.6 C 73 % 0.19 C
3120 14-03-2009 00:16:05 4.5 C 73 % 0.09 C
3121 14-03-2009 00:28:05 4.5 C 74 % 0.28 C
3122 14-03-2009 00:40:06 4.4 C 74 % 0.18 C
3123 14-03-2009 00:52:06 4.2 C 76 % 0.36 C
3124 14-03-2009 01:04:06 4.1 C 76 % 0.26 C
3125 14-03-2009 01:16:06 4 C 76 % 0.16 C
Sensor: Nr:Datum:Temp:Feuchte:Taupunkt:
Aussen-T/F 3126 14-03-2009 01:28:06 4 C 76 % 0.16 C
3127 14-03-2009 01:40:06 3.7 C 78 % 0.23 C
3128 14-03-2009 01:52:06 3.9 C 78 % 0.42 C
3129 14-03-2009 02:04:06 3.8 C 78 % 0.33 C
3130 14-03-2009 02:16:06 3.7 C 78 % 0.23 C
3131 14-03-2009 02:28:06 3.5 C 79 % 0.21 C
3132 14-03-2009 02:40:06 3.4 C 79 % 0.11 C
3133 14-03-2009 02:52:06 3.6 C 80 % 0.48 C
3134 14-03-2009 03:04:06 3.6 C 80 % 0.48 C
3135 14-03-2009 03:16:06 3.2 C 80 % 0.09 C
3136 14-03-2009 03:28:06 3.3 C 80 % 0.19 C
3137 14-03-2009 03:40:06 3.4 C 81 % 0.46 C
3138 14-03-2009 03:52:06 3.4 C 81 % 0.46 C
3139 14-03-2009 04:04:06 3.4 C 81 % 0.46 C
3140 14-03-2009 04:16:06 3.3 C 81 % 0.36 C
3141 14-03-2009 04:28:06 3 C 80 % -0.1 C
3142 14-03-2009 04:40:07 3 C 81 % 0.07 C
3143 14-03-2009 04:52:07 2.7 C 82 % -0.06 C
3144 14-03-2009 05:04:07 2.6 C 82 % -0.16 C
3145 14-03-2009 05:16:07 2.6 C 83 % 0.01 C
3146 14-03-2009 05:28:07 2.6 C 83 % 0.01 C
3147 14-03-2009 05:40:07 2.8 C 84 % 0.37 C
3148 14-03-2009 05:52:07 3 C 84 % 0.57 C
3149 14-03-2009 06:04:07 3.2 C 84 % 0.76 C
3150 14-03-2009 06:16:07 3.3 C 84 % 0.86 C
Sensor: Nr:Datum:Temp:Feuchte:Taupunkt:
Aussen-T/F 3151 14-03-2009 06:28:07 3.3 C 84 % 0.86 C
3152 14-03-2009 06:40:07 3.5 C 84 % 1.06 C
3153 14-03-2009 06:52:07 3.7 C 84 % 1.25 C
3154 14-03-2009 07:04:07 3.8 C 83 % 1.19 C
3155 14-03-2009 07:16:07 3.8 C 82 % 1.02 C
3156 14-03-2009 07:28:07 3.8 C 82 % 1.02 C
3157 14-03-2009 07:40:07 4.1 C 81 % 1.14 C
3158 14-03-2009 07:52:07 4.2 C 80 % 1.07 C
3159 14-03-2009 08:04:07 4.4 C 79 % 1.09 C
3160 14-03-2009 08:16:04 4.6 C 79 % 1.28 C
3161 14-03-2009 08:28:04 4.8 C 79 % 1.47 C
3162 14-03-2009 08:40:05 5.4 C 77 % 1.7 C
3163 14-03-2009 08:52:05 5.6 C 75 % 1.53 C
3164 14-03-2009 09:04:04 5.9 C 74 % 1.63 C
3165 14-03-2009 09:16:04 6.2 C 72 % 1.54 C
3166 14-03-2009 09:28:04 6.3 C 70 % 1.24 C
3167 14-03-2009 09:40:04 6.8 C 70 % 1.72 C
3168 14-03-2009 09:52:04 7.1 C 66 % 1.19 C
3169 14-03-2009 10:04:04 7.4 C 65 % 1.26 C
3170 14-03-2009 10:16:03 7.9 C 64 % 1.52 C
3171 14-03-2009 10:28:03 8.5 C 61 % 1.42 C
3172 14-03-2009 10:40:04 9.4 C 58 % 1.57 C
3173 14-03-2009 10:52:03 9.8 C 57 % 1.7 C
3174 14-03-2009 11:04:03 10.4 C 55 % 1.76 C
3175 14-03-2009 11:16:03 10.9 C 53 % 1.71 C
Sensor: Nr:Datum:Temp:Feuchte:Taupunkt:
Aussen-T/F 3176 14-03-2009 11:28:03 11.3 C 52 % 1.81 C
3177 14-03-2009 11:40:03 11.6 C 50 % 1.54 C
3178 14-03-2009 11:52:02 12.1 C 48 % 1.44 C
3179 14-03-2009 12:04:03 12.5 C 45 % 0.91 C
3180 14-03-2009 12:16:03 12.4 C 43 % 0.19 C
3181 14-03-2009 12:28:03 13 C 43 % 0.73 C
3182 14-03-2009 12:40:02 13.4 C 41 % 0.43 C
3183 14-03-2009 12:52:03 13.7 C 40 % 0.36 C
3184 14-03-2009 13:04:02 13.6 C 40 % 0.27 C
3185 14-03-2009 13:16:02 13.8 C 40 % 0.45 C
3186 14-03-2009 13:28:02 14.1 C 39 % 0.37 C
3187 14-03-2009 13:40:02 14.5 C 38 % 0.37 C
3188 14-03-2009 13:52:02 14.7 C 37 % 0.18 C
3189 14-03-2009 14:04:01 15.4 C 35 % 0.04 C
3190 14-03-2009 14:16:01 15.8 C 34 % -0.01 C
3191 14-03-2009 14:28:01 15.9 C 33 % -0.33 C
3192 14-03-2009 14:40:01 15.9 C 33 % -0.33 C
3193 14-03-2009 14:52:01 16.9 C 30 % -0.76 C
3194 14-03-2009 15:04:01 17.5 C 30 % -0.25 C
3195 14-03-2009 15:16:01 17 C 31 % -0.23 C
3196 14-03-2009 15:28:01 16.1 C 35 % 0.65 C
3197 14-03-2009 15:40:01 15.7 C 37 % 1.07 C
3198 14-03-2009 15:52:00 16.8 C 35 % 1.27 C
3199 14-03-2009 16:04:01 17.2 C 33 % 0.81 C
3200 14-03-2009 16:16:00 16.2 C 35 % 0.74 C
Sensor: Nr:Datum:Temp:Feuchte:Taupunkt:
Aussen-T/F 3201 14-03-2009 16:28:00 15.6 C 38 % 1.35 C
3202 14-03-2009 16:40:00 15.7 C 39 % 1.8 C
3203 14-03-2009 16:52:00 15.4 C 39 % 1.53 C
3204 14-03-2009 17:04:00 15.4 C 39 % 1.53 C
3205 14-03-2009 17:16:00 15.4 C 40 % 1.89 C
3206 14-03-2009 17:28:00 15.2 C 41 % 2.05 C
3207 14-03-2009 17:39:59 15 C 41 % 1.87 C
3208 14-03-2009 17:52:00 14.7 C 43 % 2.27 C
3209 14-03-2009 18:04:59 14.5 C 43 % 2.09 C
3210 14-03-2009 18:16:59 14.4 C 44 % 2.32 C
3211 14-03-2009 18:28:59 14.2 C 45 % 2.45 C
3212 14-03-2009 18:40:59 14.1 C 46 % 2.67 C
3213 14-03-2009 18:52:59 13.8 C 51 % 3.85 C
3214 14-03-2009 19:04:58 12.3 C 67 % 6.36 C
3215 14-03-2009 19:16:59 11.5 C 77 % 7.61 C
3216 14-03-2009 19:28:59 11.1 C 81 % 7.97 C
3217 14-03-2009 19:40:59 11.4 C 83 % 8.62 C
3218 14-03-2009 19:52:58 10.7 C 83 % 7.93 C
3219 14-03-2009 20:04:59 10.4 C 83 % 7.64 C
3220 14-03-2009 20:16:58 10.4 C 84 % 7.82 C
3221 14-03-2009 20:28:58 10.3 C 84 % 7.72 C
3222 14-03-2009 20:40:59 10.2 C 85 % 7.79 C
3223 14-03-2009 20:52:57 10 C 83 % 7.25 C
3224 14-03-2009 21:04:57 9.6 C 74 % 5.2 C
3225 14-03-2009 21:16:58 9.6 C 74 % 5.2 C
Sensor: Nr:Datum:Temp:Feuchte:Taupunkt:
Aussen-T/F 3226 14-03-2009 21:28:57 9.4 C 76 % 5.39 C
3227 14-03-2009 21:40:57 9.3 C 77 % 5.48 C
3228 14-03-2009 21:52:57 9.1 C 78 % 5.47 C
3229 14-03-2009 22:04:57 9 C 79 % 5.56 C
3230 14-03-2009 22:17:58 9 C 78 % 5.38 C
3231 14-03-2009 22:29:58 9.1 C 76 % 5.1 C
3232 14-03-2009 22:41:58 9.2 C 75 % 5.01 C
3233 14-03-2009 22:53:58 9.2 C 74 % 4.81 C
3234 14-03-2009 23:05:58 9.2 C 74 % 4.81 C
3235 14-03-2009 23:17:58 9.2 C 73 % 4.62 C
3236 14-03-2009 23:29:58 9.2 C 67 % 3.4 C
3237 14-03-2009 23:41:58 9.1 C 66 % 3.09 C
3238 14-03-2009 23:53:58 9.1 C 64 % 2.66 C
3239 15-03-2009 00:05:58 9.1 C 63 % 2.44 C
3240 15-03-2009 00:17:58 9.1 C 62 % 2.22 C
3241 15-03-2009 00:29:58 9 C 62 % 2.12 C
3242 15-03-2009 00:41:58 9.1 C 61 % 1.99 C
3243 15-03-2009 00:53:58 9 C 61 % 1.89 C
3244 15-03-2009 01:05:58 9 C 61 % 1.89 C
3245 15-03-2009 01:17:58 9 C 60 % 1.66 C
3246 15-03-2009 01:29:58 8.8 C 63 % 2.16 C
3247 15-03-2009 01:41:58 8.8 C 62 % 1.93 C
3248 15-03-2009 01:53:59 8.9 C 62 % 2.03 C
3249 15-03-2009 02:05:59 8.8 C 62 % 1.93 C
3250 15-03-2009 02:16:59 8.6 C 65 % 2.4 C
Sensor: Nr:Datum:Temp:Feuchte:Taupunkt:
Aussen-T/F 3251 15-03-2009 02:28:59 8.9 C 64 % 2.47 C
3252 15-03-2009 02:40:59 8.8 C 63 % 2.16 C
3253 15-03-2009 02:52:59 8.8 C 64 % 2.38 C
3254 15-03-2009 03:04:59 8.6 C 65 % 2.4 C
3255 15-03-2009 03:16:59 8.7 C 64 % 2.28 C
3256 15-03-2009 03:28:59 8.6 C 63 % 1.97 C
3257 15-03-2009 03:40:59 8.6 C 62 % 1.74 C
3258 15-03-2009 03:52:59 8.6 C 61 % 1.52 C
3259 15-03-2009 04:04:59 8.6 C 61 % 1.52 C
3260 15-03-2009 04:16:59 8.6 C 60 % 1.29 C
3261 15-03-2009 04:28:59 8.6 C 61 % 1.52 C
3262 15-03-2009 04:40:59 8.6 C 61 % 1.52 C
3263 15-03-2009 04:52:59 8.6 C 61 % 1.52 C
3264 15-03-2009 05:04:59 8.6 C 61 % 1.52 C
3265 15-03-2009 05:16:59 8.5 C 61 % 1.42 C
3266 15-03-2009 05:28:59 8.5 C 61 % 1.42 C
3267 15-03-2009 05:40:59 8.5 C 61 % 1.42 C
3268 15-03-2009 05:53:00 8.5 C 60 % 1.19 C
3269 15-03-2009 06:05:00 8.5 C 59 % 0.96 C
3270 15-03-2009 06:17:00 8.5 C 58 % 0.72 C
3271 15-03-2009 06:29:00 8.5 C 58 % 0.72 C
3272 15-03-2009 06:41:00 8.4 C 58 % 0.63 C
3273 15-03-2009 06:53:00 8.4 C 58 % 0.63 C
3274 15-03-2009 07:05:00 8.4 C 57 % 0.39 C
3275 15-03-2009 07:17:00 8.4 C 56 % 0.15 C
Sensor: Nr:Datum:Temp:Feuchte:Taupunkt:
Aussen-T/F 3276 15-03-2009 07:29:00 8.4 C 56 % 0.15 C
3277 15-03-2009 07:41:00 8.5 C 56 % 0.24 C
3278 15-03-2009 07:53:00 8.5 C 56 % 0.24 C
3279 15-03-2009 08:05:00 8.5 C 55 % -0.01 C
3280 15-03-2009 08:17:00 8.5 C 55 % -0.01 C
3281 15-03-2009 08:29:00 8.9 C 55 % 0.36 C
3282 15-03-2009 08:41:00 8.7 C 55 % 0.18 C
3283 15-03-2009 08:53:00 8.8 C 55 % 0.27 C
3284 15-03-2009 09:05:58 8.8 C 55 % 0.27 C
3285 15-03-2009 09:17:58 8.8 C 55 % 0.27 C
3286 15-03-2009 09:29:58 8.9 C 54 % 0.11 C
3287 15-03-2009 09:41:58 9.1 C 54 % 0.3 C
3288 15-03-2009 09:53:57 9.2 C 52 % -0.13 C
3289 15-03-2009 10:05:58 9.3 C 52 % -0.04 C
3290 15-03-2009 10:17:57 9.3 C 51 % -0.3 C
3291 15-03-2009 10:29:57 9.3 C 50 % -0.57 C
3292 15-03-2009 10:41:57 9.6 C 49 % -0.57 C
3293 15-03-2009 10:53:57 9.7 C 48 % -0.76 C
3294 15-03-2009 11:05:57 9.9 C 47 % -0.87 C
3295 15-03-2009 11:17:57 10.1 C 47 % -0.69 C
3296 15-03-2009 11:29:56 10.2 C 45 % -1.19 C
3297 15-03-2009 11:41:56 10.4 C 46 % -0.7 C
3298 15-03-2009 11:53:57 10.5 C 45 % -0.91 C
3299 15-03-2009 12:05:56 10.8 C 43 % -1.26 C
3300 15-03-2009 12:17:56 11.2 C 39 % -2.22 C
Sensor: Nr:Datum:Temp:Feuchte:Taupunkt:
Aussen-T/F 3301 15-03-2009 12:29:56 11.4 C 38 % -2.39 C
3302 15-03-2009 12:41:56 11.4 C 38 % -2.39 C
3303 15-03-2009 12:53:56 11.5 C 33 % -4.19 C
3304 15-03-2009 13:05:55 11.3 C 32 % -4.77 C
3305 15-03-2009 13:17:56 11.5 C 32 % -4.6 C
3306 15-03-2009 13:29:56 11.2 C 34 % -4.06 C
3307 15-03-2009 13:41:56 11.1 C 35 % -3.76 C
3308 15-03-2009 13:53:55 11 C 36 % -3.47 C
3309 15-03-2009 14:05:56 10.9 C 40 % -2.15 C
3310 15-03-2009 14:17:55 11.1 C 40 % -1.97 C
3311 15-03-2009 14:29:55 11 C 40 % -2.06 C
3312 15-03-2009 14:41:56 10.8 C 41 % -1.91 C
3313 15-03-2009 14:53:55 10.7 C 40 % -2.33 C
3314 15-03-2009 15:05:55 10.6 C 43 % -1.44 C
3315 15-03-2009 15:17:54 10.6 C 45 % -0.82 C
3316 15-03-2009 15:29:54 10.9 C 45 % -0.55 C
3317 15-03-2009 15:41:54 10.8 C 44 % -0.95 C
3318 15-03-2009 15:53:54 10.6 C 44 % -1.13 C
3319 15-03-2009 16:05:54 10.7 C 45 % -0.73 C
3320 15-03-2009 16:17:54 10.8 C 45 % -0.64 C
3321 15-03-2009 16:29:54 10.8 C 45 % -0.64 C
3322 15-03-2009 16:41:54 10.7 C 45 % -0.73 C
3323 15-03-2009 16:53:54 10.6 C 45 % -0.82 C
3324 15-03-2009 17:05:53 10.6 C 46 % -0.52 C
3325 15-03-2009 17:17:54 10.4 C 48 % -0.12 C
Sensor: Nr:Datum:Temp:Feuchte:Taupunkt:
Aussen-T/F 3326 15-03-2009 17:29:53 10.1 C 52 % 0.7 C
3327 15-03-2009 17:41:53 9.9 C 54 % 1.04 C
3328 15-03-2009 17:53:53 9.9 C 53 % 0.78 C
3329 15-03-2009 18:05:53 9.8 C 53 % 0.69 C
3330 15-03-2009 18:17:53 9.8 C 54 % 0.95 C
3331 15-03-2009 18:29:53 9.7 C 54 % 0.86 C
3332 15-03-2009 18:41:53 9.8 C 52 % 0.43 C
3333 15-03-2009 18:53:52 9.8 C 51 % 0.16 C
3334 15-03-2009 19:05:02 9.8 C 50 % -0.11 C
3335 15-03-2009 19:17:01 9.7 C 51 % 0.07 C
3336 15-03-2009 19:29:01 9.6 C 52 % 0.24 C
3337 15-03-2009 19:41:02 9.5 C 53 % 0.41 C
3338 15-03-2009 19:53:01 9.5 C 53 % 0.41 C
3339 15-03-2009 20:05:02 9.4 C 55 % 0.83 C
3340 15-03-2009 20:17:01 9.2 C 56 % 0.89 C
3341 15-03-2009 20:29:01 9.2 C 57 % 1.14 C
3342 15-03-2009 20:41:01 9.1 C 59 % 1.52 C
3343 15-03-2009 20:53:01 9 C 60 % 1.66 C
3344 15-03-2009 21:05:01 9 C 60 % 1.66 C
3345 15-03-2009 21:17:00 8.9 C 62 % 2.03 C
3346 15-03-2009 21:29:00 8.9 C 63 % 2.25 C
3347 15-03-2009 21:41:01 8.9 C 64 % 2.47 C
3348 15-03-2009 21:54:08 8.7 C 64 % 2.28 C
3349 15-03-2009 22:06:08 8.7 C 65 % 2.5 C
3350 15-03-2009 22:18:08 8.7 C 65 % 2.5 C
Sensor: Nr:Datum:Temp:Feuchte:Taupunkt:
Aussen-T/F 3351 15-03-2009 22:30:08 8.6 C 66 % 2.62 C
3352 15-03-2009 22:42:08 8.5 C 67 % 2.73 C
3353 15-03-2009 22:54:08 8.4 C 67 % 2.64 C
3354 15-03-2009 23:06:08 8.4 C 67 % 2.64 C
3355 15-03-2009 23:18:09 8.4 C 68 % 2.85 C
3356 15-03-2009 23:30:09 8.3 C 68 % 2.75 C
3357 15-03-2009 23:42:09 8.3 C 68 % 2.75 C
3358 15-03-2009 23:54:09 8.1 C 70 % 2.97 C
3359 16-03-2009 00:06:09 8 C 71 % 3.07 C
3360 16-03-2009 00:18:09 8.1 C 71 % 3.17 C
3361 16-03-2009 00:30:09 8.1 C 71 % 3.17 C
3362 16-03-2009 00:42:09 8.1 C 70 % 2.97 C
3363 16-03-2009 00:54:09 8.1 C 69 % 2.77 C
3364 16-03-2009 01:06:09 8.2 C 68 % 2.66 C
3365 16-03-2009 01:18:09 8 C 69 % 2.67 C
3366 16-03-2009 01:30:09 7.8 C 73 % 3.27 C
3367 16-03-2009 01:42:09 7.7 C 75 % 3.56 C
3368 16-03-2009 01:54:09 7.5 C 77 % 3.74 C
3369 16-03-2009 02:06:09 7.4 C 78 % 3.82 C
3370 16-03-2009 02:18:09 7.4 C 79 % 4 C
3371 16-03-2009 02:30:09 7.4 C 79 % 4 C
3372 16-03-2009 02:42:09 7.3 C 80 % 4.09 C
3373 16-03-2009 02:54:09 7.2 C 81 % 4.16 C
3374 16-03-2009 03:06:09 7.2 C 81 % 4.16 C
3375 16-03-2009 03:18:09 7.1 C 82 % 4.24 C
Sensor: Nr:Datum:Temp:Feuchte:Taupunkt:
Aussen-T/F 3376 16-03-2009 03:30:10 7.1 C 82 % 4.24 C
3377 16-03-2009 03:42:10 6.9 C 83 % 4.22 C
3378 16-03-2009 03:54:10 6.8 C 84 % 4.29 C
3379 16-03-2009 04:06:10 6.8 C 84 % 4.29 C
3380 16-03-2009 04:18:10 6.8 C 85 % 4.46 C
3381 16-03-2009 04:30:10 6.7 C 85 % 4.36 C
3382 16-03-2009 04:42:10 6.7 C 85 % 4.36 C
3383 16-03-2009 04:54:10 6.8 C 86 % 4.63 C
3384 16-03-2009 05:06:10 6.7 C 86 % 4.53 C
3385 16-03-2009 05:18:10 6.5 C 85 % 4.17 C
3386 16-03-2009 05:30:10 6.6 C 86 % 4.43 C
3387 16-03-2009 05:42:10 6.7 C 86 % 4.53 C
3388 16-03-2009 05:54:01 6.6 C 86 % 4.43 C
3389 16-03-2009 06:06:01 6.6 C 86 % 4.43 C
3390 16-03-2009 06:18:01 6.6 C 86 % 4.43 C
3391 16-03-2009 06:30:01 6.6 C 86 % 4.43 C
3392 16-03-2009 06:42:01 6.7 C 86 % 4.53 C
3393 16-03-2009 06:54:00 6.6 C 85 % 4.26 C
3394 16-03-2009 07:06:01 6.5 C 85 % 4.17 C
3395 16-03-2009 07:18:00 6.5 C 85 % 4.17 C
3396 16-03-2009 07:30:00 6.6 C 86 % 4.43 C
3397 16-03-2009 07:42:00 6.7 C 86 % 4.53 C
3398 16-03-2009 07:53:59 6.8 C 86 % 4.63 C
3399 16-03-2009 08:06:00 6.9 C 86 % 4.72 C
3400 16-03-2009 08:18:00 7 C 85 % 4.66 C
Sensor: Nr:Datum:Temp:Feuchte:Taupunkt:
Aussen-T/F 3401 16-03-2009 08:30:00 7 C 84 % 4.49 C
3402 16-03-2009 08:42:59 7.1 C 84 % 4.58 C
3403 16-03-2009 08:54:00 7.2 C 84 % 4.68 C
3404 16-03-2009 09:06:59 7.4 C 84 % 4.88 C
3405 16-03-2009 09:18:59 7.3 C 83 % 4.61 C
3406 16-03-2009 09:30:58 7.2 C 81 % 4.16 C
3407 16-03-2009 09:42:58 7.3 C 79 % 3.91 C
3408 16-03-2009 09:54:59 7.6 C 79 % 4.2 C
3409 16-03-2009 10:06:59 7.9 C 78 % 4.31 C
3410 16-03-2009 10:18:58 8.2 C 75 % 4.04 C
3411 16-03-2009 10:30:59 8.4 C 72 % 3.65 C
3412 16-03-2009 10:42:59 8.7 C 69 % 3.34 C
3413 16-03-2009 10:54:58 8.8 C 68 % 3.23 C
3414 16-03-2009 11:06:58 8.8 C 66 % 2.81 C
3415 16-03-2009 11:18:57 9.1 C 64 % 2.66 C
3416 16-03-2009 11:30:58 9.2 C 62 % 2.31 C
3417 16-03-2009 11:42:58 9.5 C 61 % 2.37 C
3418 16-03-2009 11:54:57 9.7 C 61 % 2.55 C
3419 16-03-2009 12:06:57 10 C 57 % 1.89 C
3420 16-03-2009 12:18:58 9.9 C 55 % 1.3 C
3421 16-03-2009 12:30:57 9.5 C 56 % 1.17 C
3422 16-03-2009 12:42:57 9.5 C 57 % 1.42 C
3423 16-03-2009 12:54:57 9.8 C 57 % 1.7 C
3424 16-03-2009 13:06:57 10 C 55 % 1.39 C
3425 16-03-2009 13:18:57 10.2 C 55 % 1.58 C
Sensor: Nr:Datum:Temp:Feuchte:Taupunkt:
Aussen-T/F 3426 16-03-2009 13:30:56 10.1 C 52 % 0.7 C
3427 16-03-2009 13:42:56 9.8 C 55 % 1.2 C
3428 16-03-2009 13:54:56 9.5 C 56 % 1.17 C
3429 16-03-2009 14:06:56 9.4 C 56 % 1.08 C
3430 16-03-2009 14:18:56 9.5 C 56 % 1.17 C
3431 16-03-2009 14:30:56 9.5 C 55 % 0.92 C
3432 16-03-2009 14:42:56 9.7 C 56 % 1.36 C
3433 16-03-2009 14:54:56 9.9 C 55 % 1.3 C
3434 16-03-2009 15:06:56 10 C 54 % 1.13 C
3435 16-03-2009 15:18:55 10.3 C 54 % 1.41 C
3436 16-03-2009 15:30:55 9.9 C 53 % 0.78 C
3437 16-03-2009 15:42:55 9.8 C 55 % 1.2 C
3438 16-03-2009 15:54:55 9.9 C 55 % 1.3 C
3439 16-03-2009 16:06:55 9.7 C 56 % 1.36 C
3440 16-03-2009 16:18:55 9.8 C 56 % 1.45 C
3441 16-03-2009 16:30:55 9.8 C 56 % 1.45 C
3442 16-03-2009 16:42:55 10 C 55 % 1.39 C
3443 16-03-2009 16:54:55 9.8 C 55 % 1.2 C
3444 16-03-2009 17:06:54 9.7 C 57 % 1.61 C
3445 16-03-2009 17:18:55 9.7 C 57 % 1.61 C
3446 16-03-2009 17:30:54 9.7 C 57 % 1.61 C
3447 16-03-2009 17:42:54 9.6 C 57 % 1.51 C
3448 16-03-2009 17:54:54 9.2 C 58 % 1.38 C
3449 16-03-2009 18:06:53 9.2 C 59 % 1.62 C
3450 16-03-2009 18:18:54 9.2 C 60 % 1.85 C
Sensor: Nr:Datum:Temp:Feuchte:Taupunkt:
Aussen-T/F 3451 16-03-2009 18:30:54 9 C 60 % 1.66 C
3452 16-03-2009 18:42:54 8.9 C 62 % 2.03 C
3453 16-03-2009 18:54:53 8.7 C 63 % 2.06 C
3454 16-03-2009 19:06:54 8.7 C 64 % 2.28 C
3455 16-03-2009 19:18:53 8.6 C 65 % 2.4 C
3456 16-03-2009 19:30:53 8.5 C 65 % 2.31 C
3457 16-03-2009 19:42:54 8.5 C 66 % 2.52 C
3458 16-03-2009 19:54:53 8.4 C 66 % 2.43 C
3459 16-03-2009 20:06:53 8.4 C 66 % 2.43 C
3460 16-03-2009 20:18:52 8.4 C 66 % 2.43 C
3461 16-03-2009 20:30:53 8.4 C 65 % 2.21 C
3462 16-03-2009 20:42:53 8.3 C 65 % 2.12 C
3463 16-03-2009 20:54:52 8.3 C 65 % 2.12 C
3464 16-03-2009 21:06:52 8.2 C 66 % 2.24 C
3465 16-03-2009 21:18:52 8.2 C 66 % 2.24 C
3466 16-03-2009 21:30:51 8.2 C 66 % 2.24 C
3467 16-03-2009 21:42:51 8.1 C 65 % 1.93 C
3468 16-03-2009 21:54:52 8.1 C 65 % 1.93 C
3469 16-03-2009 22:06:51 8.1 C 65 % 1.93 C
3470 16-03-2009 22:19:53 8 C 64 % 1.62 C
3471 16-03-2009 22:31:54 8 C 64 % 1.62 C
3472 16-03-2009 22:43:54 8 C 64 % 1.62 C
3473 16-03-2009 22:55:54 7.9 C 64 % 1.52 C
3474 16-03-2009 23:07:54 8 C 64 % 1.62 C
3475 16-03-2009 23:19:54 8 C 64 % 1.62 C
Sensor: Nr:Datum:Temp:Feuchte:Taupunkt:
Aussen-T/F 3476 16-03-2009 23:31:54 8 C 64 % 1.62 C
3477 16-03-2009 23:43:54 7.9 C 66 % 1.95 C
3478 16-03-2009 23:55:54 7.9 C 66 % 1.95 C
3479 17-03-2009 00:07:54 7.8 C 67 % 2.07 C
3480 17-03-2009 00:19:54 7.8 C 65 % 1.64 C
3481 17-03-2009 00:31:54 7.8 C 65 % 1.64 C
3482 17-03-2009 00:43:54 7.7 C 65 % 1.55 C
3483 17-03-2009 00:55:54 7.7 C 63 % 1.11 C
3484 17-03-2009 01:07:54 7.7 C 62 % 0.89 C
3485 17-03-2009 01:19:54 7.4 C 62 % 0.61 C
3486 17-03-2009 01:31:54 6.7 C 65 % 0.6 C
3487 17-03-2009 01:43:54 6.1 C 66 % 0.24 C
3488 17-03-2009 01:55:54 5.8 C 69 % 0.56 C
3489 17-03-2009 02:07:54 5.6 C 69 % 0.37 C
3490 17-03-2009 02:19:54 5.3 C 70 % 0.28 C
3491 17-03-2009 02:31:55 5.1 C 71 % 0.29 C
3492 17-03-2009 02:43:55 5 C 72 % 0.38 C
3493 17-03-2009 02:55:55 4.9 C 73 % 0.48 C
3494 17-03-2009 03:07:55 4.7 C 74 % 0.47 C
3495 17-03-2009 03:19:55 4.7 C 74 % 0.47 C
3496 17-03-2009 03:31:55 4.5 C 75 % 0.46 C
3497 17-03-2009 03:43:55 4.3 C 76 % 0.45 C
3498 17-03-2009 03:55:55 4.1 C 77 % 0.44 C
3499 17-03-2009 04:07:55 4 C 78 % 0.52 C
3500 17-03-2009 04:19:55 3.9 C 79 % 0.6 C
Sensor: Nr:Datum:Temp:Feuchte:Taupunkt:
Aussen-T/F 3501 17-03-2009 04:31:55 4 C 78 % 0.52 C
3502 17-03-2009 04:43:55 4 C 79 % 0.7 C
3503 17-03-2009 04:55:55 3.8 C 80 % 0.68 C
3504 17-03-2009 05:07:55 3.5 C 80 % 0.38 C
3505 17-03-2009 05:19:55 3.3 C 80 % 0.19 C
3506 17-03-2009 05:31:55 3.2 C 81 % 0.26 C
3507 17-03-2009 05:43:55 3.2 C 81 % 0.26 C
3508 17-03-2009 05:55:55 3.2 C 82 % 0.43 C
3509 17-03-2009 06:07:55 3 C 82 % 0.24 C
3510 17-03-2009 06:19:56 3 C 82 % 0.24 C
3511 17-03-2009 06:31:56 3 C 83 % 0.4 C
3512 17-03-2009 06:43:56 3.1 C 83 % 0.5 C
3513 17-03-2009 06:55:56 3.3 C 83 % 0.7 C
3514 17-03-2009 07:07:52 3.5 C 83 % 0.89 C
3515 17-03-2009 07:19:52 3.5 C 81 % 0.55 C
3516 17-03-2009 07:31:52 3.6 C 80 % 0.48 C
3517 17-03-2009 07:43:52 3.5 C 80 % 0.38 C
3518 17-03-2009 07:55:52 3.5 C 80 % 0.38 C
3519 17-03-2009 08:07:51 3.5 C 80 % 0.38 C
3520 17-03-2009 08:19:51 3.7 C 80 % 0.58 C
3521 17-03-2009 08:31:52 3.8 C 80 % 0.68 C
3522 17-03-2009 08:43:52 3.9 C 79 % 0.6 C
3523 17-03-2009 08:55:51 4.2 C 79 % 0.89 C
3524 17-03-2009 09:07:51 5 C 77 % 1.31 C
3525 17-03-2009 09:19:50 5.8 C 72 % 1.15 C
Sensor: Nr:Datum:Temp:Feuchte:Taupunkt:
Aussen-T/F 3526 17-03-2009 09:31:51 6.3 C 68 % 0.84 C
3527 17-03-2009 09:43:51 6.5 C 66 % 0.62 C
3528 17-03-2009 09:55:50 6.5 C 66 % 0.62 C
3529 17-03-2009 10:07:50 6.8 C 65 % 0.69 C
3530 17-03-2009 10:19:51 7.2 C 64 % 0.86 C
3531 17-03-2009 10:31:50 7.9 C 62 % 1.08 C
3532 17-03-2009 10:43:50 8.4 C 60 % 1.1 C
3533 17-03-2009 10:55:50 9 C 57 % 0.95 C
3534 17-03-2009 11:07:50 10.1 C 53 % 0.97 C
3535 17-03-2009 11:19:50 11.4 C 50 % 1.36 C
3536 17-03-2009 11:31:50 11.7 C 47 % 0.78 C
3537 17-03-2009 11:43:50 11.6 C 47 % 0.69 C
3538 17-03-2009 11:55:50 11.4 C 48 % 0.79 C
3539 17-03-2009 12:07:50 11.5 C 49 % 1.17 C
3540 17-03-2009 12:19:49 11.2 C 50 % 1.18 C
3541 17-03-2009 12:31:49 12 C 48 % 1.34 C
3542 17-03-2009 12:43:49 13.3 C 43 % 1 C
3543 17-03-2009 12:55:49 13.7 C 42 % 1.04 C
3544 17-03-2009 13:07:49 14.1 C 40 % 0.72 C
3545 17-03-2009 13:19:48 14.1 C 39 % 0.37 C
3546 17-03-2009 13:31:48 13.9 C 39 % 0.19 C
3547 17-03-2009 13:43:48 14.2 C 39 % 0.46 C
3548 17-03-2009 13:55:48 14.7 C 38 % 0.55 C
3549 17-03-2009 14:07:48 15.4 C 35 % 0.04 C
3550 17-03-2009 14:19:48 14.2 C 38 % 0.1 C
Sensor: Nr:Datum:Temp:Feuchte:Taupunkt:
Aussen-T/F 3551 17-03-2009 14:31:48 13.8 C 41 % 0.79 C
3552 17-03-2009 14:43:48 13.2 C 42 % 0.59 C
3553 17-03-2009 14:55:48 12.5 C 44 % 0.59 C
3554 17-03-2009 15:07:47 12.4 C 45 % 0.81 C
3555 17-03-2009 15:19:48 12.5 C 46 % 1.21 C
3556 17-03-2009 15:31:47 12.7 C 45 % 1.09 C
3557 17-03-2009 15:43:47 12.8 C 45 % 1.18 C
3558 17-03-2009 15:55:47 12.8 C 45 % 1.18 C
3559 17-03-2009 16:07:47 12.5 C 45 % 0.91 C
3560 17-03-2009 16:19:47 12.6 C 46 % 1.3 C
3561 17-03-2009 16:31:47 12.5 C 45 % 0.91 C
3562 17-03-2009 16:43:47 12.6 C 45 % 1 C
3563 17-03-2009 16:55:46 12.1 C 43 % -0.08 C
3564 17-03-2009 17:07:47 12 C 45 % 0.45 C
3565 17-03-2009 17:19:46 11.9 C 47 % 0.96 C
3566 17-03-2009 17:31:46 12.6 C 44 % 0.69 C
3567 17-03-2009 17:43:46 12.2 C 44 % 0.32 C
3568 17-03-2009 17:55:46 12 C 43 % -0.17 C
3569 17-03-2009 18:07:46 11.7 C 45 % 0.18 C
3570 17-03-2009 18:19:46 11.2 C 46 % 0.02 C
3571 17-03-2009 18:31:45 10.7 C 49 % 0.44 C
3572 17-03-2009 18:43:45 10.2 C 51 % 0.53 C
3573 17-03-2009 18:55:46 9.5 C 55 % 0.92 C
3574 17-03-2009 19:07:45 9.2 C 56 % 0.89 C
3575 17-03-2009 19:19:45 8.7 C 59 % 1.15 C
Sensor: Nr:Datum:Temp:Feuchte:Taupunkt:
Aussen-T/F 3576 17-03-2009 19:31:45 8.5 C 59 % 0.96 C
3577 17-03-2009 19:43:45 8.1 C 60 % 0.82 C
3578 17-03-2009 19:55:45 7.8 C 63 % 1.21 C
3579 17-03-2009 20:07:44 7.6 C 64 % 1.24 C
3580 17-03-2009 20:19:44 7.3 C 65 % 1.17 C
3581 17-03-2009 20:31:45 7.1 C 65 % 0.98 C
3582 17-03-2009 20:43:45 6.9 C 68 % 1.41 C
3583 17-03-2009 20:55:44 6.5 C 68 % 1.03 C
3584 17-03-2009 21:07:44 6.3 C 70 % 1.24 C
3585 17-03-2009 21:19:44 6.2 C 71 % 1.34 C
3586 17-03-2009 21:31:44 5.7 C 71 % 0.86 C
3587 17-03-2009 21:43:44 5.7 C 73 % 1.25 C
3588 17-03-2009 21:56:45 5.5 C 73 % 1.06 C
3589 17-03-2009 22:08:45 5.3 C 74 % 1.05 C
3590 17-03-2009 22:20:46 5.1 C 75 % 1.04 C
3591 17-03-2009 22:32:46 4.9 C 77 % 1.22 C
3592 17-03-2009 22:44:46 4.8 C 77 % 1.12 C
3593 17-03-2009 22:56:46 4.7 C 77 % 1.02 C
3594 17-03-2009 23:08:46 4.6 C 77 % 0.92 C
3595 17-03-2009 23:20:46 4.3 C 77 % 0.63 C
3596 17-03-2009 23:32:46 4.2 C 78 % 0.71 C
3597 17-03-2009 23:44:46 4 C 79 % 0.7 C
3598 17-03-2009 23:56:46 3.8 C 80 % 0.68 C
3599 18-03-2009 00:08:46 3.6 C 81 % 0.65 C
3600 18-03-2009 00:20:46 3.3 C 81 % 0.36 C
Sensor: Nr:Datum:Temp:Feuchte:Taupunkt:
Aussen-T/F 3601 18-03-2009 00:32:46 3.2 C 82 % 0.43 C
3602 18-03-2009 00:44:46 2.9 C 83 % 0.31 C
3603 18-03-2009 00:56:46 2.8 C 82 % 0.04 C
3604 18-03-2009 01:08:46 2.7 C 83 % 0.11 C
3605 18-03-2009 01:20:46 2.6 C 83 % 0.01 C
3606 18-03-2009 01:32:46 2.4 C 83 % -0.18 C
3607 18-03-2009 01:44:46 2.2 C 83 % -0.38 C
3608 18-03-2009 01:56:46 2.1 C 83 % -0.48 C
3609 18-03-2009 02:08:47 1.9 C 84 % -0.51 C
3610 18-03-2009 02:20:47 1.8 C 84 % -0.61 C
3611 18-03-2009 02:32:47 1.5 C 84 % -0.9 C
3612 18-03-2009 02:44:47 1.5 C 85 % -0.74 C
3613 18-03-2009 02:56:47 1.4 C 85 % -0.84 C
3614 18-03-2009 03:08:47 1.2 C 85 % -1.03 C
3615 18-03-2009 03:20:47 0.9 C 85 % -1.33 C
3616 18-03-2009 03:32:47 0.8 C 85 % -1.43 C
3617 18-03-2009 03:44:47 0.6 C 85 % -1.62 C
3618 18-03-2009 03:56:47 0.4 C 85 % -1.82 C
3619 18-03-2009 04:08:47 0.3 C 85 % -1.92 C
3620 18-03-2009 04:20:47 0.2 C 86 % -1.86 C
3621 18-03-2009 04:32:47 0.1 C 86 % -1.96 C
3622 18-03-2009 04:44:47 0.1 C 87 % -1.8 C
3623 18-03-2009 04:56:47 0 C 87 % -1.9 C
3624 18-03-2009 05:08:47 -0.1 C 87 % -2 C
3625 18-03-2009 05:20:47 0 C 88 % -1.74 C
Sensor: Nr:Datum:Temp:Feuchte:Taupunkt:
Aussen-T/F 3626 18-03-2009 05:32:47 0 C 88 % -1.74 C
3627 18-03-2009 05:44:47 -0.1 C 88 % -1.84 C
3628 18-03-2009 05:56:47 -0.2 C 88 % -1.94 C
3629 18-03-2009 06:08:48 -0.2 C 88 % -1.94 C
3630 18-03-2009 06:20:48 -0.1 C 89 % -1.69 C
3631 18-03-2009 06:32:44 0 C 89 % -1.59 C
3632 18-03-2009 06:44:45 0 C 89 % -1.59 C
3633 18-03-2009 06:56:45 0.2 C 89 % -1.39 C
3634 18-03-2009 07:08:44 0.2 C 89 % -1.39 C
3635 18-03-2009 07:20:44 0.2 C 89 % -1.39 C
3636 18-03-2009 07:32:44 0.2 C 89 % -1.39 C
3637 18-03-2009 07:44:44 0.2 C 89 % -1.39 C
3638 18-03-2009 07:56:44 0.1 C 88 % -1.65 C
3639 18-03-2009 08:08:44 0.1 C 88 % -1.65 C
3640 18-03-2009 08:20:43 0.1 C 88 % -1.65 C
3641 18-03-2009 08:32:44 0.5 C 88 % -1.25 C
3642 18-03-2009 08:44:43 1.2 C 88 % -0.56 C
3643 18-03-2009 08:56:43 1.2 C 85 % -1.03 C
3644 18-03-2009 09:08:43 1.7 C 84 % -0.71 C
3645 18-03-2009 09:20:43 1.9 C 82 % -0.84 C
3646 18-03-2009 09:32:43 1.9 C 80 % -1.18 C
3647 18-03-2009 09:44:43 2.5 C 79 % -0.76 C
3648 18-03-2009 09:56:43 2.8 C 77 % -0.82 C
3649 18-03-2009 10:08:43 3.3 C 74 % -0.88 C
3650 18-03-2009 10:20:42 3.6 C 73 % -0.78 C
Sensor: Nr:Datum:Temp:Feuchte:Taupunkt:
Aussen-T/F 3651 18-03-2009 10:32:42 3.8 C 74 % -0.4 C
3652 18-03-2009 10:44:42 4.6 C 73 % 0.19 C
3653 18-03-2009 10:56:42 5.2 C 67 % -0.41 C
3654 18-03-2009 11:08:42 5.9 C 62 % -0.81 C
3655 18-03-2009 11:20:41 6.5 C 58 % -1.15 C
3656 18-03-2009 11:32:42 6.8 C 57 % -1.11 C
3657 18-03-2009 11:44:41 7.3 C 54 % -1.38 C
3658 18-03-2009 11:56:41 7.9 C 51 % -1.6 C
3659 18-03-2009 12:08:41 8.2 C 45 % -3.01 C
3660 18-03-2009 12:20:42 8.6 C 41 % -3.89 C
3661 18-03-2009 12:32:41 9.4 C 37 % -4.53 C
3662 18-03-2009 12:44:41 9.7 C 25 % -9.35 C
3663 18-03-2009 12:56:41 10.2 C 23 % -9.98 C
3664 18-03-2009 13:08:40 11 C 20 % -11.06 C
3665 18-03-2009 13:20:41 11.8 C 20 % -10.4 C
3666 18-03-2009 13:32:41 12.6 C 20 % -9.73 C
3667 18-03-2009 13:44:40 13 C 20 % -9.4 C
3668 18-03-2009 13:56:40 13.1 C 20 % -9.32 C
3669 18-03-2009 14:08:41 13.2 C 20 % -9.24 C
3670 18-03-2009 14:20:40 12.9 C 20 % -9.49 C
3671 18-03-2009 14:32:40 13.1 C 20 % -9.32 C
3672 18-03-2009 14:44:40 13.6 C 20 % -8.91 C
3673 18-03-2009 14:56:40 13.8 C 20 % -8.74 C
3674 18-03-2009 15:08:40 14.1 C 20 % -8.49 C
3675 18-03-2009 15:20:39 14 C 20 % -8.57 C
Sensor: Nr:Datum:Temp:Feuchte:Taupunkt:
Aussen-T/F 3676 18-03-2009 15:32:39 13.7 C 20 % -8.82 C
3677 18-03-2009 15:44:39 14.7 C 20 % -7.99 C
3678 18-03-2009 15:56:39 15.3 C 20 % -7.5 C
3679 18-03-2009 16:08:39 15.2 C 20 % -7.58 C
3680 18-03-2009 16:20:39 14.6 C 20 % -8.08 C
3681 18-03-2009 16:32:39 14.3 C 20 % -8.33 C
3682 18-03-2009 16:44:39 14 C 20 % -8.57 C
3683 18-03-2009 16:56:39 14.9 C 20 % -7.83 C
3684 18-03-2009 17:08:38 14.6 C 20 % -8.08 C
3685 18-03-2009 17:20:38 14.7 C 20 % -7.99 C
3686 18-03-2009 17:32:38 13.7 C 20 % -8.82 C
3687 18-03-2009 17:44:38 12.5 C 20 % -9.82 C
3688 18-03-2009 17:56:38 12.6 C 20 % -9.73 C
3689 18-03-2009 18:08:37 11.9 C 20 % -10.31 C
3690 18-03-2009 18:20:38 11.3 C 20 % -10.81 C
3691 18-03-2009 18:32:38 10.1 C 20 % -11.81 C
3692 18-03-2009 18:44:37 9.1 C 20 % -12.64 C
3693 18-03-2009 18:56:37 8.5 C 20 % -13.14 C
3694 18-03-2009 19:08:38 8.1 C 26 % -10.22 C
3695 18-03-2009 19:20:37 7.9 C 26 % -10.39 C
3696 18-03-2009 19:32:37 7.4 C 29 % -9.44 C
3697 18-03-2009 19:44:36 7.1 C 26 % -11.07 C
3698 18-03-2009 19:56:36 6.9 C 27 % -10.77 C
3699 18-03-2009 20:08:37 6.8 C 30 % -9.53 C
3700 18-03-2009 20:20:37 6.7 C 31 % -9.21 C
Sensor: Nr:Datum:Temp:Feuchte:Taupunkt:
Aussen-T/F 3701 18-03-2009 20:32:36 6.7 C 35 % -7.65 C
3702 18-03-2009 20:44:37 6.8 C 32 % -8.71 C
3703 18-03-2009 20:56:37 6.8 C 35 % -7.57 C
3704 18-03-2009 21:08:36 6.7 C 35 % -7.65 C
3705 18-03-2009 21:20:36 6.6 C 37 % -7.03 C
3706 18-03-2009 21:32:36 6.6 C 36 % -7.38 C
3707 18-03-2009 21:44:35 6.4 C 36 % -7.56 C
3708 18-03-2009 21:56:35 6 C 37 % -7.56 C
3709 18-03-2009 22:08:36 5.7 C 40 % -6.82 C
3710 18-03-2009 22:21:36 5.6 C 40 % -6.91 C
3711 18-03-2009 22:33:36 5.5 C 40 % -7 C
3712 18-03-2009 22:45:36 5.2 C 38 % -7.93 C
3713 18-03-2009 22:57:37 4.9 C 40 % -7.54 C
3714 18-03-2009 23:09:37 4.7 C 39 % -8.05 C
3715 18-03-2009 23:21:37 4.5 C 42 % -7.27 C
3716 18-03-2009 23:33:37 4.2 C 41 % -7.86 C
3717 18-03-2009 23:45:37 3.9 C 43 % -7.51 C
3718 18-03-2009 23:57:37 3.5 C 44 % -7.58 C
3719 19-03-2009 00:09:37 3.3 C 45 % -7.47 C
3720 19-03-2009 00:21:37 3.1 C 46 % -7.37 C
3721 19-03-2009 00:33:37 3 C 48 % -6.92 C
3722 19-03-2009 00:45:37 2.7 C 49 % -6.92 C
3723 19-03-2009 00:57:37 2.4 C 51 % -6.68 C
3724 19-03-2009 01:09:37 2.3 C 51 % -6.78 C
3725 19-03-2009 01:21:37 2.1 C 53 % -6.46 C
Sensor: Nr:Datum:Temp:Feuchte:Taupunkt:
Aussen-T/F 3726 19-03-2009 01:33:37 1.8 C 56 % -6.02 C
3727 19-03-2009 01:45:37 1.8 C 56 % -6.02 C
3728 19-03-2009 01:57:37 1.5 C 56 % -6.3 C
3729 19-03-2009 02:09:37 1.4 C 56 % -6.4 C
3730 19-03-2009 02:21:37 1.3 C 56 % -6.49 C
3731 19-03-2009 02:33:37 1.2 C 57 % -6.36 C
3732 19-03-2009 02:45:38 0.9 C 58 % -6.41 C
3733 19-03-2009 02:57:38 0.7 C 59 % -6.38 C
3734 19-03-2009 03:09:38 0.6 C 60 % -6.25 C
3735 19-03-2009 03:21:38 0.5 C 60 % -6.35 C
3736 19-03-2009 03:33:38 0.4 C 60 % -6.44 C
3737 19-03-2009 03:45:38 0.2 C 61 % -6.41 C
3738 19-03-2009 03:57:38 0.1 C 61 % -6.51 C
3739 19-03-2009 04:09:38 0 C 62 % -6.39 C
3740 19-03-2009 04:21:38 -0.2 C 63 % -6.38 C
3741 19-03-2009 04:33:38 -0.3 C 64 % -6.27 C
3742 19-03-2009 04:45:38 -0.4 C 65 % -6.16 C
3743 19-03-2009 04:57:38 -0.5 C 66 % -6.06 C
3744 19-03-2009 05:09:38 -0.6 C 66 % -6.16 C
3745 19-03-2009 05:21:38 -0.7 C 66 % -6.25 C
3746 19-03-2009 05:33:38 -0.8 C 67 % -6.15 C
3747 19-03-2009 05:45:38 -0.9 C 68 % -6.05 C
3748 19-03-2009 05:57:38 -1.1 C 68 % -6.24 C
3749 19-03-2009 06:09:38 -1.1 C 68 % -6.24 C
3750 19-03-2009 06:21:38 -1.2 C 67 % -6.53 C
Sensor: Nr:Datum:Temp:Feuchte:Taupunkt:
Aussen-T/F 3751 19-03-2009 06:33:39 -1.2 C 67 % -6.53 C
3752 19-03-2009 06:45:39 -1.3 C 68 % -6.43 C
3753 19-03-2009 06:57:39 -1.3 C 68 % -6.43 C
3754 19-03-2009 07:09:36 -1.5 C 67 % -6.82 C
3755 19-03-2009 07:21:36 -1.4 C 68 % -6.53 C
3756 19-03-2009 07:33:35 -1.3 C 68 % -6.43 C
3757 19-03-2009 07:45:35 -1.2 C 68 % -6.34 C
3758 19-03-2009 07:57:35 -1.1 C 68 % -6.24 C
3759 19-03-2009 08:09:35 -0.9 C 68 % -6.05 C
3760 19-03-2009 08:21:35 -0.8 C 69 % -5.77 C
3761 19-03-2009 08:33:35 -0.3 C 69 % -5.29 C
3762 19-03-2009 08:45:35 0.4 C 67 % -5 C
3763 19-03-2009 08:57:35 0.9 C 64 % -5.12 C
3764 19-03-2009 09:09:35 1.6 C 60 % -5.31 C
3765 19-03-2009 09:21:34 1.9 C 58 % -5.47 C
3766 19-03-2009 09:33:34 2 C 53 % -6.55 C
3767 19-03-2009 09:45:34 2.2 C 52 % -6.62 C
3768 19-03-2009 09:57:34 2.5 C 54 % -5.85 C
3769 19-03-2009 10:09:34 2.8 C 53 % -5.81 C
3770 19-03-2009 10:21:34 3.2 C 50 % -6.2 C
3771 19-03-2009 10:33:34 4.1 C 49 % -5.63 C
3772 19-03-2009 10:45:34 4.6 C 47 % -5.72 C
3773 19-03-2009 10:57:34 5.3 C 45 % -5.65 C
3774 19-03-2009 11:09:33 5.6 C 44 % -5.67 C
3775 19-03-2009 11:21:34 6.5 C 42 % -5.46 C
Sensor: Nr:Datum:Temp:Feuchte:Taupunkt:
Aussen-T/F 3776 19-03-2009 11:33:33 6.5 C 40 % -6.1 C
3777 19-03-2009 11:45:33 7.1 C 41 % -5.24 C
3778 19-03-2009 11:57:33 7.3 C 38 % -6.05 C
3779 19-03-2009 12:09:32 7.6 C 38 % -5.79 C
3780 19-03-2009 12:21:33 8.7 C 34 % -6.26 C
3781 19-03-2009 12:33:33 9.5 C 27 % -8.54 C
3782 19-03-2009 12:45:32 9.8 C 25 % -9.26 C
3783 19-03-2009 12:57:32 9.9 C 25 % -9.18 C
3784 19-03-2009 13:09:33 10.7 C 23 % -9.56 C
3785 19-03-2009 13:21:32 11.1 C 20 % -10.98 C
3786 19-03-2009 13:33:32 11.9 C 21 % -9.7 C
3787 19-03-2009 13:45:32 13.5 C 20 % -8.99 C
3788 19-03-2009 13:57:32 14 C 20 % -8.57 C
3789 19-03-2009 14:09:32 14.2 C 20 % -8.41 C
3790 19-03-2009 14:21:31 14.7 C 20 % -7.99 C
3791 19-03-2009 14:33:31 14.3 C 20 % -8.33 C
3792 19-03-2009 14:45:32 15.7 C 20 % -7.17 C
3793 19-03-2009 14:57:32 15.8 C 20 % -7.08 C
3794 19-03-2009 15:09:31 14.4 C 20 % -8.24 C
3795 19-03-2009 15:21:31 15.2 C 20 % -7.58 C
3796 19-03-2009 15:33:30 15.2 C 20 % -7.58 C
3797 19-03-2009 15:45:31 16.5 C 20 % -6.5 C
3798 19-03-2009 15:57:31 15.1 C 20 % -7.66 C
3799 19-03-2009 16:09:30 13.8 C 20 % -8.74 C
3800 19-03-2009 16:21:30 13.2 C 20 % -9.24 C
Sensor: Nr:Datum:Temp:Feuchte:Taupunkt:
Aussen-T/F 3801 19-03-2009 16:33:31 13.5 C 20 % -8.99 C
3802 19-03-2009 16:45:30 12.7 C 20 % -9.65 C
3803 19-03-2009 16:57:30 12.4 C 20 % -9.9 C
3804 19-03-2009 17:09:30 12.3 C 20 % -9.98 C
3805 19-03-2009 17:21:30 12.5 C 20 % -9.82 C
3806 19-03-2009 17:33:30 12.5 C 20 % -9.82 C
3807 19-03-2009 17:45:29 11.8 C 20 % -10.4 C
3808 19-03-2009 17:57:29 11.1 C 20 % -10.98 C
3809 19-03-2009 18:09:30 10.9 C 20 % -11.14 C
3810 19-03-2009 18:21:29 10.2 C 20 % -11.73 C
3811 19-03-2009 18:33:29 9.8 C 20 % -12.06 C
3812 19-03-2009 18:45:28 9.3 C 20 % -12.47 C
3813 19-03-2009 18:57:28 8.9 C 26 % -9.53 C
3814 19-03-2009 19:09:29 8.8 C 26 % -9.62 C
3815 19-03-2009 19:21:29 8.3 C 28 % -9.11 C
3816 19-03-2009 19:33:28 7.9 C 30 % -8.58 C
3817 19-03-2009 19:45:29 7.6 C 30 % -8.84 C
3818 19-03-2009 19:57:29 7.4 C 31 % -8.59 C
3819 19-03-2009 20:09:28 7.4 C 31 % -8.59 C
3820 19-03-2009 20:21:29 7.2 C 32 % -8.36 C
3821 19-03-2009 20:33:28 6.9 C 35 % -7.48 C
3822 19-03-2009 20:45:27 6.7 C 36 % -7.29 C
3823 19-03-2009 20:57:27 6.3 C 38 % -6.95 C
3824 19-03-2009 21:09:27 6 C 37 % -7.56 C
3825 19-03-2009 21:21:28 5.8 C 38 % -7.4 C
Sensor: Nr:Datum:Temp:Feuchte:Taupunkt:
Aussen-T/F 3826 19-03-2009 21:33:27 5.6 C 39 % -7.24 C
3827 19-03-2009 21:45:27 5.3 C 40 % -7.18 C
3828 19-03-2009 21:57:27 5.1 C 40 % -7.36 C
3829 19-03-2009 22:09:28 4.9 C 42 % -6.91 C
3830 19-03-2009 22:22:28 4.7 C 43 % -6.79 C
3831 19-03-2009 22:34:28 4.5 C 42 % -7.27 C
3832 19-03-2009 22:46:28 4.2 C 44 % -6.94 C
3833 19-03-2009 22:58:28 4.1 C 43 % -7.33 C
3834 19-03-2009 23:10:28 3.7 C 47 % -6.55 C
3835 19-03-2009 23:22:28 3.6 C 47 % -6.64 C
3836 19-03-2009 23:34:29 3.5 C 47 % -6.73 C
3837 19-03-2009 23:46:29 3.3 C 48 % -6.64 C
3838 19-03-2009 23:58:29 3.1 C 49 % -6.56 C
3839 20-03-2009 00:10:29 2.9 C 51 % -6.22 C
3840 20-03-2009 00:22:29 2.7 C 53 % -5.9 C
3841 20-03-2009 00:34:29 2.5 C 54 % -5.85 C
3842 20-03-2009 00:46:29 2.4 C 54 % -5.94 C
3843 20-03-2009 00:58:29 2.3 C 55 % -5.79 C
3844 20-03-2009 01:10:29 2 C 56 % -5.84 C
3845 20-03-2009 01:22:29 1.9 C 58 % -5.47 C
3846 20-03-2009 01:34:29 1.8 C 59 % -5.34 C
3847 20-03-2009 01:46:29 1.4 C 59 % -5.72 C
3848 20-03-2009 01:58:29 1.3 C 60 % -5.59 C
3849 20-03-2009 02:10:29 1.1 C 60 % -5.78 C
3850 20-03-2009 02:22:29 0.8 C 62 % -5.63 C
Sensor: Nr:Datum:Temp:Feuchte:Taupunkt:
Aussen-T/F 3851 20-03-2009 02:34:29 0.5 C 61 % -6.13 C
3852 20-03-2009 02:46:29 0.4 C 63 % -5.8 C
3853 20-03-2009 02:58:29 0.2 C 63 % -5.99 C
3854 20-03-2009 03:10:29 0.1 C 64 % -5.88 C
3855 20-03-2009 03:22:29 0 C 65 % -5.78 C
3856 20-03-2009 03:34:30 0 C 65 % -5.78 C
3857 20-03-2009 03:46:30 -0.2 C 65 % -5.97 C
3858 20-03-2009 03:58:30 -0.3 C 66 % -5.87 C
3859 20-03-2009 04:10:30 -0.5 C 66 % -6.06 C
3860 20-03-2009 04:22:30 -0.7 C 67 % -6.05 C
3861 20-03-2009 04:34:30 -0.7 C 66 % -6.25 C
3862 20-03-2009 04:46:30 -0.6 C 66 % -6.16 C
3863 20-03-2009 04:58:30 -0.4 C 63 % -6.57 C
3864 20-03-2009 05:10:30 -0.4 C 60 % -7.2 C
3865 20-03-2009 05:22:30 -0.3 C 59 % -7.33 C
3866 20-03-2009 05:34:30 -0.5 C 60 % -7.3 C
3867 20-03-2009 05:46:30 -0.4 C 59 % -7.42 C
3868 20-03-2009 05:58:30 -0.6 C 58 % -7.83 C
3869 20-03-2009 06:10:30 -0.4 C 55 % -8.33 C
3870 20-03-2009 06:22:30 -0.4 C 56 % -8.09 C
3871 20-03-2009 06:34:30 -0.8 C 60 % -7.58 C
3872 20-03-2009 06:46:27 -0.9 C 62 % -7.25 C
3873 20-03-2009 06:58:27 -0.9 C 62 % -7.25 C
3874 20-03-2009 07:10:27 -1.1 C 61 % -7.65 C
3875 20-03-2009 07:22:28 -1.1 C 62 % -7.44 C
Sensor: Nr:Datum:Temp:Feuchte:Taupunkt:
Aussen-T/F 3876 20-03-2009 07:34:27 -1 C 61 % -7.56 C
3877 20-03-2009 07:46:27 -0.7 C 60 % -7.49 C
3878 20-03-2009 07:58:27 -0.4 C 60 % -7.2 C
3879 20-03-2009 08:10:27 -0.6 C 60 % -7.39 C
3880 20-03-2009 08:22:27 -0.6 C 60 % -7.39 C
3881 20-03-2009 08:34:26 -0.4 C 62 % -6.78 C
3882 20-03-2009 08:46:26 -0.1 C 62 % -6.5 C
3883 20-03-2009 08:58:26 0.3 C 58 % -6.97 C
3884 20-03-2009 09:10:26 0.8 C 56 % -6.96 C
3885 20-03-2009 09:22:26 1.5 C 52 % -7.27 C
3886 20-03-2009 09:34:26 2.5 C 45 % -8.2 C
3887 20-03-2009 09:46:25 3.1 C 45 % -7.66 C
3888 20-03-2009 09:58:25 3.5 C 45 % -7.29 C
3889